<?xml version="1.0" encoding="UTF-8" standalone="no" ?>
<gpx xmlns="http://www.topografix.com/GPX/1/1" creator="Cyclopedia.no" version="1.1" xmlns:xsi="http://www.w3.org/2001/XMLSchema-instance" xsi:schemaLocation="http://www.topografix.com/GPX/1/1 http://www.topografix.com/GPX/1/1/gpx.xsd">
	<metadata>
		<link href="http://www.cyclopedia.no"><text>Cyclopedia.no</text></link>
		<time>2026-05-07T17:52:36Z</time>	</metadata>
	<wpt lat="37.710944" lon="-25.501747"><ele>43</ele><time>0001-01-01T00:00:00Z</time><name>Start</name></wpt>
	<wpt lat="37.751985" lon="-25.641875"><ele>44</ele><time>0001-01-01T00:00:00Z</time><name># Brostein i São Roque</name></wpt>
	<wpt lat="37.79939" lon="-25.779887"><ele>217</ele><time>0001-01-01T00:00:00Z</time><name>Feteiras</name></wpt>
	<wpt lat="37.874746" lon="-25.828872"><ele>209</ele><time>0001-01-01T00:00:00Z</time><name>Mosteiros</name></wpt>
	<wpt lat="37.904409" lon="-25.775896"><ele>150</ele><time>0001-01-01T00:00:00Z</time><name># Veldig dårlig asfalt</name></wpt>
	<wpt lat="37.89004" lon="-25.745806"><ele>203</ele><time>0001-01-01T00:00:00Z</time><name>## Slutt veldig dårlig asfalt</name></wpt>
	<wpt lat="37.820858" lon="-25.607849"><ele>30</ele><time>0001-01-01T00:00:00Z</time><name>Rabo de Peixe</name></wpt>
	<wpt lat="37.746292" lon="-25.574081"><ele>32</ele><time>0001-01-01T00:00:00Z</time><name>Lagoa</name></wpt>
	<wpt lat="37.710996" lon="-25.501736"><ele>43</ele><time>0001-01-01T00:00:00Z</time><name>Slutt</name></wpt>
	<trk>
		<name>Vuelta a Nordoeste</name>
		<trkseg>
				<trkpt lat="37.71094" lon="-25.50175">
					<ele>43</ele>
					<time>0001-01-01T00:00:00Z</time>
				</trkpt>
				<trkpt lat="37.71094" lon="-25.50175">
					<ele>37</ele>
					<time>0001-01-01T00:00:00Z</time>
				</trkpt>
				<trkpt lat="37.71091" lon="-25.50180">
					<ele>36</ele>
					<time>0001-01-01T00:00:00Z</time>
				</trkpt>
				<trkpt lat="37.71090" lon="-25.50200">
					<ele>38</ele>
					<time>0001-01-01T00:00:00Z</time>
				</trkpt>
				<trkpt lat="37.71092" lon="-25.50204">
					<ele>39</ele>
					<time>0001-01-01T00:00:00Z</time>
				</trkpt>
				<trkpt lat="37.71098" lon="-25.50204">
					<ele>39</ele>
					<time>0001-01-01T00:00:00Z</time>
				</trkpt>
				<trkpt lat="37.71144" lon="-25.50208">
					<ele>40</ele>
					<time>0001-01-01T00:00:00Z</time>
				</trkpt>
				<trkpt lat="37.71195" lon="-25.50213">
					<ele>40</ele>
					<time>0001-01-01T00:00:00Z</time>
				</trkpt>
				<trkpt lat="37.71244" lon="-25.50219">
					<ele>42</ele>
					<time>0001-01-01T00:00:00Z</time>
				</trkpt>
				<trkpt lat="37.71250" lon="-25.50221">
					<ele>43</ele>
					<time>0001-01-01T00:00:00Z</time>
				</trkpt>
				<trkpt lat="37.71251" lon="-25.50235">
					<ele>44</ele>
					<time>0001-01-01T00:00:00Z</time>
				</trkpt>
				<trkpt lat="37.71225" lon="-25.50306">
					<ele>46</ele>
					<time>0001-01-01T00:00:00Z</time>
				</trkpt>
				<trkpt lat="37.71203" lon="-25.50361">
					<ele>46</ele>
					<time>0001-01-01T00:00:00Z</time>
				</trkpt>
				<trkpt lat="37.71218" lon="-25.50478">
					<ele>44</ele>
					<time>0001-01-01T00:00:00Z</time>
				</trkpt>
				<trkpt lat="37.71227" lon="-25.50517">
					<ele>45</ele>
					<time>0001-01-01T00:00:00Z</time>
				</trkpt>
				<trkpt lat="37.71235" lon="-25.50526">
					<ele>45</ele>
					<time>0001-01-01T00:00:00Z</time>
				</trkpt>
				<trkpt lat="37.71291" lon="-25.50587">
					<ele>47</ele>
					<time>0001-01-01T00:00:00Z</time>
				</trkpt>
				<trkpt lat="37.71319" lon="-25.50615">
					<ele>52</ele>
					<time>0001-01-01T00:00:00Z</time>
				</trkpt>
				<trkpt lat="37.71343" lon="-25.50638">
					<ele>55</ele>
					<time>0001-01-01T00:00:00Z</time>
				</trkpt>
				<trkpt lat="37.71374" lon="-25.50672">
					<ele>57</ele>
					<time>0001-01-01T00:00:00Z</time>
				</trkpt>
				<trkpt lat="37.71389" lon="-25.50726">
					<ele>61</ele>
					<time>0001-01-01T00:00:00Z</time>
				</trkpt>
				<trkpt lat="37.71397" lon="-25.50769">
					<ele>65</ele>
					<time>0001-01-01T00:00:00Z</time>
				</trkpt>
				<trkpt lat="37.71402" lon="-25.50838">
					<ele>69</ele>
					<time>0001-01-01T00:00:00Z</time>
				</trkpt>
				<trkpt lat="37.71406" lon="-25.50888">
					<ele>71</ele>
					<time>0001-01-01T00:00:00Z</time>
				</trkpt>
				<trkpt lat="37.71429" lon="-25.50949">
					<ele>71</ele>
					<time>0001-01-01T00:00:00Z</time>
				</trkpt>
				<trkpt lat="37.71448" lon="-25.50978">
					<ele>69</ele>
					<time>0001-01-01T00:00:00Z</time>
				</trkpt>
				<trkpt lat="37.71470" lon="-25.50993">
					<ele>69</ele>
					<time>0001-01-01T00:00:00Z</time>
				</trkpt>
				<trkpt lat="37.71528" lon="-25.51071">
					<ele>67</ele>
					<time>0001-01-01T00:00:00Z</time>
				</trkpt>
				<trkpt lat="37.71535" lon="-25.51080">
					<ele>67</ele>
					<time>0001-01-01T00:00:00Z</time>
				</trkpt>
				<trkpt lat="37.71564" lon="-25.51088">
					<ele>68</ele>
					<time>0001-01-01T00:00:00Z</time>
				</trkpt>
				<trkpt lat="37.71595" lon="-25.51081">
					<ele>68</ele>
					<time>0001-01-01T00:00:00Z</time>
				</trkpt>
				<trkpt lat="37.71631" lon="-25.51108">
					<ele>69</ele>
					<time>0001-01-01T00:00:00Z</time>
				</trkpt>
				<trkpt lat="37.71667" lon="-25.51164">
					<ele>70</ele>
					<time>0001-01-01T00:00:00Z</time>
				</trkpt>
				<trkpt lat="37.71710" lon="-25.51197">
					<ele>74</ele>
					<time>0001-01-01T00:00:00Z</time>
				</trkpt>
				<trkpt lat="37.71757" lon="-25.51215">
					<ele>79</ele>
					<time>0001-01-01T00:00:00Z</time>
				</trkpt>
				<trkpt lat="37.71789" lon="-25.51217">
					<ele>81</ele>
					<time>0001-01-01T00:00:00Z</time>
				</trkpt>
				<trkpt lat="37.71815" lon="-25.51217">
					<ele>84</ele>
					<time>0001-01-01T00:00:00Z</time>
				</trkpt>
				<trkpt lat="37.71847" lon="-25.51209">
					<ele>86</ele>
					<time>0001-01-01T00:00:00Z</time>
				</trkpt>
				<trkpt lat="37.71870" lon="-25.51204">
					<ele>88</ele>
					<time>0001-01-01T00:00:00Z</time>
				</trkpt>
				<trkpt lat="37.72020" lon="-25.51123">
					<ele>96</ele>
					<time>0001-01-01T00:00:00Z</time>
				</trkpt>
				<trkpt lat="37.72036" lon="-25.51115">
					<ele>96</ele>
					<time>0001-01-01T00:00:00Z</time>
				</trkpt>
				<trkpt lat="37.72048" lon="-25.51140">
					<ele>99</ele>
					<time>0001-01-01T00:00:00Z</time>
				</trkpt>
				<trkpt lat="37.72038" lon="-25.51224">
					<ele>103</ele>
					<time>0001-01-01T00:00:00Z</time>
				</trkpt>
				<trkpt lat="37.72031" lon="-25.51263">
					<ele>103</ele>
					<time>0001-01-01T00:00:00Z</time>
				</trkpt>
				<trkpt lat="37.72070" lon="-25.51346">
					<ele>102</ele>
					<time>0001-01-01T00:00:00Z</time>
				</trkpt>
				<trkpt lat="37.72098" lon="-25.51417">
					<ele>102</ele>
					<time>0001-01-01T00:00:00Z</time>
				</trkpt>
				<trkpt lat="37.72124" lon="-25.51522">
					<ele>101</ele>
					<time>0001-01-01T00:00:00Z</time>
				</trkpt>
				<trkpt lat="37.72139" lon="-25.51541">
					<ele>100</ele>
					<time>0001-01-01T00:00:00Z</time>
				</trkpt>
				<trkpt lat="37.72202" lon="-25.51523">
					<ele>100</ele>
					<time>0001-01-01T00:00:00Z</time>
				</trkpt>
				<trkpt lat="37.72299" lon="-25.51529">
					<ele>100</ele>
					<time>0001-01-01T00:00:00Z</time>
				</trkpt>
				<trkpt lat="37.72324" lon="-25.51538">
					<ele>101</ele>
					<time>0001-01-01T00:00:00Z</time>
				</trkpt>
				<trkpt lat="37.72325" lon="-25.51573">
					<ele>100</ele>
					<time>0001-01-01T00:00:00Z</time>
				</trkpt>
				<trkpt lat="37.72292" lon="-25.51654">
					<ele>104</ele>
					<time>0001-01-01T00:00:00Z</time>
				</trkpt>
				<trkpt lat="37.72237" lon="-25.51677">
					<ele>109</ele>
					<time>0001-01-01T00:00:00Z</time>
				</trkpt>
				<trkpt lat="37.72180" lon="-25.51703">
					<ele>112</ele>
					<time>0001-01-01T00:00:00Z</time>
				</trkpt>
				<trkpt lat="37.72139" lon="-25.51752">
					<ele>116</ele>
					<time>0001-01-01T00:00:00Z</time>
				</trkpt>
				<trkpt lat="37.72130" lon="-25.51784">
					<ele>117</ele>
					<time>0001-01-01T00:00:00Z</time>
				</trkpt>
				<trkpt lat="37.72144" lon="-25.51855">
					<ele>115</ele>
					<time>0001-01-01T00:00:00Z</time>
				</trkpt>
				<trkpt lat="37.72162" lon="-25.51920">
					<ele>121</ele>
					<time>0001-01-01T00:00:00Z</time>
				</trkpt>
				<trkpt lat="37.72210" lon="-25.51978">
					<ele>127</ele>
					<time>0001-01-01T00:00:00Z</time>
				</trkpt>
				<trkpt lat="37.72270" lon="-25.52039">
					<ele>130</ele>
					<time>0001-01-01T00:00:00Z</time>
				</trkpt>
				<trkpt lat="37.72319" lon="-25.52094">
					<ele>135</ele>
					<time>0001-01-01T00:00:00Z</time>
				</trkpt>
				<trkpt lat="37.72357" lon="-25.52191">
					<ele>140</ele>
					<time>0001-01-01T00:00:00Z</time>
				</trkpt>
				<trkpt lat="37.72385" lon="-25.52272">
					<ele>141</ele>
					<time>0001-01-01T00:00:00Z</time>
				</trkpt>
				<trkpt lat="37.72387" lon="-25.52296">
					<ele>141</ele>
					<time>0001-01-01T00:00:00Z</time>
				</trkpt>
				<trkpt lat="37.72370" lon="-25.52431">
					<ele>140</ele>
					<time>0001-01-01T00:00:00Z</time>
				</trkpt>
				<trkpt lat="37.72346" lon="-25.52601">
					<ele>135</ele>
					<time>0001-01-01T00:00:00Z</time>
				</trkpt>
				<trkpt lat="37.72326" lon="-25.52759">
					<ele>131</ele>
					<time>0001-01-01T00:00:00Z</time>
				</trkpt>
				<trkpt lat="37.72388" lon="-25.52953">
					<ele>129</ele>
					<time>0001-01-01T00:00:00Z</time>
				</trkpt>
				<trkpt lat="37.72392" lon="-25.52991">
					<ele>131</ele>
					<time>0001-01-01T00:00:00Z</time>
				</trkpt>
				<trkpt lat="37.72393" lon="-25.53042">
					<ele>132</ele>
					<time>0001-01-01T00:00:00Z</time>
				</trkpt>
				<trkpt lat="37.72433" lon="-25.53162">
					<ele>131</ele>
					<time>0001-01-01T00:00:00Z</time>
				</trkpt>
				<trkpt lat="37.72435" lon="-25.53170">
					<ele>131</ele>
					<time>0001-01-01T00:00:00Z</time>
				</trkpt>
				<trkpt lat="37.72445" lon="-25.53268">
					<ele>127</ele>
					<time>0001-01-01T00:00:00Z</time>
				</trkpt>
				<trkpt lat="37.72486" lon="-25.53364">
					<ele>125</ele>
					<time>0001-01-01T00:00:00Z</time>
				</trkpt>
				<trkpt lat="37.72496" lon="-25.53392">
					<ele>124</ele>
					<time>0001-01-01T00:00:00Z</time>
				</trkpt>
				<trkpt lat="37.72508" lon="-25.53531">
					<ele>125</ele>
					<time>0001-01-01T00:00:00Z</time>
				</trkpt>
				<trkpt lat="37.72545" lon="-25.53626">
					<ele>125</ele>
					<time>0001-01-01T00:00:00Z</time>
				</trkpt>
				<trkpt lat="37.72548" lon="-25.53632">
					<ele>125</ele>
					<time>0001-01-01T00:00:00Z</time>
				</trkpt>
				<trkpt lat="37.72613" lon="-25.53740">
					<ele>130</ele>
					<time>0001-01-01T00:00:00Z</time>
				</trkpt>
				<trkpt lat="37.72662" lon="-25.53806">
					<ele>131</ele>
					<time>0001-01-01T00:00:00Z</time>
				</trkpt>
				<trkpt lat="37.72723" lon="-25.53893">
					<ele>133</ele>
					<time>0001-01-01T00:00:00Z</time>
				</trkpt>
				<trkpt lat="37.72843" lon="-25.54088">
					<ele>141</ele>
					<time>0001-01-01T00:00:00Z</time>
				</trkpt>
				<trkpt lat="37.72898" lon="-25.54192">
					<ele>139</ele>
					<time>0001-01-01T00:00:00Z</time>
				</trkpt>
				<trkpt lat="37.72922" lon="-25.54253">
					<ele>137</ele>
					<time>0001-01-01T00:00:00Z</time>
				</trkpt>
				<trkpt lat="37.73006" lon="-25.54371">
					<ele>135</ele>
					<time>0001-01-01T00:00:00Z</time>
				</trkpt>
				<trkpt lat="37.73087" lon="-25.54472">
					<ele>133</ele>
					<time>0001-01-01T00:00:00Z</time>
				</trkpt>
				<trkpt lat="37.73128" lon="-25.54494">
					<ele>134</ele>
					<time>0001-01-01T00:00:00Z</time>
				</trkpt>
				<trkpt lat="37.73224" lon="-25.54499">
					<ele>132</ele>
					<time>0001-01-01T00:00:00Z</time>
				</trkpt>
				<trkpt lat="37.73323" lon="-25.54505">
					<ele>131</ele>
					<time>0001-01-01T00:00:00Z</time>
				</trkpt>
				<trkpt lat="37.73419" lon="-25.54519">
					<ele>132</ele>
					<time>0001-01-01T00:00:00Z</time>
				</trkpt>
				<trkpt lat="37.73551" lon="-25.54542">
					<ele>136</ele>
					<time>0001-01-01T00:00:00Z</time>
				</trkpt>
				<trkpt lat="37.73657" lon="-25.54576">
					<ele>135</ele>
					<time>0001-01-01T00:00:00Z</time>
				</trkpt>
				<trkpt lat="37.73796" lon="-25.54641">
					<ele>129</ele>
					<time>0001-01-01T00:00:00Z</time>
				</trkpt>
				<trkpt lat="37.73949" lon="-25.54747">
					<ele>122</ele>
					<time>0001-01-01T00:00:00Z</time>
				</trkpt>
				<trkpt lat="37.74090" lon="-25.54875">
					<ele>117</ele>
					<time>0001-01-01T00:00:00Z</time>
				</trkpt>
				<trkpt lat="37.74152" lon="-25.54874">
					<ele>118</ele>
					<time>0001-01-01T00:00:00Z</time>
				</trkpt>
				<trkpt lat="37.74159" lon="-25.54869">
					<ele>118</ele>
					<time>0001-01-01T00:00:00Z</time>
				</trkpt>
				<trkpt lat="37.74226" lon="-25.54831">
					<ele>120</ele>
					<time>0001-01-01T00:00:00Z</time>
				</trkpt>
				<trkpt lat="37.74252" lon="-25.54833">
					<ele>121</ele>
					<time>0001-01-01T00:00:00Z</time>
				</trkpt>
				<trkpt lat="37.74281" lon="-25.54852">
					<ele>121</ele>
					<time>0001-01-01T00:00:00Z</time>
				</trkpt>
				<trkpt lat="37.74332" lon="-25.54913">
					<ele>120</ele>
					<time>0001-01-01T00:00:00Z</time>
				</trkpt>
				<trkpt lat="37.74328" lon="-25.54928">
					<ele>118</ele>
					<time>0001-01-01T00:00:00Z</time>
				</trkpt>
				<trkpt lat="37.74272" lon="-25.55005">
					<ele>114</ele>
					<time>0001-01-01T00:00:00Z</time>
				</trkpt>
				<trkpt lat="37.74187" lon="-25.55076">
					<ele>106</ele>
					<time>0001-01-01T00:00:00Z</time>
				</trkpt>
				<trkpt lat="37.74156" lon="-25.55093">
					<ele>105</ele>
					<time>0001-01-01T00:00:00Z</time>
				</trkpt>
				<trkpt lat="37.74114" lon="-25.55096">
					<ele>104</ele>
					<time>0001-01-01T00:00:00Z</time>
				</trkpt>
				<trkpt lat="37.74097" lon="-25.55093">
					<ele>104</ele>
					<time>0001-01-01T00:00:00Z</time>
				</trkpt>
				<trkpt lat="37.74070" lon="-25.55128">
					<ele>102</ele>
					<time>0001-01-01T00:00:00Z</time>
				</trkpt>
				<trkpt lat="37.74081" lon="-25.55157">
					<ele>101</ele>
					<time>0001-01-01T00:00:00Z</time>
				</trkpt>
				<trkpt lat="37.74127" lon="-25.55237">
					<ele>101</ele>
					<time>0001-01-01T00:00:00Z</time>
				</trkpt>
				<trkpt lat="37.74127" lon="-25.55288">
					<ele>102</ele>
					<time>0001-01-01T00:00:00Z</time>
				</trkpt>
				<trkpt lat="37.74099" lon="-25.55415">
					<ele>102</ele>
					<time>0001-01-01T00:00:00Z</time>
				</trkpt>
				<trkpt lat="37.74107" lon="-25.55468">
					<ele>101</ele>
					<time>0001-01-01T00:00:00Z</time>
				</trkpt>
				<trkpt lat="37.74134" lon="-25.55546">
					<ele>99</ele>
					<time>0001-01-01T00:00:00Z</time>
				</trkpt>
				<trkpt lat="37.74205" lon="-25.55644">
					<ele>98</ele>
					<time>0001-01-01T00:00:00Z</time>
				</trkpt>
				<trkpt lat="37.74301" lon="-25.55791">
					<ele>94</ele>
					<time>0001-01-01T00:00:00Z</time>
				</trkpt>
				<trkpt lat="37.74330" lon="-25.55814">
					<ele>92</ele>
					<time>0001-01-01T00:00:00Z</time>
				</trkpt>
				<trkpt lat="37.74370" lon="-25.55859">
					<ele>91</ele>
					<time>0001-01-01T00:00:00Z</time>
				</trkpt>
				<trkpt lat="37.74393" lon="-25.55918">
					<ele>89</ele>
					<time>0001-01-01T00:00:00Z</time>
				</trkpt>
				<trkpt lat="37.74395" lon="-25.56009">
					<ele>83</ele>
					<time>0001-01-01T00:00:00Z</time>
				</trkpt>
				<trkpt lat="37.74399" lon="-25.56036">
					<ele>82</ele>
					<time>0001-01-01T00:00:00Z</time>
				</trkpt>
				<trkpt lat="37.74418" lon="-25.56083">
					<ele>81</ele>
					<time>0001-01-01T00:00:00Z</time>
				</trkpt>
				<trkpt lat="37.74557" lon="-25.56241">
					<ele>74</ele>
					<time>0001-01-01T00:00:00Z</time>
				</trkpt>
				<trkpt lat="37.74610" lon="-25.56302">
					<ele>69</ele>
					<time>0001-01-01T00:00:00Z</time>
				</trkpt>
				<trkpt lat="37.74610" lon="-25.56371">
					<ele>67</ele>
					<time>0001-01-01T00:00:00Z</time>
				</trkpt>
				<trkpt lat="37.74573" lon="-25.56444">
					<ele>65</ele>
					<time>0001-01-01T00:00:00Z</time>
				</trkpt>
				<trkpt lat="37.74564" lon="-25.56491">
					<ele>63</ele>
					<time>0001-01-01T00:00:00Z</time>
				</trkpt>
				<trkpt lat="37.74568" lon="-25.56655">
					<ele>60</ele>
					<time>0001-01-01T00:00:00Z</time>
				</trkpt>
				<trkpt lat="37.74613" lon="-25.56855">
					<ele>54</ele>
					<time>0001-01-01T00:00:00Z</time>
				</trkpt>
				<trkpt lat="37.74666" lon="-25.57029">
					<ele>50</ele>
					<time>0001-01-01T00:00:00Z</time>
				</trkpt>
				<trkpt lat="37.74682" lon="-25.57076">
					<ele>48</ele>
					<time>0001-01-01T00:00:00Z</time>
				</trkpt>
				<trkpt lat="37.74681" lon="-25.57125">
					<ele>47</ele>
					<time>0001-01-01T00:00:00Z</time>
				</trkpt>
				<trkpt lat="37.74646" lon="-25.57310">
					<ele>44</ele>
					<time>0001-01-01T00:00:00Z</time>
				</trkpt>
				<trkpt lat="37.74602" lon="-25.57545">
					<ele>43</ele>
					<time>0001-01-01T00:00:00Z</time>
				</trkpt>
				<trkpt lat="37.74560" lon="-25.57769">
					<ele>40</ele>
					<time>0001-01-01T00:00:00Z</time>
				</trkpt>
				<trkpt lat="37.74532" lon="-25.58012">
					<ele>33</ele>
					<time>0001-01-01T00:00:00Z</time>
				</trkpt>
				<trkpt lat="37.74518" lon="-25.58192">
					<ele>32</ele>
					<time>0001-01-01T00:00:00Z</time>
				</trkpt>
				<trkpt lat="37.74522" lon="-25.58227">
					<ele>32</ele>
					<time>0001-01-01T00:00:00Z</time>
				</trkpt>
				<trkpt lat="37.74532" lon="-25.58291">
					<ele>34</ele>
					<time>0001-01-01T00:00:00Z</time>
				</trkpt>
				<trkpt lat="37.74526" lon="-25.58349">
					<ele>34</ele>
					<time>0001-01-01T00:00:00Z</time>
				</trkpt>
				<trkpt lat="37.74500" lon="-25.58413">
					<ele>33</ele>
					<time>0001-01-01T00:00:00Z</time>
				</trkpt>
				<trkpt lat="37.74500" lon="-25.58536">
					<ele>30</ele>
					<time>0001-01-01T00:00:00Z</time>
				</trkpt>
				<trkpt lat="37.74504" lon="-25.58545">
					<ele>29</ele>
					<time>0001-01-01T00:00:00Z</time>
				</trkpt>
				<trkpt lat="37.74501" lon="-25.58588">
					<ele>27</ele>
					<time>0001-01-01T00:00:00Z</time>
				</trkpt>
				<trkpt lat="37.74502" lon="-25.58604">
					<ele>26</ele>
					<time>0001-01-01T00:00:00Z</time>
				</trkpt>
				<trkpt lat="37.74500" lon="-25.58609">
					<ele>26</ele>
					<time>0001-01-01T00:00:00Z</time>
				</trkpt>
				<trkpt lat="37.74500" lon="-25.58631">
					<ele>26</ele>
					<time>0001-01-01T00:00:00Z</time>
				</trkpt>
				<trkpt lat="37.74481" lon="-25.58760">
					<ele>20</ele>
					<time>0001-01-01T00:00:00Z</time>
				</trkpt>
				<trkpt lat="37.74481" lon="-25.58770">
					<ele>20</ele>
					<time>0001-01-01T00:00:00Z</time>
				</trkpt>
				<trkpt lat="37.74511" lon="-25.58905">
					<ele>18</ele>
					<time>0001-01-01T00:00:00Z</time>
				</trkpt>
				<trkpt lat="37.74545" lon="-25.59013">
					<ele>21</ele>
					<time>0001-01-01T00:00:00Z</time>
				</trkpt>
				<trkpt lat="37.74550" lon="-25.59029">
					<ele>21</ele>
					<time>0001-01-01T00:00:00Z</time>
				</trkpt>
				<trkpt lat="37.74565" lon="-25.59151">
					<ele>22</ele>
					<time>0001-01-01T00:00:00Z</time>
				</trkpt>
				<trkpt lat="37.74606" lon="-25.59305">
					<ele>24</ele>
					<time>0001-01-01T00:00:00Z</time>
				</trkpt>
				<trkpt lat="37.74650" lon="-25.59474">
					<ele>29</ele>
					<time>0001-01-01T00:00:00Z</time>
				</trkpt>
				<trkpt lat="37.74661" lon="-25.59623">
					<ele>30</ele>
					<time>0001-01-01T00:00:00Z</time>
				</trkpt>
				<trkpt lat="37.74652" lon="-25.59774">
					<ele>30</ele>
					<time>0001-01-01T00:00:00Z</time>
				</trkpt>
				<trkpt lat="37.74640" lon="-25.60024">
					<ele>28</ele>
					<time>0001-01-01T00:00:00Z</time>
				</trkpt>
				<trkpt lat="37.74644" lon="-25.60106">
					<ele>29</ele>
					<time>0001-01-01T00:00:00Z</time>
				</trkpt>
				<trkpt lat="37.74700" lon="-25.60287">
					<ele>29</ele>
					<time>0001-01-01T00:00:00Z</time>
				</trkpt>
				<trkpt lat="37.74711" lon="-25.60357">
					<ele>29</ele>
					<time>0001-01-01T00:00:00Z</time>
				</trkpt>
				<trkpt lat="37.74692" lon="-25.60510">
					<ele>29</ele>
					<time>0001-01-01T00:00:00Z</time>
				</trkpt>
				<trkpt lat="37.74676" lon="-25.60605">
					<ele>32</ele>
					<time>0001-01-01T00:00:00Z</time>
				</trkpt>
				<trkpt lat="37.74685" lon="-25.60657">
					<ele>33</ele>
					<time>0001-01-01T00:00:00Z</time>
				</trkpt>
				<trkpt lat="37.74741" lon="-25.60785">
					<ele>33</ele>
					<time>0001-01-01T00:00:00Z</time>
				</trkpt>
				<trkpt lat="37.74814" lon="-25.60940">
					<ele>32</ele>
					<time>0001-01-01T00:00:00Z</time>
				</trkpt>
				<trkpt lat="37.74891" lon="-25.61107">
					<ele>29</ele>
					<time>0001-01-01T00:00:00Z</time>
				</trkpt>
				<trkpt lat="37.74982" lon="-25.61302">
					<ele>25</ele>
					<time>0001-01-01T00:00:00Z</time>
				</trkpt>
				<trkpt lat="37.75070" lon="-25.61520">
					<ele>22</ele>
					<time>0001-01-01T00:00:00Z</time>
				</trkpt>
				<trkpt lat="37.75100" lon="-25.61673">
					<ele>22</ele>
					<time>0001-01-01T00:00:00Z</time>
				</trkpt>
				<trkpt lat="37.75100" lon="-25.61697">
					<ele>21</ele>
					<time>0001-01-01T00:00:00Z</time>
				</trkpt>
				<trkpt lat="37.75121" lon="-25.61837">
					<ele>23</ele>
					<time>0001-01-01T00:00:00Z</time>
				</trkpt>
				<trkpt lat="37.75148" lon="-25.61989">
					<ele>24</ele>
					<time>0001-01-01T00:00:00Z</time>
				</trkpt>
				<trkpt lat="37.75178" lon="-25.62167">
					<ele>24</ele>
					<time>0001-01-01T00:00:00Z</time>
				</trkpt>
				<trkpt lat="37.75197" lon="-25.62302">
					<ele>22</ele>
					<time>0001-01-01T00:00:00Z</time>
				</trkpt>
				<trkpt lat="37.75198" lon="-25.62352">
					<ele>23</ele>
					<time>0001-01-01T00:00:00Z</time>
				</trkpt>
				<trkpt lat="37.75184" lon="-25.62504">
					<ele>21</ele>
					<time>0001-01-01T00:00:00Z</time>
				</trkpt>
				<trkpt lat="37.75158" lon="-25.62647">
					<ele>20</ele>
					<time>0001-01-01T00:00:00Z</time>
				</trkpt>
				<trkpt lat="37.75108" lon="-25.62797">
					<ele>22</ele>
					<time>0001-01-01T00:00:00Z</time>
				</trkpt>
				<trkpt lat="37.75066" lon="-25.62912">
					<ele>25</ele>
					<time>0001-01-01T00:00:00Z</time>
				</trkpt>
				<trkpt lat="37.75059" lon="-25.62964">
					<ele>26</ele>
					<time>0001-01-01T00:00:00Z</time>
				</trkpt>
				<trkpt lat="37.75053" lon="-25.62992">
					<ele>26</ele>
					<time>0001-01-01T00:00:00Z</time>
				</trkpt>
				<trkpt lat="37.75054" lon="-25.63036">
					<ele>24</ele>
					<time>0001-01-01T00:00:00Z</time>
				</trkpt>
				<trkpt lat="37.75061" lon="-25.63076">
					<ele>22</ele>
					<time>0001-01-01T00:00:00Z</time>
				</trkpt>
				<trkpt lat="37.75051" lon="-25.63120">
					<ele>21</ele>
					<time>0001-01-01T00:00:00Z</time>
				</trkpt>
				<trkpt lat="37.74986" lon="-25.63223">
					<ele>17</ele>
					<time>0001-01-01T00:00:00Z</time>
				</trkpt>
				<trkpt lat="37.74974" lon="-25.63237">
					<ele>16</ele>
					<time>0001-01-01T00:00:00Z</time>
				</trkpt>
				<trkpt lat="37.74933" lon="-25.63303">
					<ele>16</ele>
					<time>0001-01-01T00:00:00Z</time>
				</trkpt>
				<trkpt lat="37.74930" lon="-25.63308">
					<ele>17</ele>
					<time>0001-01-01T00:00:00Z</time>
				</trkpt>
				<trkpt lat="37.74915" lon="-25.63329">
					<ele>15</ele>
					<time>0001-01-01T00:00:00Z</time>
				</trkpt>
				<trkpt lat="37.74836" lon="-25.63416">
					<ele>17</ele>
					<time>0001-01-01T00:00:00Z</time>
				</trkpt>
				<trkpt lat="37.74739" lon="-25.63535">
					<ele>19</ele>
					<time>0001-01-01T00:00:00Z</time>
				</trkpt>
				<trkpt lat="37.74705" lon="-25.63568">
					<ele>20</ele>
					<time>0001-01-01T00:00:00Z</time>
				</trkpt>
				<trkpt lat="37.74687" lon="-25.63596">
					<ele>21</ele>
					<time>0001-01-01T00:00:00Z</time>
				</trkpt>
				<trkpt lat="37.74693" lon="-25.63617">
					<ele>23</ele>
					<time>0001-01-01T00:00:00Z</time>
				</trkpt>
				<trkpt lat="37.74763" lon="-25.63678">
					<ele>27</ele>
					<time>0001-01-01T00:00:00Z</time>
				</trkpt>
				<trkpt lat="37.74781" lon="-25.63694">
					<ele>27</ele>
					<time>0001-01-01T00:00:00Z</time>
				</trkpt>
				<trkpt lat="37.74861" lon="-25.63763">
					<ele>28</ele>
					<time>0001-01-01T00:00:00Z</time>
				</trkpt>
				<trkpt lat="37.74925" lon="-25.63829">
					<ele>29</ele>
					<time>0001-01-01T00:00:00Z</time>
				</trkpt>
				<trkpt lat="37.74971" lon="-25.63874">
					<ele>33</ele>
					<time>0001-01-01T00:00:00Z</time>
				</trkpt>
				<trkpt lat="37.75005" lon="-25.63898">
					<ele>32</ele>
					<time>0001-01-01T00:00:00Z</time>
				</trkpt>
				<trkpt lat="37.75016" lon="-25.63901">
					<ele>33</ele>
					<time>0001-01-01T00:00:00Z</time>
				</trkpt>
				<trkpt lat="37.75086" lon="-25.63910">
					<ele>36</ele>
					<time>0001-01-01T00:00:00Z</time>
				</trkpt>
				<trkpt lat="37.75091" lon="-25.63911">
					<ele>36</ele>
					<time>0001-01-01T00:00:00Z</time>
				</trkpt>
				<trkpt lat="37.75150" lon="-25.63957">
					<ele>40</ele>
					<time>0001-01-01T00:00:00Z</time>
				</trkpt>
				<trkpt lat="37.75173" lon="-25.64016">
					<ele>44</ele>
					<time>0001-01-01T00:00:00Z</time>
				</trkpt>
				<trkpt lat="37.75222" lon="-25.64088">
					<ele>45</ele>
					<time>0001-01-01T00:00:00Z</time>
				</trkpt>
				<trkpt lat="37.75237" lon="-25.64102">
					<ele>45</ele>
					<time>0001-01-01T00:00:00Z</time>
				</trkpt>
				<trkpt lat="37.75249" lon="-25.64124">
					<ele>45</ele>
					<time>0001-01-01T00:00:00Z</time>
				</trkpt>
				<trkpt lat="37.75245" lon="-25.64133">
					<ele>45</ele>
					<time>0001-01-01T00:00:00Z</time>
				</trkpt>
				<trkpt lat="37.75199" lon="-25.64188">
					<ele>44</ele>
					<time>0001-01-01T00:00:00Z</time>
				</trkpt>
				<trkpt lat="37.75100" lon="-25.64272">
					<ele>43</ele>
					<time>0001-01-01T00:00:00Z</time>
				</trkpt>
				<trkpt lat="37.74982" lon="-25.64346">
					<ele>42</ele>
					<time>0001-01-01T00:00:00Z</time>
				</trkpt>
				<trkpt lat="37.74922" lon="-25.64384">
					<ele>42</ele>
					<time>0001-01-01T00:00:00Z</time>
				</trkpt>
				<trkpt lat="37.74885" lon="-25.64453">
					<ele>41</ele>
					<time>0001-01-01T00:00:00Z</time>
				</trkpt>
				<trkpt lat="37.74862" lon="-25.64599">
					<ele>42</ele>
					<time>0001-01-01T00:00:00Z</time>
				</trkpt>
				<trkpt lat="37.74840" lon="-25.64645">
					<ele>41</ele>
					<time>0001-01-01T00:00:00Z</time>
				</trkpt>
				<trkpt lat="37.74812" lon="-25.64671">
					<ele>40</ele>
					<time>0001-01-01T00:00:00Z</time>
				</trkpt>
				<trkpt lat="37.74732" lon="-25.64687">
					<ele>37</ele>
					<time>0001-01-01T00:00:00Z</time>
				</trkpt>
				<trkpt lat="37.74665" lon="-25.64678">
					<ele>35</ele>
					<time>0001-01-01T00:00:00Z</time>
				</trkpt>
				<trkpt lat="37.74636" lon="-25.64678">
					<ele>35</ele>
					<time>0001-01-01T00:00:00Z</time>
				</trkpt>
				<trkpt lat="37.74598" lon="-25.64724">
					<ele>32</ele>
					<time>0001-01-01T00:00:00Z</time>
				</trkpt>
				<trkpt lat="37.74572" lon="-25.64854">
					<ele>31</ele>
					<time>0001-01-01T00:00:00Z</time>
				</trkpt>
				<trkpt lat="37.74551" lon="-25.64976">
					<ele>29</ele>
					<time>0001-01-01T00:00:00Z</time>
				</trkpt>
				<trkpt lat="37.74546" lon="-25.65019">
					<ele>28</ele>
					<time>0001-01-01T00:00:00Z</time>
				</trkpt>
				<trkpt lat="37.74545" lon="-25.65020">
					<ele>42</ele>
					<time>0001-01-01T00:00:00Z</time>
				</trkpt>
				<trkpt lat="37.74541" lon="-25.65037">
					<ele>38</ele>
					<time>0001-01-01T00:00:00Z</time>
				</trkpt>
				<trkpt lat="37.74524" lon="-25.65040">
					<ele>35</ele>
					<time>0001-01-01T00:00:00Z</time>
				</trkpt>
				<trkpt lat="37.74497" lon="-25.65032">
					<ele>32</ele>
					<time>0001-01-01T00:00:00Z</time>
				</trkpt>
				<trkpt lat="37.74473" lon="-25.65036">
					<ele>30</ele>
					<time>0001-01-01T00:00:00Z</time>
				</trkpt>
				<trkpt lat="37.74372" lon="-25.65106">
					<ele>23</ele>
					<time>0001-01-01T00:00:00Z</time>
				</trkpt>
				<trkpt lat="37.74307" lon="-25.65156">
					<ele>20</ele>
					<time>0001-01-01T00:00:00Z</time>
				</trkpt>
				<trkpt lat="37.74296" lon="-25.65189">
					<ele>19</ele>
					<time>0001-01-01T00:00:00Z</time>
				</trkpt>
				<trkpt lat="37.74271" lon="-25.65339">
					<ele>22</ele>
					<time>0001-01-01T00:00:00Z</time>
				</trkpt>
				<trkpt lat="37.74261" lon="-25.65396">
					<ele>22</ele>
					<time>0001-01-01T00:00:00Z</time>
				</trkpt>
				<trkpt lat="37.74236" lon="-25.65573">
					<ele>23</ele>
					<time>0001-01-01T00:00:00Z</time>
				</trkpt>
				<trkpt lat="37.74234" lon="-25.65590">
					<ele>23</ele>
					<time>0001-01-01T00:00:00Z</time>
				</trkpt>
				<trkpt lat="37.74244" lon="-25.65680">
					<ele>22</ele>
					<time>0001-01-01T00:00:00Z</time>
				</trkpt>
				<trkpt lat="37.74261" lon="-25.65781">
					<ele>18</ele>
					<time>0001-01-01T00:00:00Z</time>
				</trkpt>
				<trkpt lat="37.74243" lon="-25.65898">
					<ele>17</ele>
					<time>0001-01-01T00:00:00Z</time>
				</trkpt>
				<trkpt lat="37.74205" lon="-25.66002">
					<ele>18</ele>
					<time>0001-01-01T00:00:00Z</time>
				</trkpt>
				<trkpt lat="37.74132" lon="-25.66176">
					<ele>19</ele>
					<time>0001-01-01T00:00:00Z</time>
				</trkpt>
				<trkpt lat="37.74111" lon="-25.66223">
					<ele>21</ele>
					<time>0001-01-01T00:00:00Z</time>
				</trkpt>
				<trkpt lat="37.74107" lon="-25.66269">
					<ele>23</ele>
					<time>0001-01-01T00:00:00Z</time>
				</trkpt>
				<trkpt lat="37.74110" lon="-25.66301">
					<ele>21</ele>
					<time>0001-01-01T00:00:00Z</time>
				</trkpt>
				<trkpt lat="37.74083" lon="-25.66630">
					<ele>20</ele>
					<time>0001-01-01T00:00:00Z</time>
				</trkpt>
				<trkpt lat="37.74036" lon="-25.66794">
					<ele>21</ele>
					<time>0001-01-01T00:00:00Z</time>
				</trkpt>
				<trkpt lat="37.73957" lon="-25.66845">
					<ele>18</ele>
					<time>0001-01-01T00:00:00Z</time>
				</trkpt>
				<trkpt lat="37.73872" lon="-25.67010">
					<ele>18</ele>
					<time>0001-01-01T00:00:00Z</time>
				</trkpt>
				<trkpt lat="37.73919" lon="-25.67065">
					<ele>19</ele>
					<time>0001-01-01T00:00:00Z</time>
				</trkpt>
				<trkpt lat="37.73957" lon="-25.67102">
					<ele>20</ele>
					<time>0001-01-01T00:00:00Z</time>
				</trkpt>
				<trkpt lat="37.73963" lon="-25.67108">
					<ele>24</ele>
					<time>0001-01-01T00:00:00Z</time>
				</trkpt>
				<trkpt lat="37.73959" lon="-25.67114">
					<ele>24</ele>
					<time>0001-01-01T00:00:00Z</time>
				</trkpt>
				<trkpt lat="37.73948" lon="-25.67131">
					<ele>23</ele>
					<time>0001-01-01T00:00:00Z</time>
				</trkpt>
				<trkpt lat="37.73939" lon="-25.67142">
					<ele>23</ele>
					<time>0001-01-01T00:00:00Z</time>
				</trkpt>
				<trkpt lat="37.73926" lon="-25.67159">
					<ele>26</ele>
					<time>0001-01-01T00:00:00Z</time>
				</trkpt>
				<trkpt lat="37.73913" lon="-25.67178">
					<ele>27</ele>
					<time>0001-01-01T00:00:00Z</time>
				</trkpt>
				<trkpt lat="37.73910" lon="-25.67183">
					<ele>28</ele>
					<time>0001-01-01T00:00:00Z</time>
				</trkpt>
				<trkpt lat="37.73908" lon="-25.67190">
					<ele>28</ele>
					<time>0001-01-01T00:00:00Z</time>
				</trkpt>
				<trkpt lat="37.73954" lon="-25.67235">
					<ele>26</ele>
					<time>0001-01-01T00:00:00Z</time>
				</trkpt>
				<trkpt lat="37.73957" lon="-25.67238">
					<ele>26</ele>
					<time>0001-01-01T00:00:00Z</time>
				</trkpt>
				<trkpt lat="37.73949" lon="-25.67283">
					<ele>24</ele>
					<time>0001-01-01T00:00:00Z</time>
				</trkpt>
				<trkpt lat="37.73960" lon="-25.67328">
					<ele>20</ele>
					<time>0001-01-01T00:00:00Z</time>
				</trkpt>
				<trkpt lat="37.74019" lon="-25.67421">
					<ele>17</ele>
					<time>0001-01-01T00:00:00Z</time>
				</trkpt>
				<trkpt lat="37.74066" lon="-25.67486">
					<ele>19</ele>
					<time>0001-01-01T00:00:00Z</time>
				</trkpt>
				<trkpt lat="37.74090" lon="-25.67514">
					<ele>20</ele>
					<time>0001-01-01T00:00:00Z</time>
				</trkpt>
				<trkpt lat="37.74104" lon="-25.67532">
					<ele>22</ele>
					<time>0001-01-01T00:00:00Z</time>
				</trkpt>
				<trkpt lat="37.74126" lon="-25.67560">
					<ele>22</ele>
					<time>0001-01-01T00:00:00Z</time>
				</trkpt>
				<trkpt lat="37.74133" lon="-25.67672">
					<ele>27</ele>
					<time>0001-01-01T00:00:00Z</time>
				</trkpt>
				<trkpt lat="37.74140" lon="-25.67761">
					<ele>33</ele>
					<time>0001-01-01T00:00:00Z</time>
				</trkpt>
				<trkpt lat="37.74140" lon="-25.67809">
					<ele>37</ele>
					<time>0001-01-01T00:00:00Z</time>
				</trkpt>
				<trkpt lat="37.74146" lon="-25.67908">
					<ele>41</ele>
					<time>0001-01-01T00:00:00Z</time>
				</trkpt>
				<trkpt lat="37.74147" lon="-25.67966">
					<ele>44</ele>
					<time>0001-01-01T00:00:00Z</time>
				</trkpt>
				<trkpt lat="37.74156" lon="-25.68104">
					<ele>50</ele>
					<time>0001-01-01T00:00:00Z</time>
				</trkpt>
				<trkpt lat="37.74155" lon="-25.68133">
					<ele>51</ele>
					<time>0001-01-01T00:00:00Z</time>
				</trkpt>
				<trkpt lat="37.74141" lon="-25.68134">
					<ele>50</ele>
					<time>0001-01-01T00:00:00Z</time>
				</trkpt>
				<trkpt lat="37.74057" lon="-25.68102">
					<ele>42</ele>
					<time>0001-01-01T00:00:00Z</time>
				</trkpt>
				<trkpt lat="37.73991" lon="-25.68077">
					<ele>39</ele>
					<time>0001-01-01T00:00:00Z</time>
				</trkpt>
				<trkpt lat="37.73980" lon="-25.68076">
					<ele>37</ele>
					<time>0001-01-01T00:00:00Z</time>
				</trkpt>
				<trkpt lat="37.73962" lon="-25.68070">
					<ele>35</ele>
					<time>0001-01-01T00:00:00Z</time>
				</trkpt>
				<trkpt lat="37.73949" lon="-25.68063">
					<ele>33</ele>
					<time>0001-01-01T00:00:00Z</time>
				</trkpt>
				<trkpt lat="37.73833" lon="-25.68017">
					<ele>28</ele>
					<time>0001-01-01T00:00:00Z</time>
				</trkpt>
				<trkpt lat="37.73803" lon="-25.68006">
					<ele>27</ele>
					<time>0001-01-01T00:00:00Z</time>
				</trkpt>
				<trkpt lat="37.73786" lon="-25.68002">
					<ele>26</ele>
					<time>0001-01-01T00:00:00Z</time>
				</trkpt>
				<trkpt lat="37.73771" lon="-25.68047">
					<ele>27</ele>
					<time>0001-01-01T00:00:00Z</time>
				</trkpt>
				<trkpt lat="37.73730" lon="-25.68204">
					<ele>28</ele>
					<time>0001-01-01T00:00:00Z</time>
				</trkpt>
				<trkpt lat="37.73739" lon="-25.68223">
					<ele>28</ele>
					<time>0001-01-01T00:00:00Z</time>
				</trkpt>
				<trkpt lat="37.73744" lon="-25.68253">
					<ele>27</ele>
					<time>0001-01-01T00:00:00Z</time>
				</trkpt>
				<trkpt lat="37.73760" lon="-25.68294">
					<ele>27</ele>
					<time>0001-01-01T00:00:00Z</time>
				</trkpt>
				<trkpt lat="37.73807" lon="-25.68350">
					<ele>28</ele>
					<time>0001-01-01T00:00:00Z</time>
				</trkpt>
				<trkpt lat="37.73872" lon="-25.68429">
					<ele>32</ele>
					<time>0001-01-01T00:00:00Z</time>
				</trkpt>
				<trkpt lat="37.73916" lon="-25.68483">
					<ele>34</ele>
					<time>0001-01-01T00:00:00Z</time>
				</trkpt>
				<trkpt lat="37.73966" lon="-25.68544">
					<ele>39</ele>
					<time>0001-01-01T00:00:00Z</time>
				</trkpt>
				<trkpt lat="37.73996" lon="-25.68583">
					<ele>42</ele>
					<time>0001-01-01T00:00:00Z</time>
				</trkpt>
				<trkpt lat="37.73977" lon="-25.68619">
					<ele>42</ele>
					<time>0001-01-01T00:00:00Z</time>
				</trkpt>
				<trkpt lat="37.73973" lon="-25.68657">
					<ele>45</ele>
					<time>0001-01-01T00:00:00Z</time>
				</trkpt>
				<trkpt lat="37.73997" lon="-25.68775">
					<ele>50</ele>
					<time>0001-01-01T00:00:00Z</time>
				</trkpt>
				<trkpt lat="37.74019" lon="-25.68814">
					<ele>50</ele>
					<time>0001-01-01T00:00:00Z</time>
				</trkpt>
				<trkpt lat="37.74099" lon="-25.68881">
					<ele>53</ele>
					<time>0001-01-01T00:00:00Z</time>
				</trkpt>
				<trkpt lat="37.74127" lon="-25.68909">
					<ele>55</ele>
					<time>0001-01-01T00:00:00Z</time>
				</trkpt>
				<trkpt lat="37.74166" lon="-25.69005">
					<ele>59</ele>
					<time>0001-01-01T00:00:00Z</time>
				</trkpt>
				<trkpt lat="37.74212" lon="-25.69160">
					<ele>64</ele>
					<time>0001-01-01T00:00:00Z</time>
				</trkpt>
				<trkpt lat="37.74252" lon="-25.69294">
					<ele>67</ele>
					<time>0001-01-01T00:00:00Z</time>
				</trkpt>
				<trkpt lat="37.74284" lon="-25.69402">
					<ele>69</ele>
					<time>0001-01-01T00:00:00Z</time>
				</trkpt>
				<trkpt lat="37.74298" lon="-25.69448">
					<ele>68</ele>
					<time>0001-01-01T00:00:00Z</time>
				</trkpt>
				<trkpt lat="37.74319" lon="-25.69494">
					<ele>68</ele>
					<time>0001-01-01T00:00:00Z</time>
				</trkpt>
				<trkpt lat="37.74376" lon="-25.69521">
					<ele>73</ele>
					<time>0001-01-01T00:00:00Z</time>
				</trkpt>
				<trkpt lat="37.74400" lon="-25.69588">
					<ele>77</ele>
					<time>0001-01-01T00:00:00Z</time>
				</trkpt>
				<trkpt lat="37.74434" lon="-25.69640">
					<ele>80</ele>
					<time>0001-01-01T00:00:00Z</time>
				</trkpt>
				<trkpt lat="37.74456" lon="-25.69676">
					<ele>80</ele>
					<time>0001-01-01T00:00:00Z</time>
				</trkpt>
				<trkpt lat="37.74510" lon="-25.69794">
					<ele>84</ele>
					<time>0001-01-01T00:00:00Z</time>
				</trkpt>
				<trkpt lat="37.74551" lon="-25.69896">
					<ele>87</ele>
					<time>0001-01-01T00:00:00Z</time>
				</trkpt>
				<trkpt lat="37.74603" lon="-25.70061">
					<ele>91</ele>
					<time>0001-01-01T00:00:00Z</time>
				</trkpt>
				<trkpt lat="37.74637" lon="-25.70175">
					<ele>96</ele>
					<time>0001-01-01T00:00:00Z</time>
				</trkpt>
				<trkpt lat="37.74640" lon="-25.70185">
					<ele>97</ele>
					<time>0001-01-01T00:00:00Z</time>
				</trkpt>
				<trkpt lat="37.74677" lon="-25.70295">
					<ele>98</ele>
					<time>0001-01-01T00:00:00Z</time>
				</trkpt>
				<trkpt lat="37.74729" lon="-25.70425">
					<ele>104</ele>
					<time>0001-01-01T00:00:00Z</time>
				</trkpt>
				<trkpt lat="37.74806" lon="-25.70554">
					<ele>104</ele>
					<time>0001-01-01T00:00:00Z</time>
				</trkpt>
				<trkpt lat="37.74906" lon="-25.70694">
					<ele>105</ele>
					<time>0001-01-01T00:00:00Z</time>
				</trkpt>
				<trkpt lat="37.74994" lon="-25.70832">
					<ele>108</ele>
					<time>0001-01-01T00:00:00Z</time>
				</trkpt>
				<trkpt lat="37.75049" lon="-25.70948">
					<ele>112</ele>
					<time>0001-01-01T00:00:00Z</time>
				</trkpt>
				<trkpt lat="37.75093" lon="-25.71065">
					<ele>114</ele>
					<time>0001-01-01T00:00:00Z</time>
				</trkpt>
				<trkpt lat="37.75138" lon="-25.71207">
					<ele>116</ele>
					<time>0001-01-01T00:00:00Z</time>
				</trkpt>
				<trkpt lat="37.75142" lon="-25.71222">
					<ele>117</ele>
					<time>0001-01-01T00:00:00Z</time>
				</trkpt>
				<trkpt lat="37.75148" lon="-25.71243">
					<ele>116</ele>
					<time>0001-01-01T00:00:00Z</time>
				</trkpt>
				<trkpt lat="37.75206" lon="-25.71326">
					<ele>118</ele>
					<time>0001-01-01T00:00:00Z</time>
				</trkpt>
				<trkpt lat="37.75291" lon="-25.71424">
					<ele>120</ele>
					<time>0001-01-01T00:00:00Z</time>
				</trkpt>
				<trkpt lat="37.75338" lon="-25.71487">
					<ele>120</ele>
					<time>0001-01-01T00:00:00Z</time>
				</trkpt>
				<trkpt lat="37.75348" lon="-25.71621">
					<ele>120</ele>
					<time>0001-01-01T00:00:00Z</time>
				</trkpt>
				<trkpt lat="37.75352" lon="-25.71641">
					<ele>118</ele>
					<time>0001-01-01T00:00:00Z</time>
				</trkpt>
				<trkpt lat="37.75416" lon="-25.71752">
					<ele>118</ele>
					<time>0001-01-01T00:00:00Z</time>
				</trkpt>
				<trkpt lat="37.75484" lon="-25.71853">
					<ele>119</ele>
					<time>0001-01-01T00:00:00Z</time>
				</trkpt>
				<trkpt lat="37.75551" lon="-25.71962">
					<ele>122</ele>
					<time>0001-01-01T00:00:00Z</time>
				</trkpt>
				<trkpt lat="37.75625" lon="-25.72083">
					<ele>126</ele>
					<time>0001-01-01T00:00:00Z</time>
				</trkpt>
				<trkpt lat="37.75695" lon="-25.72197">
					<ele>129</ele>
					<time>0001-01-01T00:00:00Z</time>
				</trkpt>
				<trkpt lat="37.75761" lon="-25.72299">
					<ele>132</ele>
					<time>0001-01-01T00:00:00Z</time>
				</trkpt>
				<trkpt lat="37.75821" lon="-25.72383">
					<ele>135</ele>
					<time>0001-01-01T00:00:00Z</time>
				</trkpt>
				<trkpt lat="37.75845" lon="-25.72404">
					<ele>135</ele>
					<time>0001-01-01T00:00:00Z</time>
				</trkpt>
				<trkpt lat="37.75929" lon="-25.72458">
					<ele>142</ele>
					<time>0001-01-01T00:00:00Z</time>
				</trkpt>
				<trkpt lat="37.75938" lon="-25.72476">
					<ele>142</ele>
					<time>0001-01-01T00:00:00Z</time>
				</trkpt>
				<trkpt lat="37.75935" lon="-25.72508">
					<ele>144</ele>
					<time>0001-01-01T00:00:00Z</time>
				</trkpt>
				<trkpt lat="37.75935" lon="-25.72510">
					<ele>145</ele>
					<time>0001-01-01T00:00:00Z</time>
				</trkpt>
				<trkpt lat="37.75938" lon="-25.72513">
					<ele>145</ele>
					<time>0001-01-01T00:00:00Z</time>
				</trkpt>
				<trkpt lat="37.75939" lon="-25.72520">
					<ele>146</ele>
					<time>0001-01-01T00:00:00Z</time>
				</trkpt>
				<trkpt lat="37.75933" lon="-25.72585">
					<ele>151</ele>
					<time>0001-01-01T00:00:00Z</time>
				</trkpt>
				<trkpt lat="37.75911" lon="-25.72684">
					<ele>155</ele>
					<time>0001-01-01T00:00:00Z</time>
				</trkpt>
				<trkpt lat="37.75900" lon="-25.72715">
					<ele>157</ele>
					<time>0001-01-01T00:00:00Z</time>
				</trkpt>
				<trkpt lat="37.75920" lon="-25.72756">
					<ele>159</ele>
					<time>0001-01-01T00:00:00Z</time>
				</trkpt>
				<trkpt lat="37.75939" lon="-25.72753">
					<ele>160</ele>
					<time>0001-01-01T00:00:00Z</time>
				</trkpt>
				<trkpt lat="37.76005" lon="-25.72719">
					<ele>161</ele>
					<time>0001-01-01T00:00:00Z</time>
				</trkpt>
				<trkpt lat="37.76071" lon="-25.72741">
					<ele>165</ele>
					<time>0001-01-01T00:00:00Z</time>
				</trkpt>
				<trkpt lat="37.76128" lon="-25.72807">
					<ele>169</ele>
					<time>0001-01-01T00:00:00Z</time>
				</trkpt>
				<trkpt lat="37.76189" lon="-25.72844">
					<ele>175</ele>
					<time>0001-01-01T00:00:00Z</time>
				</trkpt>
				<trkpt lat="37.76286" lon="-25.72877">
					<ele>181</ele>
					<time>0001-01-01T00:00:00Z</time>
				</trkpt>
				<trkpt lat="37.76356" lon="-25.72934">
					<ele>185</ele>
					<time>0001-01-01T00:00:00Z</time>
				</trkpt>
				<trkpt lat="37.76383" lon="-25.72962">
					<ele>185</ele>
					<time>0001-01-01T00:00:00Z</time>
				</trkpt>
				<trkpt lat="37.76471" lon="-25.73047">
					<ele>189</ele>
					<time>0001-01-01T00:00:00Z</time>
				</trkpt>
				<trkpt lat="37.76533" lon="-25.73154">
					<ele>190</ele>
					<time>0001-01-01T00:00:00Z</time>
				</trkpt>
				<trkpt lat="37.76602" lon="-25.73283">
					<ele>190</ele>
					<time>0001-01-01T00:00:00Z</time>
				</trkpt>
				<trkpt lat="37.76652" lon="-25.73379">
					<ele>191</ele>
					<time>0001-01-01T00:00:00Z</time>
				</trkpt>
				<trkpt lat="37.76695" lon="-25.73456">
					<ele>197</ele>
					<time>0001-01-01T00:00:00Z</time>
				</trkpt>
				<trkpt lat="37.76758" lon="-25.73554">
					<ele>203</ele>
					<time>0001-01-01T00:00:00Z</time>
				</trkpt>
				<trkpt lat="37.76816" lon="-25.73643">
					<ele>210</ele>
					<time>0001-01-01T00:00:00Z</time>
				</trkpt>
				<trkpt lat="37.76871" lon="-25.73726">
					<ele>214</ele>
					<time>0001-01-01T00:00:00Z</time>
				</trkpt>
				<trkpt lat="37.76925" lon="-25.73820">
					<ele>218</ele>
					<time>0001-01-01T00:00:00Z</time>
				</trkpt>
				<trkpt lat="37.76963" lon="-25.73927">
					<ele>225</ele>
					<time>0001-01-01T00:00:00Z</time>
				</trkpt>
				<trkpt lat="37.76989" lon="-25.74013">
					<ele>224</ele>
					<time>0001-01-01T00:00:00Z</time>
				</trkpt>
				<trkpt lat="37.76990" lon="-25.74023">
					<ele>226</ele>
					<time>0001-01-01T00:00:00Z</time>
				</trkpt>
				<trkpt lat="37.76992" lon="-25.74027">
					<ele>226</ele>
					<time>0001-01-01T00:00:00Z</time>
				</trkpt>
				<trkpt lat="37.76993" lon="-25.74028">
					<ele>231</ele>
					<time>0001-01-01T00:00:00Z</time>
				</trkpt>
				<trkpt lat="37.76993" lon="-25.74029">
					<ele>231</ele>
					<time>0001-01-01T00:00:00Z</time>
				</trkpt>
				<trkpt lat="37.76994" lon="-25.74031">
					<ele>230</ele>
					<time>0001-01-01T00:00:00Z</time>
				</trkpt>
				<trkpt lat="37.76995" lon="-25.74030">
					<ele>230</ele>
					<time>0001-01-01T00:00:00Z</time>
				</trkpt>
				<trkpt lat="37.77007" lon="-25.74042">
					<ele>229</ele>
					<time>0001-01-01T00:00:00Z</time>
				</trkpt>
				<trkpt lat="37.77056" lon="-25.74084">
					<ele>231</ele>
					<time>0001-01-01T00:00:00Z</time>
				</trkpt>
				<trkpt lat="37.77139" lon="-25.74096">
					<ele>234</ele>
					<time>0001-01-01T00:00:00Z</time>
				</trkpt>
				<trkpt lat="37.77226" lon="-25.74111">
					<ele>239</ele>
					<time>0001-01-01T00:00:00Z</time>
				</trkpt>
				<trkpt lat="37.77275" lon="-25.74163">
					<ele>244</ele>
					<time>0001-01-01T00:00:00Z</time>
				</trkpt>
				<trkpt lat="37.77321" lon="-25.74276">
					<ele>247</ele>
					<time>0001-01-01T00:00:00Z</time>
				</trkpt>
				<trkpt lat="37.77368" lon="-25.74401">
					<ele>248</ele>
					<time>0001-01-01T00:00:00Z</time>
				</trkpt>
				<trkpt lat="37.77415" lon="-25.74522">
					<ele>252</ele>
					<time>0001-01-01T00:00:00Z</time>
				</trkpt>
				<trkpt lat="37.77464" lon="-25.74649">
					<ele>255</ele>
					<time>0001-01-01T00:00:00Z</time>
				</trkpt>
				<trkpt lat="37.77532" lon="-25.74800">
					<ele>257</ele>
					<time>0001-01-01T00:00:00Z</time>
				</trkpt>
				<trkpt lat="37.77591" lon="-25.74929">
					<ele>260</ele>
					<time>0001-01-01T00:00:00Z</time>
				</trkpt>
				<trkpt lat="37.77660" lon="-25.75081">
					<ele>264</ele>
					<time>0001-01-01T00:00:00Z</time>
				</trkpt>
				<trkpt lat="37.77739" lon="-25.75227">
					<ele>267</ele>
					<time>0001-01-01T00:00:00Z</time>
				</trkpt>
				<trkpt lat="37.77841" lon="-25.75376">
					<ele>270</ele>
					<time>0001-01-01T00:00:00Z</time>
				</trkpt>
				<trkpt lat="37.77933" lon="-25.75512">
					<ele>271</ele>
					<time>0001-01-01T00:00:00Z</time>
				</trkpt>
				<trkpt lat="37.78041" lon="-25.75668">
					<ele>275</ele>
					<time>0001-01-01T00:00:00Z</time>
				</trkpt>
				<trkpt lat="37.78121" lon="-25.75786">
					<ele>279</ele>
					<time>0001-01-01T00:00:00Z</time>
				</trkpt>
				<trkpt lat="37.78178" lon="-25.75882">
					<ele>282</ele>
					<time>0001-01-01T00:00:00Z</time>
				</trkpt>
				<trkpt lat="37.78243" lon="-25.76002">
					<ele>286</ele>
					<time>0001-01-01T00:00:00Z</time>
				</trkpt>
				<trkpt lat="37.78314" lon="-25.76135">
					<ele>290</ele>
					<time>0001-01-01T00:00:00Z</time>
				</trkpt>
				<trkpt lat="37.78391" lon="-25.76280">
					<ele>290</ele>
					<time>0001-01-01T00:00:00Z</time>
				</trkpt>
				<trkpt lat="37.78455" lon="-25.76400">
					<ele>290</ele>
					<time>0001-01-01T00:00:00Z</time>
				</trkpt>
				<trkpt lat="37.78543" lon="-25.76562">
					<ele>289</ele>
					<time>0001-01-01T00:00:00Z</time>
				</trkpt>
				<trkpt lat="37.78666" lon="-25.76795">
					<ele>288</ele>
					<time>0001-01-01T00:00:00Z</time>
				</trkpt>
				<trkpt lat="37.78713" lon="-25.76948">
					<ele>286</ele>
					<time>0001-01-01T00:00:00Z</time>
				</trkpt>
				<trkpt lat="37.78729" lon="-25.76992">
					<ele>286</ele>
					<time>0001-01-01T00:00:00Z</time>
				</trkpt>
				<trkpt lat="37.78744" lon="-25.77016">
					<ele>285</ele>
					<time>0001-01-01T00:00:00Z</time>
				</trkpt>
				<trkpt lat="37.78855" lon="-25.77105">
					<ele>282</ele>
					<time>0001-01-01T00:00:00Z</time>
				</trkpt>
				<trkpt lat="37.78962" lon="-25.77132">
					<ele>278</ele>
					<time>0001-01-01T00:00:00Z</time>
				</trkpt>
				<trkpt lat="37.79041" lon="-25.77141">
					<ele>276</ele>
					<time>0001-01-01T00:00:00Z</time>
				</trkpt>
				<trkpt lat="37.79152" lon="-25.77187">
					<ele>273</ele>
					<time>0001-01-01T00:00:00Z</time>
				</trkpt>
				<trkpt lat="37.79192" lon="-25.77256">
					<ele>268</ele>
					<time>0001-01-01T00:00:00Z</time>
				</trkpt>
				<trkpt lat="37.79214" lon="-25.77340">
					<ele>264</ele>
					<time>0001-01-01T00:00:00Z</time>
				</trkpt>
				<trkpt lat="37.79252" lon="-25.77373">
					<ele>261</ele>
					<time>0001-01-01T00:00:00Z</time>
				</trkpt>
				<trkpt lat="37.79332" lon="-25.77412">
					<ele>255</ele>
					<time>0001-01-01T00:00:00Z</time>
				</trkpt>
				<trkpt lat="37.79349" lon="-25.77422">
					<ele>253</ele>
					<time>0001-01-01T00:00:00Z</time>
				</trkpt>
				<trkpt lat="37.79348" lon="-25.77435">
					<ele>251</ele>
					<time>0001-01-01T00:00:00Z</time>
				</trkpt>
				<trkpt lat="37.79348" lon="-25.77440">
					<ele>249</ele>
					<time>0001-01-01T00:00:00Z</time>
				</trkpt>
				<trkpt lat="37.79349" lon="-25.77441">
					<ele>248</ele>
					<time>0001-01-01T00:00:00Z</time>
				</trkpt>
				<trkpt lat="37.79351" lon="-25.77431">
					<ele>249</ele>
					<time>0001-01-01T00:00:00Z</time>
				</trkpt>
				<trkpt lat="37.79366" lon="-25.77428">
					<ele>249</ele>
					<time>0001-01-01T00:00:00Z</time>
				</trkpt>
				<trkpt lat="37.79432" lon="-25.77479">
					<ele>246</ele>
					<time>0001-01-01T00:00:00Z</time>
				</trkpt>
				<trkpt lat="37.79451" lon="-25.77497">
					<ele>246</ele>
					<time>0001-01-01T00:00:00Z</time>
				</trkpt>
				<trkpt lat="37.79463" lon="-25.77511">
					<ele>246</ele>
					<time>0001-01-01T00:00:00Z</time>
				</trkpt>
				<trkpt lat="37.79507" lon="-25.77618">
					<ele>242</ele>
					<time>0001-01-01T00:00:00Z</time>
				</trkpt>
				<trkpt lat="37.79528" lon="-25.77656">
					<ele>240</ele>
					<time>0001-01-01T00:00:00Z</time>
				</trkpt>
				<trkpt lat="37.79660" lon="-25.77781">
					<ele>233</ele>
					<time>0001-01-01T00:00:00Z</time>
				</trkpt>
				<trkpt lat="37.79747" lon="-25.77839">
					<ele>230</ele>
					<time>0001-01-01T00:00:00Z</time>
				</trkpt>
				<trkpt lat="37.79833" lon="-25.77934">
					<ele>222</ele>
					<time>0001-01-01T00:00:00Z</time>
				</trkpt>
				<trkpt lat="37.79851" lon="-25.77949">
					<ele>221</ele>
					<time>0001-01-01T00:00:00Z</time>
				</trkpt>
				<trkpt lat="37.79939" lon="-25.77989">
					<ele>217</ele>
					<time>0001-01-01T00:00:00Z</time>
				</trkpt>
				<trkpt lat="37.79994" lon="-25.78034">
					<ele>215</ele>
					<time>0001-01-01T00:00:00Z</time>
				</trkpt>
				<trkpt lat="37.80013" lon="-25.78074">
					<ele>212</ele>
					<time>0001-01-01T00:00:00Z</time>
				</trkpt>
				<trkpt lat="37.80021" lon="-25.78096">
					<ele>211</ele>
					<time>0001-01-01T00:00:00Z</time>
				</trkpt>
				<trkpt lat="37.80110" lon="-25.78217">
					<ele>203</ele>
					<time>0001-01-01T00:00:00Z</time>
				</trkpt>
				<trkpt lat="37.80210" lon="-25.78279">
					<ele>195</ele>
					<time>0001-01-01T00:00:00Z</time>
				</trkpt>
				<trkpt lat="37.80265" lon="-25.78291">
					<ele>191</ele>
					<time>0001-01-01T00:00:00Z</time>
				</trkpt>
				<trkpt lat="37.80313" lon="-25.78341">
					<ele>186</ele>
					<time>0001-01-01T00:00:00Z</time>
				</trkpt>
				<trkpt lat="37.80414" lon="-25.78513">
					<ele>176</ele>
					<time>0001-01-01T00:00:00Z</time>
				</trkpt>
				<trkpt lat="37.80422" lon="-25.78558">
					<ele>173</ele>
					<time>0001-01-01T00:00:00Z</time>
				</trkpt>
				<trkpt lat="37.80419" lon="-25.78629">
					<ele>170</ele>
					<time>0001-01-01T00:00:00Z</time>
				</trkpt>
				<trkpt lat="37.80442" lon="-25.78681">
					<ele>165</ele>
					<time>0001-01-01T00:00:00Z</time>
				</trkpt>
				<trkpt lat="37.80495" lon="-25.78807">
					<ele>158</ele>
					<time>0001-01-01T00:00:00Z</time>
				</trkpt>
				<trkpt lat="37.80501" lon="-25.78818">
					<ele>158</ele>
					<time>0001-01-01T00:00:00Z</time>
				</trkpt>
				<trkpt lat="37.80518" lon="-25.78833">
					<ele>157</ele>
					<time>0001-01-01T00:00:00Z</time>
				</trkpt>
				<trkpt lat="37.80541" lon="-25.78872">
					<ele>157</ele>
					<time>0001-01-01T00:00:00Z</time>
				</trkpt>
				<trkpt lat="37.80564" lon="-25.78932">
					<ele>157</ele>
					<time>0001-01-01T00:00:00Z</time>
				</trkpt>
				<trkpt lat="37.80560" lon="-25.78986">
					<ele>157</ele>
					<time>0001-01-01T00:00:00Z</time>
				</trkpt>
				<trkpt lat="37.80507" lon="-25.79063">
					<ele>156</ele>
					<time>0001-01-01T00:00:00Z</time>
				</trkpt>
				<trkpt lat="37.80501" lon="-25.79124">
					<ele>152</ele>
					<time>0001-01-01T00:00:00Z</time>
				</trkpt>
				<trkpt lat="37.80508" lon="-25.79188">
					<ele>149</ele>
					<time>0001-01-01T00:00:00Z</time>
				</trkpt>
				<trkpt lat="37.80493" lon="-25.79274">
					<ele>145</ele>
					<time>0001-01-01T00:00:00Z</time>
				</trkpt>
				<trkpt lat="37.80502" lon="-25.79324">
					<ele>142</ele>
					<time>0001-01-01T00:00:00Z</time>
				</trkpt>
				<trkpt lat="37.80509" lon="-25.79350">
					<ele>141</ele>
					<time>0001-01-01T00:00:00Z</time>
				</trkpt>
				<trkpt lat="37.80507" lon="-25.79475">
					<ele>137</ele>
					<time>0001-01-01T00:00:00Z</time>
				</trkpt>
				<trkpt lat="37.80505" lon="-25.79505">
					<ele>135</ele>
					<time>0001-01-01T00:00:00Z</time>
				</trkpt>
				<trkpt lat="37.80513" lon="-25.79560">
					<ele>132</ele>
					<time>0001-01-01T00:00:00Z</time>
				</trkpt>
				<trkpt lat="37.80531" lon="-25.79634">
					<ele>130</ele>
					<time>0001-01-01T00:00:00Z</time>
				</trkpt>
				<trkpt lat="37.80572" lon="-25.79680">
					<ele>129</ele>
					<time>0001-01-01T00:00:00Z</time>
				</trkpt>
				<trkpt lat="37.80685" lon="-25.79765">
					<ele>130</ele>
					<time>0001-01-01T00:00:00Z</time>
				</trkpt>
				<trkpt lat="37.80752" lon="-25.79844">
					<ele>131</ele>
					<time>0001-01-01T00:00:00Z</time>
				</trkpt>
				<trkpt lat="37.80756" lon="-25.79850">
					<ele>131</ele>
					<time>0001-01-01T00:00:00Z</time>
				</trkpt>
				<trkpt lat="37.80751" lon="-25.79862">
					<ele>131</ele>
					<time>0001-01-01T00:00:00Z</time>
				</trkpt>
				<trkpt lat="37.80749" lon="-25.79864">
					<ele>129</ele>
					<time>0001-01-01T00:00:00Z</time>
				</trkpt>
				<trkpt lat="37.80749" lon="-25.79864">
					<ele>128</ele>
					<time>0001-01-01T00:00:00Z</time>
				</trkpt>
				<trkpt lat="37.80741" lon="-25.79862">
					<ele>129</ele>
					<time>0001-01-01T00:00:00Z</time>
				</trkpt>
				<trkpt lat="37.80740" lon="-25.79862">
					<ele>130</ele>
					<time>0001-01-01T00:00:00Z</time>
				</trkpt>
				<trkpt lat="37.80743" lon="-25.79860">
					<ele>130</ele>
					<time>0001-01-01T00:00:00Z</time>
				</trkpt>
				<trkpt lat="37.80754" lon="-25.79879">
					<ele>129</ele>
					<time>0001-01-01T00:00:00Z</time>
				</trkpt>
				<trkpt lat="37.80748" lon="-25.79873">
					<ele>126</ele>
					<time>0001-01-01T00:00:00Z</time>
				</trkpt>
				<trkpt lat="37.80745" lon="-25.79868">
					<ele>125</ele>
					<time>0001-01-01T00:00:00Z</time>
				</trkpt>
				<trkpt lat="37.80745" lon="-25.79864">
					<ele>124</ele>
					<time>0001-01-01T00:00:00Z</time>
				</trkpt>
				<trkpt lat="37.80747" lon="-25.79866">
					<ele>130</ele>
					<time>0001-01-01T00:00:00Z</time>
				</trkpt>
				<trkpt lat="37.80745" lon="-25.79863">
					<ele>132</ele>
					<time>0001-01-01T00:00:00Z</time>
				</trkpt>
				<trkpt lat="37.80743" lon="-25.79860">
					<ele>132</ele>
					<time>0001-01-01T00:00:00Z</time>
				</trkpt>
				<trkpt lat="37.80756" lon="-25.79851">
					<ele>130</ele>
					<time>0001-01-01T00:00:00Z</time>
				</trkpt>
				<trkpt lat="37.80759" lon="-25.79854">
					<ele>130</ele>
					<time>0001-01-01T00:00:00Z</time>
				</trkpt>
				<trkpt lat="37.80824" lon="-25.79930">
					<ele>131</ele>
					<time>0001-01-01T00:00:00Z</time>
				</trkpt>
				<trkpt lat="37.80883" lon="-25.80033">
					<ele>130</ele>
					<time>0001-01-01T00:00:00Z</time>
				</trkpt>
				<trkpt lat="37.80966" lon="-25.80180">
					<ele>133</ele>
					<time>0001-01-01T00:00:00Z</time>
				</trkpt>
				<trkpt lat="37.81043" lon="-25.80302">
					<ele>134</ele>
					<time>0001-01-01T00:00:00Z</time>
				</trkpt>
				<trkpt lat="37.81056" lon="-25.80324">
					<ele>135</ele>
					<time>0001-01-01T00:00:00Z</time>
				</trkpt>
				<trkpt lat="37.81067" lon="-25.80401">
					<ele>134</ele>
					<time>0001-01-01T00:00:00Z</time>
				</trkpt>
				<trkpt lat="37.81084" lon="-25.80566">
					<ele>135</ele>
					<time>0001-01-01T00:00:00Z</time>
				</trkpt>
				<trkpt lat="37.81085" lon="-25.80574">
					<ele>135</ele>
					<time>0001-01-01T00:00:00Z</time>
				</trkpt>
				<trkpt lat="37.81121" lon="-25.80602">
					<ele>134</ele>
					<time>0001-01-01T00:00:00Z</time>
				</trkpt>
				<trkpt lat="37.81199" lon="-25.80559">
					<ele>137</ele>
					<time>0001-01-01T00:00:00Z</time>
				</trkpt>
				<trkpt lat="37.81205" lon="-25.80556">
					<ele>137</ele>
					<time>0001-01-01T00:00:00Z</time>
				</trkpt>
				<trkpt lat="37.81240" lon="-25.80584">
					<ele>138</ele>
					<time>0001-01-01T00:00:00Z</time>
				</trkpt>
				<trkpt lat="37.81223" lon="-25.80630">
					<ele>137</ele>
					<time>0001-01-01T00:00:00Z</time>
				</trkpt>
				<trkpt lat="37.81188" lon="-25.80672">
					<ele>136</ele>
					<time>0001-01-01T00:00:00Z</time>
				</trkpt>
				<trkpt lat="37.81186" lon="-25.80744">
					<ele>136</ele>
					<time>0001-01-01T00:00:00Z</time>
				</trkpt>
				<trkpt lat="37.81248" lon="-25.80876">
					<ele>134</ele>
					<time>0001-01-01T00:00:00Z</time>
				</trkpt>
				<trkpt lat="37.81291" lon="-25.80922">
					<ele>132</ele>
					<time>0001-01-01T00:00:00Z</time>
				</trkpt>
				<trkpt lat="37.81344" lon="-25.80949">
					<ele>130</ele>
					<time>0001-01-01T00:00:00Z</time>
				</trkpt>
				<trkpt lat="37.81385" lon="-25.81008">
					<ele>128</ele>
					<time>0001-01-01T00:00:00Z</time>
				</trkpt>
				<trkpt lat="37.81433" lon="-25.81172">
					<ele>122</ele>
					<time>0001-01-01T00:00:00Z</time>
				</trkpt>
				<trkpt lat="37.81504" lon="-25.81317">
					<ele>120</ele>
					<time>0001-01-01T00:00:00Z</time>
				</trkpt>
				<trkpt lat="37.81544" lon="-25.81397">
					<ele>121</ele>
					<time>0001-01-01T00:00:00Z</time>
				</trkpt>
				<trkpt lat="37.81629" lon="-25.81499">
					<ele>122</ele>
					<time>0001-01-01T00:00:00Z</time>
				</trkpt>
				<trkpt lat="37.81759" lon="-25.81596">
					<ele>122</ele>
					<time>0001-01-01T00:00:00Z</time>
				</trkpt>
				<trkpt lat="37.81795" lon="-25.81596">
					<ele>123</ele>
					<time>0001-01-01T00:00:00Z</time>
				</trkpt>
				<trkpt lat="37.81816" lon="-25.81587">
					<ele>122</ele>
					<time>0001-01-01T00:00:00Z</time>
				</trkpt>
				<trkpt lat="37.81889" lon="-25.81521">
					<ele>123</ele>
					<time>0001-01-01T00:00:00Z</time>
				</trkpt>
				<trkpt lat="37.81922" lon="-25.81488">
					<ele>123</ele>
					<time>0001-01-01T00:00:00Z</time>
				</trkpt>
				<trkpt lat="37.81966" lon="-25.81498">
					<ele>123</ele>
					<time>0001-01-01T00:00:00Z</time>
				</trkpt>
				<trkpt lat="37.81963" lon="-25.81541">
					<ele>123</ele>
					<time>0001-01-01T00:00:00Z</time>
				</trkpt>
				<trkpt lat="37.81942" lon="-25.81587">
					<ele>123</ele>
					<time>0001-01-01T00:00:00Z</time>
				</trkpt>
				<trkpt lat="37.81933" lon="-25.81660">
					<ele>123</ele>
					<time>0001-01-01T00:00:00Z</time>
				</trkpt>
				<trkpt lat="37.81956" lon="-25.81719">
					<ele>122</ele>
					<time>0001-01-01T00:00:00Z</time>
				</trkpt>
				<trkpt lat="37.82032" lon="-25.81809">
					<ele>121</ele>
					<time>0001-01-01T00:00:00Z</time>
				</trkpt>
				<trkpt lat="37.82165" lon="-25.81926">
					<ele>124</ele>
					<time>0001-01-01T00:00:00Z</time>
				</trkpt>
				<trkpt lat="37.82227" lon="-25.81981">
					<ele>125</ele>
					<time>0001-01-01T00:00:00Z</time>
				</trkpt>
				<trkpt lat="37.82253" lon="-25.81989">
					<ele>125</ele>
					<time>0001-01-01T00:00:00Z</time>
				</trkpt>
				<trkpt lat="37.82343" lon="-25.81964">
					<ele>127</ele>
					<time>0001-01-01T00:00:00Z</time>
				</trkpt>
				<trkpt lat="37.82366" lon="-25.81995">
					<ele>127</ele>
					<time>0001-01-01T00:00:00Z</time>
				</trkpt>
				<trkpt lat="37.82361" lon="-25.82035">
					<ele>126</ele>
					<time>0001-01-01T00:00:00Z</time>
				</trkpt>
				<trkpt lat="37.82320" lon="-25.82075">
					<ele>127</ele>
					<time>0001-01-01T00:00:00Z</time>
				</trkpt>
				<trkpt lat="37.82320" lon="-25.82135">
					<ele>127</ele>
					<time>0001-01-01T00:00:00Z</time>
				</trkpt>
				<trkpt lat="37.82334" lon="-25.82155">
					<ele>127</ele>
					<time>0001-01-01T00:00:00Z</time>
				</trkpt>
				<trkpt lat="37.82366" lon="-25.82191">
					<ele>126</ele>
					<time>0001-01-01T00:00:00Z</time>
				</trkpt>
				<trkpt lat="37.82379" lon="-25.82201">
					<ele>127</ele>
					<time>0001-01-01T00:00:00Z</time>
				</trkpt>
				<trkpt lat="37.82421" lon="-25.82222">
					<ele>127</ele>
					<time>0001-01-01T00:00:00Z</time>
				</trkpt>
				<trkpt lat="37.82452" lon="-25.82207">
					<ele>127</ele>
					<time>0001-01-01T00:00:00Z</time>
				</trkpt>
				<trkpt lat="37.82499" lon="-25.82209">
					<ele>128</ele>
					<time>0001-01-01T00:00:00Z</time>
				</trkpt>
				<trkpt lat="37.82493" lon="-25.82249">
					<ele>127</ele>
					<time>0001-01-01T00:00:00Z</time>
				</trkpt>
				<trkpt lat="37.82489" lon="-25.82256">
					<ele>127</ele>
					<time>0001-01-01T00:00:00Z</time>
				</trkpt>
				<trkpt lat="37.82486" lon="-25.82313">
					<ele>127</ele>
					<time>0001-01-01T00:00:00Z</time>
				</trkpt>
				<trkpt lat="37.82490" lon="-25.82319">
					<ele>127</ele>
					<time>0001-01-01T00:00:00Z</time>
				</trkpt>
				<trkpt lat="37.82518" lon="-25.82347">
					<ele>128</ele>
					<time>0001-01-01T00:00:00Z</time>
				</trkpt>
				<trkpt lat="37.82556" lon="-25.82334">
					<ele>130</ele>
					<time>0001-01-01T00:00:00Z</time>
				</trkpt>
				<trkpt lat="37.82561" lon="-25.82322">
					<ele>131</ele>
					<time>0001-01-01T00:00:00Z</time>
				</trkpt>
				<trkpt lat="37.82587" lon="-25.82234">
					<ele>132</ele>
					<time>0001-01-01T00:00:00Z</time>
				</trkpt>
				<trkpt lat="37.82616" lon="-25.82222">
					<ele>132</ele>
					<time>0001-01-01T00:00:00Z</time>
				</trkpt>
				<trkpt lat="37.82630" lon="-25.82266">
					<ele>131</ele>
					<time>0001-01-01T00:00:00Z</time>
				</trkpt>
				<trkpt lat="37.82630" lon="-25.82364">
					<ele>127</ele>
					<time>0001-01-01T00:00:00Z</time>
				</trkpt>
				<trkpt lat="37.82648" lon="-25.82402">
					<ele>127</ele>
					<time>0001-01-01T00:00:00Z</time>
				</trkpt>
				<trkpt lat="37.82715" lon="-25.82464">
					<ele>129</ele>
					<time>0001-01-01T00:00:00Z</time>
				</trkpt>
				<trkpt lat="37.82720" lon="-25.82504">
					<ele>129</ele>
					<time>0001-01-01T00:00:00Z</time>
				</trkpt>
				<trkpt lat="37.82719" lon="-25.82521">
					<ele>129</ele>
					<time>0001-01-01T00:00:00Z</time>
				</trkpt>
				<trkpt lat="37.82746" lon="-25.82560">
					<ele>130</ele>
					<time>0001-01-01T00:00:00Z</time>
				</trkpt>
				<trkpt lat="37.82753" lon="-25.82560">
					<ele>130</ele>
					<time>0001-01-01T00:00:00Z</time>
				</trkpt>
				<trkpt lat="37.82854" lon="-25.82565">
					<ele>133</ele>
					<time>0001-01-01T00:00:00Z</time>
				</trkpt>
				<trkpt lat="37.82871" lon="-25.82575">
					<ele>133</ele>
					<time>0001-01-01T00:00:00Z</time>
				</trkpt>
				<trkpt lat="37.82893" lon="-25.82619">
					<ele>134</ele>
					<time>0001-01-01T00:00:00Z</time>
				</trkpt>
				<trkpt lat="37.82897" lon="-25.82690">
					<ele>135</ele>
					<time>0001-01-01T00:00:00Z</time>
				</trkpt>
				<trkpt lat="37.82878" lon="-25.82720">
					<ele>134</ele>
					<time>0001-01-01T00:00:00Z</time>
				</trkpt>
				<trkpt lat="37.82858" lon="-25.82740">
					<ele>133</ele>
					<time>0001-01-01T00:00:00Z</time>
				</trkpt>
				<trkpt lat="37.82845" lon="-25.82779">
					<ele>132</ele>
					<time>0001-01-01T00:00:00Z</time>
				</trkpt>
				<trkpt lat="37.82834" lon="-25.82867">
					<ele>130</ele>
					<time>0001-01-01T00:00:00Z</time>
				</trkpt>
				<trkpt lat="37.82866" lon="-25.82918">
					<ele>132</ele>
					<time>0001-01-01T00:00:00Z</time>
				</trkpt>
				<trkpt lat="37.82887" lon="-25.82920">
					<ele>132</ele>
					<time>0001-01-01T00:00:00Z</time>
				</trkpt>
				<trkpt lat="37.82970" lon="-25.82923">
					<ele>132</ele>
					<time>0001-01-01T00:00:00Z</time>
				</trkpt>
				<trkpt lat="37.83011" lon="-25.82956">
					<ele>133</ele>
					<time>0001-01-01T00:00:00Z</time>
				</trkpt>
				<trkpt lat="37.83096" lon="-25.83104">
					<ele>132</ele>
					<time>0001-01-01T00:00:00Z</time>
				</trkpt>
				<trkpt lat="37.83130" lon="-25.83167">
					<ele>133</ele>
					<time>0001-01-01T00:00:00Z</time>
				</trkpt>
				<trkpt lat="37.83146" lon="-25.83186">
					<ele>133</ele>
					<time>0001-01-01T00:00:00Z</time>
				</trkpt>
				<trkpt lat="37.83202" lon="-25.83187">
					<ele>134</ele>
					<time>0001-01-01T00:00:00Z</time>
				</trkpt>
				<trkpt lat="37.83254" lon="-25.83161">
					<ele>134</ele>
					<time>0001-01-01T00:00:00Z</time>
				</trkpt>
				<trkpt lat="37.83298" lon="-25.83183">
					<ele>133</ele>
					<time>0001-01-01T00:00:00Z</time>
				</trkpt>
				<trkpt lat="37.83323" lon="-25.83216">
					<ele>132</ele>
					<time>0001-01-01T00:00:00Z</time>
				</trkpt>
				<trkpt lat="37.83365" lon="-25.83220">
					<ele>131</ele>
					<time>0001-01-01T00:00:00Z</time>
				</trkpt>
				<trkpt lat="37.83378" lon="-25.83212">
					<ele>131</ele>
					<time>0001-01-01T00:00:00Z</time>
				</trkpt>
				<trkpt lat="37.83419" lon="-25.83215">
					<ele>131</ele>
					<time>0001-01-01T00:00:00Z</time>
				</trkpt>
				<trkpt lat="37.83479" lon="-25.83261">
					<ele>130</ele>
					<time>0001-01-01T00:00:00Z</time>
				</trkpt>
				<trkpt lat="37.83493" lon="-25.83310">
					<ele>131</ele>
					<time>0001-01-01T00:00:00Z</time>
				</trkpt>
				<trkpt lat="37.83525" lon="-25.83342">
					<ele>132</ele>
					<time>0001-01-01T00:00:00Z</time>
				</trkpt>
				<trkpt lat="37.83546" lon="-25.83347">
					<ele>132</ele>
					<time>0001-01-01T00:00:00Z</time>
				</trkpt>
				<trkpt lat="37.83568" lon="-25.83345">
					<ele>132</ele>
					<time>0001-01-01T00:00:00Z</time>
				</trkpt>
				<trkpt lat="37.83665" lon="-25.83274">
					<ele>133</ele>
					<time>0001-01-01T00:00:00Z</time>
				</trkpt>
				<trkpt lat="37.83685" lon="-25.83254">
					<ele>134</ele>
					<time>0001-01-01T00:00:00Z</time>
				</trkpt>
				<trkpt lat="37.83725" lon="-25.83253">
					<ele>135</ele>
					<time>0001-01-01T00:00:00Z</time>
				</trkpt>
				<trkpt lat="37.83753" lon="-25.83266">
					<ele>136</ele>
					<time>0001-01-01T00:00:00Z</time>
				</trkpt>
				<trkpt lat="37.83796" lon="-25.83240">
					<ele>137</ele>
					<time>0001-01-01T00:00:00Z</time>
				</trkpt>
				<trkpt lat="37.83798" lon="-25.83234">
					<ele>138</ele>
					<time>0001-01-01T00:00:00Z</time>
				</trkpt>
				<trkpt lat="37.83810" lon="-25.83203">
					<ele>139</ele>
					<time>0001-01-01T00:00:00Z</time>
				</trkpt>
				<trkpt lat="37.83868" lon="-25.83147">
					<ele>141</ele>
					<time>0001-01-01T00:00:00Z</time>
				</trkpt>
				<trkpt lat="37.83908" lon="-25.83161">
					<ele>142</ele>
					<time>0001-01-01T00:00:00Z</time>
				</trkpt>
				<trkpt lat="37.83902" lon="-25.83203">
					<ele>141</ele>
					<time>0001-01-01T00:00:00Z</time>
				</trkpt>
				<trkpt lat="37.83899" lon="-25.83208">
					<ele>141</ele>
					<time>0001-01-01T00:00:00Z</time>
				</trkpt>
				<trkpt lat="37.83884" lon="-25.83230">
					<ele>141</ele>
					<time>0001-01-01T00:00:00Z</time>
				</trkpt>
				<trkpt lat="37.83873" lon="-25.83255">
					<ele>141</ele>
					<time>0001-01-01T00:00:00Z</time>
				</trkpt>
				<trkpt lat="37.83884" lon="-25.83301">
					<ele>142</ele>
					<time>0001-01-01T00:00:00Z</time>
				</trkpt>
				<trkpt lat="37.83941" lon="-25.83399">
					<ele>144</ele>
					<time>0001-01-01T00:00:00Z</time>
				</trkpt>
				<trkpt lat="37.83966" lon="-25.83416">
					<ele>145</ele>
					<time>0001-01-01T00:00:00Z</time>
				</trkpt>
				<trkpt lat="37.84024" lon="-25.83428">
					<ele>145</ele>
					<time>0001-01-01T00:00:00Z</time>
				</trkpt>
				<trkpt lat="37.84086" lon="-25.83412">
					<ele>146</ele>
					<time>0001-01-01T00:00:00Z</time>
				</trkpt>
				<trkpt lat="37.84146" lon="-25.83394">
					<ele>147</ele>
					<time>0001-01-01T00:00:00Z</time>
				</trkpt>
				<trkpt lat="37.84259" lon="-25.83382">
					<ele>148</ele>
					<time>0001-01-01T00:00:00Z</time>
				</trkpt>
				<trkpt lat="37.84270" lon="-25.83382">
					<ele>148</ele>
					<time>0001-01-01T00:00:00Z</time>
				</trkpt>
				<trkpt lat="37.84287" lon="-25.83378">
					<ele>148</ele>
					<time>0001-01-01T00:00:00Z</time>
				</trkpt>
				<trkpt lat="37.84304" lon="-25.83360">
					<ele>148</ele>
					<time>0001-01-01T00:00:00Z</time>
				</trkpt>
				<trkpt lat="37.84311" lon="-25.83337">
					<ele>148</ele>
					<time>0001-01-01T00:00:00Z</time>
				</trkpt>
				<trkpt lat="37.84319" lon="-25.83315">
					<ele>149</ele>
					<time>0001-01-01T00:00:00Z</time>
				</trkpt>
				<trkpt lat="37.84347" lon="-25.83290">
					<ele>149</ele>
					<time>0001-01-01T00:00:00Z</time>
				</trkpt>
				<trkpt lat="37.84370" lon="-25.83297">
					<ele>149</ele>
					<time>0001-01-01T00:00:00Z</time>
				</trkpt>
				<trkpt lat="37.84404" lon="-25.83353">
					<ele>149</ele>
					<time>0001-01-01T00:00:00Z</time>
				</trkpt>
				<trkpt lat="37.84408" lon="-25.83388">
					<ele>148</ele>
					<time>0001-01-01T00:00:00Z</time>
				</trkpt>
				<trkpt lat="37.84394" lon="-25.83450">
					<ele>148</ele>
					<time>0001-01-01T00:00:00Z</time>
				</trkpt>
				<trkpt lat="37.84398" lon="-25.83496">
					<ele>149</ele>
					<time>0001-01-01T00:00:00Z</time>
				</trkpt>
				<trkpt lat="37.84423" lon="-25.83570">
					<ele>150</ele>
					<time>0001-01-01T00:00:00Z</time>
				</trkpt>
				<trkpt lat="37.84469" lon="-25.83597">
					<ele>150</ele>
					<time>0001-01-01T00:00:00Z</time>
				</trkpt>
				<trkpt lat="37.84490" lon="-25.83598">
					<ele>150</ele>
					<time>0001-01-01T00:00:00Z</time>
				</trkpt>
				<trkpt lat="37.84504" lon="-25.83601">
					<ele>150</ele>
					<time>0001-01-01T00:00:00Z</time>
				</trkpt>
				<trkpt lat="37.84580" lon="-25.83664">
					<ele>150</ele>
					<time>0001-01-01T00:00:00Z</time>
				</trkpt>
				<trkpt lat="37.84586" lon="-25.83668">
					<ele>150</ele>
					<time>0001-01-01T00:00:00Z</time>
				</trkpt>
				<trkpt lat="37.84623" lon="-25.83651">
					<ele>149</ele>
					<time>0001-01-01T00:00:00Z</time>
				</trkpt>
				<trkpt lat="37.84630" lon="-25.83635">
					<ele>149</ele>
					<time>0001-01-01T00:00:00Z</time>
				</trkpt>
				<trkpt lat="37.84665" lon="-25.83624">
					<ele>149</ele>
					<time>0001-01-01T00:00:00Z</time>
				</trkpt>
				<trkpt lat="37.84676" lon="-25.83637">
					<ele>148</ele>
					<time>0001-01-01T00:00:00Z</time>
				</trkpt>
				<trkpt lat="37.84743" lon="-25.83754">
					<ele>148</ele>
					<time>0001-01-01T00:00:00Z</time>
				</trkpt>
				<trkpt lat="37.84804" lon="-25.83893">
					<ele>151</ele>
					<time>0001-01-01T00:00:00Z</time>
				</trkpt>
				<trkpt lat="37.84864" lon="-25.83962">
					<ele>152</ele>
					<time>0001-01-01T00:00:00Z</time>
				</trkpt>
				<trkpt lat="37.84869" lon="-25.83966">
					<ele>152</ele>
					<time>0001-01-01T00:00:00Z</time>
				</trkpt>
				<trkpt lat="37.84895" lon="-25.83976">
					<ele>153</ele>
					<time>0001-01-01T00:00:00Z</time>
				</trkpt>
				<trkpt lat="37.85011" lon="-25.83987">
					<ele>156</ele>
					<time>0001-01-01T00:00:00Z</time>
				</trkpt>
				<trkpt lat="37.85107" lon="-25.83994">
					<ele>158</ele>
					<time>0001-01-01T00:00:00Z</time>
				</trkpt>
				<trkpt lat="37.85219" lon="-25.84025">
					<ele>164</ele>
					<time>0001-01-01T00:00:00Z</time>
				</trkpt>
				<trkpt lat="37.85306" lon="-25.84028">
					<ele>168</ele>
					<time>0001-01-01T00:00:00Z</time>
				</trkpt>
				<trkpt lat="37.85389" lon="-25.84000">
					<ele>172</ele>
					<time>0001-01-01T00:00:00Z</time>
				</trkpt>
				<trkpt lat="37.85450" lon="-25.83975">
					<ele>175</ele>
					<time>0001-01-01T00:00:00Z</time>
				</trkpt>
				<trkpt lat="37.85474" lon="-25.84005">
					<ele>177</ele>
					<time>0001-01-01T00:00:00Z</time>
				</trkpt>
				<trkpt lat="37.85470" lon="-25.84069">
					<ele>177</ele>
					<time>0001-01-01T00:00:00Z</time>
				</trkpt>
				<trkpt lat="37.85477" lon="-25.84145">
					<ele>181</ele>
					<time>0001-01-01T00:00:00Z</time>
				</trkpt>
				<trkpt lat="37.85492" lon="-25.84226">
					<ele>186</ele>
					<time>0001-01-01T00:00:00Z</time>
				</trkpt>
				<trkpt lat="37.85522" lon="-25.84242">
					<ele>188</ele>
					<time>0001-01-01T00:00:00Z</time>
				</trkpt>
				<trkpt lat="37.85532" lon="-25.84242">
					<ele>188</ele>
					<time>0001-01-01T00:00:00Z</time>
				</trkpt>
				<trkpt lat="37.85550" lon="-25.84242">
					<ele>189</ele>
					<time>0001-01-01T00:00:00Z</time>
				</trkpt>
				<trkpt lat="37.85601" lon="-25.84240">
					<ele>192</ele>
					<time>0001-01-01T00:00:00Z</time>
				</trkpt>
				<trkpt lat="37.85661" lon="-25.84205">
					<ele>196</ele>
					<time>0001-01-01T00:00:00Z</time>
				</trkpt>
				<trkpt lat="37.85718" lon="-25.84168">
					<ele>200</ele>
					<time>0001-01-01T00:00:00Z</time>
				</trkpt>
				<trkpt lat="37.85780" lon="-25.84166">
					<ele>204</ele>
					<time>0001-01-01T00:00:00Z</time>
				</trkpt>
				<trkpt lat="37.85897" lon="-25.84165">
					<ele>212</ele>
					<time>0001-01-01T00:00:00Z</time>
				</trkpt>
				<trkpt lat="37.85935" lon="-25.84133">
					<ele>216</ele>
					<time>0001-01-01T00:00:00Z</time>
				</trkpt>
				<trkpt lat="37.85957" lon="-25.84079">
					<ele>217</ele>
					<time>0001-01-01T00:00:00Z</time>
				</trkpt>
				<trkpt lat="37.85985" lon="-25.84033">
					<ele>219</ele>
					<time>0001-01-01T00:00:00Z</time>
				</trkpt>
				<trkpt lat="37.85987" lon="-25.83960">
					<ele>220</ele>
					<time>0001-01-01T00:00:00Z</time>
				</trkpt>
				<trkpt lat="37.85982" lon="-25.83897">
					<ele>223</ele>
					<time>0001-01-01T00:00:00Z</time>
				</trkpt>
				<trkpt lat="37.86019" lon="-25.83833">
					<ele>226</ele>
					<time>0001-01-01T00:00:00Z</time>
				</trkpt>
				<trkpt lat="37.86027" lon="-25.83757">
					<ele>227</ele>
					<time>0001-01-01T00:00:00Z</time>
				</trkpt>
				<trkpt lat="37.86047" lon="-25.83714">
					<ele>229</ele>
					<time>0001-01-01T00:00:00Z</time>
				</trkpt>
				<trkpt lat="37.86107" lon="-25.83683">
					<ele>233</ele>
					<time>0001-01-01T00:00:00Z</time>
				</trkpt>
				<trkpt lat="37.86123" lon="-25.83638">
					<ele>233</ele>
					<time>0001-01-01T00:00:00Z</time>
				</trkpt>
				<trkpt lat="37.86109" lon="-25.83533">
					<ele>234</ele>
					<time>0001-01-01T00:00:00Z</time>
				</trkpt>
				<trkpt lat="37.86093" lon="-25.83431">
					<ele>237</ele>
					<time>0001-01-01T00:00:00Z</time>
				</trkpt>
				<trkpt lat="37.86088" lon="-25.83387">
					<ele>238</ele>
					<time>0001-01-01T00:00:00Z</time>
				</trkpt>
				<trkpt lat="37.86087" lon="-25.83375">
					<ele>238</ele>
					<time>0001-01-01T00:00:00Z</time>
				</trkpt>
				<trkpt lat="37.86088" lon="-25.83363">
					<ele>238</ele>
					<time>0001-01-01T00:00:00Z</time>
				</trkpt>
				<trkpt lat="37.86104" lon="-25.83322">
					<ele>239</ele>
					<time>0001-01-01T00:00:00Z</time>
				</trkpt>
				<trkpt lat="37.86183" lon="-25.83207">
					<ele>239</ele>
					<time>0001-01-01T00:00:00Z</time>
				</trkpt>
				<trkpt lat="37.86247" lon="-25.83193">
					<ele>239</ele>
					<time>0001-01-01T00:00:00Z</time>
				</trkpt>
				<trkpt lat="37.86374" lon="-25.83254">
					<ele>241</ele>
					<time>0001-01-01T00:00:00Z</time>
				</trkpt>
				<trkpt lat="37.86482" lon="-25.83312">
					<ele>242</ele>
					<time>0001-01-01T00:00:00Z</time>
				</trkpt>
				<trkpt lat="37.86596" lon="-25.83387">
					<ele>245</ele>
					<time>0001-01-01T00:00:00Z</time>
				</trkpt>
				<trkpt lat="37.86699" lon="-25.83469">
					<ele>245</ele>
					<time>0001-01-01T00:00:00Z</time>
				</trkpt>
				<trkpt lat="37.86771" lon="-25.83577">
					<ele>245</ele>
					<time>0001-01-01T00:00:00Z</time>
				</trkpt>
				<trkpt lat="37.86882" lon="-25.83732">
					<ele>245</ele>
					<time>0001-01-01T00:00:00Z</time>
				</trkpt>
				<trkpt lat="37.86987" lon="-25.83875">
					<ele>247</ele>
					<time>0001-01-01T00:00:00Z</time>
				</trkpt>
				<trkpt lat="37.87040" lon="-25.83884">
					<ele>248</ele>
					<time>0001-01-01T00:00:00Z</time>
				</trkpt>
				<trkpt lat="37.87065" lon="-25.83839">
					<ele>247</ele>
					<time>0001-01-01T00:00:00Z</time>
				</trkpt>
				<trkpt lat="37.87083" lon="-25.83747">
					<ele>246</ele>
					<time>0001-01-01T00:00:00Z</time>
				</trkpt>
				<trkpt lat="37.87118" lon="-25.83704">
					<ele>244</ele>
					<time>0001-01-01T00:00:00Z</time>
				</trkpt>
				<trkpt lat="37.87209" lon="-25.83661">
					<ele>239</ele>
					<time>0001-01-01T00:00:00Z</time>
				</trkpt>
				<trkpt lat="37.87243" lon="-25.83611">
					<ele>236</ele>
					<time>0001-01-01T00:00:00Z</time>
				</trkpt>
				<trkpt lat="37.87255" lon="-25.83514">
					<ele>233</ele>
					<time>0001-01-01T00:00:00Z</time>
				</trkpt>
				<trkpt lat="37.87268" lon="-25.83476">
					<ele>231</ele>
					<time>0001-01-01T00:00:00Z</time>
				</trkpt>
				<trkpt lat="37.87325" lon="-25.83328">
					<ele>225</ele>
					<time>0001-01-01T00:00:00Z</time>
				</trkpt>
				<trkpt lat="37.87342" lon="-25.83279">
					<ele>224</ele>
					<time>0001-01-01T00:00:00Z</time>
				</trkpt>
				<trkpt lat="37.87363" lon="-25.83244">
					<ele>222</ele>
					<time>0001-01-01T00:00:00Z</time>
				</trkpt>
				<trkpt lat="37.87419" lon="-25.83187">
					<ele>220</ele>
					<time>0001-01-01T00:00:00Z</time>
				</trkpt>
				<trkpt lat="37.87442" lon="-25.83147">
					<ele>217</ele>
					<time>0001-01-01T00:00:00Z</time>
				</trkpt>
				<trkpt lat="37.87459" lon="-25.83101">
					<ele>215</ele>
					<time>0001-01-01T00:00:00Z</time>
				</trkpt>
				<trkpt lat="37.87485" lon="-25.83063">
					<ele>214</ele>
					<time>0001-01-01T00:00:00Z</time>
				</trkpt>
				<trkpt lat="37.87495" lon="-25.82999">
					<ele>213</ele>
					<time>0001-01-01T00:00:00Z</time>
				</trkpt>
				<trkpt lat="37.87486" lon="-25.82969">
					<ele>212</ele>
					<time>0001-01-01T00:00:00Z</time>
				</trkpt>
				<trkpt lat="37.87475" lon="-25.82887">
					<ele>209</ele>
					<time>0001-01-01T00:00:00Z</time>
				</trkpt>
				<trkpt lat="37.87421" lon="-25.82787">
					<ele>204</ele>
					<time>0001-01-01T00:00:00Z</time>
				</trkpt>
				<trkpt lat="37.87397" lon="-25.82671">
					<ele>203</ele>
					<time>0001-01-01T00:00:00Z</time>
				</trkpt>
				<trkpt lat="37.87417" lon="-25.82617">
					<ele>203</ele>
					<time>0001-01-01T00:00:00Z</time>
				</trkpt>
				<trkpt lat="37.87461" lon="-25.82530">
					<ele>202</ele>
					<time>0001-01-01T00:00:00Z</time>
				</trkpt>
				<trkpt lat="37.87482" lon="-25.82520">
					<ele>202</ele>
					<time>0001-01-01T00:00:00Z</time>
				</trkpt>
				<trkpt lat="37.87493" lon="-25.82521">
					<ele>202</ele>
					<time>0001-01-01T00:00:00Z</time>
				</trkpt>
				<trkpt lat="37.87550" lon="-25.82548">
					<ele>202</ele>
					<time>0001-01-01T00:00:00Z</time>
				</trkpt>
				<trkpt lat="37.87624" lon="-25.82497">
					<ele>202</ele>
					<time>0001-01-01T00:00:00Z</time>
				</trkpt>
				<trkpt lat="37.87654" lon="-25.82493">
					<ele>202</ele>
					<time>0001-01-01T00:00:00Z</time>
				</trkpt>
				<trkpt lat="37.87721" lon="-25.82524">
					<ele>199</ele>
					<time>0001-01-01T00:00:00Z</time>
				</trkpt>
				<trkpt lat="37.87743" lon="-25.82522">
					<ele>198</ele>
					<time>0001-01-01T00:00:00Z</time>
				</trkpt>
				<trkpt lat="37.87761" lon="-25.82508">
					<ele>198</ele>
					<time>0001-01-01T00:00:00Z</time>
				</trkpt>
				<trkpt lat="37.87795" lon="-25.82515">
					<ele>195</ele>
					<time>0001-01-01T00:00:00Z</time>
				</trkpt>
				<trkpt lat="37.87827" lon="-25.82541">
					<ele>192</ele>
					<time>0001-01-01T00:00:00Z</time>
				</trkpt>
				<trkpt lat="37.87818" lon="-25.82539">
					<ele>191</ele>
					<time>0001-01-01T00:00:00Z</time>
				</trkpt>
				<trkpt lat="37.87770" lon="-25.82504">
					<ele>193</ele>
					<time>0001-01-01T00:00:00Z</time>
				</trkpt>
				<trkpt lat="37.87831" lon="-25.82488">
					<ele>142</ele>
					<time>0001-01-01T00:00:00Z</time>
				</trkpt>
				<trkpt lat="37.87813" lon="-25.82478">
					<ele>196</ele>
					<time>0001-01-01T00:00:00Z</time>
				</trkpt>
				<trkpt lat="37.87848" lon="-25.82466">
					<ele>199</ele>
					<time>0001-01-01T00:00:00Z</time>
				</trkpt>
				<trkpt lat="37.87969" lon="-25.82332">
					<ele>200</ele>
					<time>0001-01-01T00:00:00Z</time>
				</trkpt>
				<trkpt lat="37.88073" lon="-25.82232">
					<ele>205</ele>
					<time>0001-01-01T00:00:00Z</time>
				</trkpt>
				<trkpt lat="37.88099" lon="-25.82169">
					<ele>208</ele>
					<time>0001-01-01T00:00:00Z</time>
				</trkpt>
				<trkpt lat="37.88100" lon="-25.82157">
					<ele>208</ele>
					<time>0001-01-01T00:00:00Z</time>
				</trkpt>
				<trkpt lat="37.88104" lon="-25.82149">
					<ele>208</ele>
					<time>0001-01-01T00:00:00Z</time>
				</trkpt>
				<trkpt lat="37.88102" lon="-25.82127">
					<ele>207</ele>
					<time>0001-01-01T00:00:00Z</time>
				</trkpt>
				<trkpt lat="37.88106" lon="-25.82065">
					<ele>207</ele>
					<time>0001-01-01T00:00:00Z</time>
				</trkpt>
				<trkpt lat="37.88145" lon="-25.81972">
					<ele>211</ele>
					<time>0001-01-01T00:00:00Z</time>
				</trkpt>
				<trkpt lat="37.88198" lon="-25.81873">
					<ele>215</ele>
					<time>0001-01-01T00:00:00Z</time>
				</trkpt>
				<trkpt lat="37.88184" lon="-25.81762">
					<ele>217</ele>
					<time>0001-01-01T00:00:00Z</time>
				</trkpt>
				<trkpt lat="37.88184" lon="-25.81754">
					<ele>216</ele>
					<time>0001-01-01T00:00:00Z</time>
				</trkpt>
				<trkpt lat="37.88204" lon="-25.81738">
					<ele>217</ele>
					<time>0001-01-01T00:00:00Z</time>
				</trkpt>
				<trkpt lat="37.88242" lon="-25.81723">
					<ele>219</ele>
					<time>0001-01-01T00:00:00Z</time>
				</trkpt>
				<trkpt lat="37.88255" lon="-25.81708">
					<ele>221</ele>
					<time>0001-01-01T00:00:00Z</time>
				</trkpt>
				<trkpt lat="37.88313" lon="-25.81600">
					<ele>226</ele>
					<time>0001-01-01T00:00:00Z</time>
				</trkpt>
				<trkpt lat="37.88315" lon="-25.81595">
					<ele>226</ele>
					<time>0001-01-01T00:00:00Z</time>
				</trkpt>
				<trkpt lat="37.88315" lon="-25.81574">
					<ele>227</ele>
					<time>0001-01-01T00:00:00Z</time>
				</trkpt>
				<trkpt lat="37.88308" lon="-25.81537">
					<ele>228</ele>
					<time>0001-01-01T00:00:00Z</time>
				</trkpt>
				<trkpt lat="37.88286" lon="-25.81500">
					<ele>229</ele>
					<time>0001-01-01T00:00:00Z</time>
				</trkpt>
				<trkpt lat="37.88292" lon="-25.81466">
					<ele>230</ele>
					<time>0001-01-01T00:00:00Z</time>
				</trkpt>
				<trkpt lat="37.88319" lon="-25.81420">
					<ele>231</ele>
					<time>0001-01-01T00:00:00Z</time>
				</trkpt>
				<trkpt lat="37.88310" lon="-25.81390">
					<ele>231</ele>
					<time>0001-01-01T00:00:00Z</time>
				</trkpt>
				<trkpt lat="37.88245" lon="-25.81306">
					<ele>232</ele>
					<time>0001-01-01T00:00:00Z</time>
				</trkpt>
				<trkpt lat="37.88179" lon="-25.81221">
					<ele>236</ele>
					<time>0001-01-01T00:00:00Z</time>
				</trkpt>
				<trkpt lat="37.88131" lon="-25.81158">
					<ele>239</ele>
					<time>0001-01-01T00:00:00Z</time>
				</trkpt>
				<trkpt lat="37.88106" lon="-25.81094">
					<ele>242</ele>
					<time>0001-01-01T00:00:00Z</time>
				</trkpt>
				<trkpt lat="37.88111" lon="-25.81082">
					<ele>243</ele>
					<time>0001-01-01T00:00:00Z</time>
				</trkpt>
				<trkpt lat="37.88133" lon="-25.81070">
					<ele>245</ele>
					<time>0001-01-01T00:00:00Z</time>
				</trkpt>
				<trkpt lat="37.88212" lon="-25.81088">
					<ele>250</ele>
					<time>0001-01-01T00:00:00Z</time>
				</trkpt>
				<trkpt lat="37.88237" lon="-25.81066">
					<ele>252</ele>
					<time>0001-01-01T00:00:00Z</time>
				</trkpt>
				<trkpt lat="37.88274" lon="-25.81003">
					<ele>255</ele>
					<time>0001-01-01T00:00:00Z</time>
				</trkpt>
				<trkpt lat="37.88274" lon="-25.80968">
					<ele>256</ele>
					<time>0001-01-01T00:00:00Z</time>
				</trkpt>
				<trkpt lat="37.88240" lon="-25.80931">
					<ele>258</ele>
					<time>0001-01-01T00:00:00Z</time>
				</trkpt>
				<trkpt lat="37.88181" lon="-25.80891">
					<ele>259</ele>
					<time>0001-01-01T00:00:00Z</time>
				</trkpt>
				<trkpt lat="37.88182" lon="-25.80832">
					<ele>262</ele>
					<time>0001-01-01T00:00:00Z</time>
				</trkpt>
				<trkpt lat="37.88187" lon="-25.80746">
					<ele>262</ele>
					<time>0001-01-01T00:00:00Z</time>
				</trkpt>
				<trkpt lat="37.88240" lon="-25.80651">
					<ele>267</ele>
					<time>0001-01-01T00:00:00Z</time>
				</trkpt>
				<trkpt lat="37.88262" lon="-25.80611">
					<ele>269</ele>
					<time>0001-01-01T00:00:00Z</time>
				</trkpt>
				<trkpt lat="37.88268" lon="-25.80594">
					<ele>269</ele>
					<time>0001-01-01T00:00:00Z</time>
				</trkpt>
				<trkpt lat="37.88278" lon="-25.80477">
					<ele>270</ele>
					<time>0001-01-01T00:00:00Z</time>
				</trkpt>
				<trkpt lat="37.88283" lon="-25.80395">
					<ele>271</ele>
					<time>0001-01-01T00:00:00Z</time>
				</trkpt>
				<trkpt lat="37.88282" lon="-25.80381">
					<ele>271</ele>
					<time>0001-01-01T00:00:00Z</time>
				</trkpt>
				<trkpt lat="37.88270" lon="-25.80314">
					<ele>271</ele>
					<time>0001-01-01T00:00:00Z</time>
				</trkpt>
				<trkpt lat="37.88293" lon="-25.80280">
					<ele>273</ele>
					<time>0001-01-01T00:00:00Z</time>
				</trkpt>
				<trkpt lat="37.88310" lon="-25.80287">
					<ele>274</ele>
					<time>0001-01-01T00:00:00Z</time>
				</trkpt>
				<trkpt lat="37.88406" lon="-25.80382">
					<ele>276</ele>
					<time>0001-01-01T00:00:00Z</time>
				</trkpt>
				<trkpt lat="37.88488" lon="-25.80439">
					<ele>277</ele>
					<time>0001-01-01T00:00:00Z</time>
				</trkpt>
				<trkpt lat="37.88595" lon="-25.80527">
					<ele>282</ele>
					<time>0001-01-01T00:00:00Z</time>
				</trkpt>
				<trkpt lat="37.88699" lon="-25.80634">
					<ele>284</ele>
					<time>0001-01-01T00:00:00Z</time>
				</trkpt>
				<trkpt lat="37.88723" lon="-25.80647">
					<ele>284</ele>
					<time>0001-01-01T00:00:00Z</time>
				</trkpt>
				<trkpt lat="37.88758" lon="-25.80621">
					<ele>284</ele>
					<time>0001-01-01T00:00:00Z</time>
				</trkpt>
				<trkpt lat="37.88768" lon="-25.80576">
					<ele>283</ele>
					<time>0001-01-01T00:00:00Z</time>
				</trkpt>
				<trkpt lat="37.88755" lon="-25.80417">
					<ele>284</ele>
					<time>0001-01-01T00:00:00Z</time>
				</trkpt>
				<trkpt lat="37.88732" lon="-25.80275">
					<ele>284</ele>
					<time>0001-01-01T00:00:00Z</time>
				</trkpt>
				<trkpt lat="37.88697" lon="-25.80162">
					<ele>288</ele>
					<time>0001-01-01T00:00:00Z</time>
				</trkpt>
				<trkpt lat="37.88664" lon="-25.80059">
					<ele>290</ele>
					<time>0001-01-01T00:00:00Z</time>
				</trkpt>
				<trkpt lat="37.88637" lon="-25.79970">
					<ele>293</ele>
					<time>0001-01-01T00:00:00Z</time>
				</trkpt>
				<trkpt lat="37.88647" lon="-25.79920">
					<ele>295</ele>
					<time>0001-01-01T00:00:00Z</time>
				</trkpt>
				<trkpt lat="37.88672" lon="-25.79907">
					<ele>297</ele>
					<time>0001-01-01T00:00:00Z</time>
				</trkpt>
				<trkpt lat="37.88701" lon="-25.79906">
					<ele>299</ele>
					<time>0001-01-01T00:00:00Z</time>
				</trkpt>
				<trkpt lat="37.88728" lon="-25.79899">
					<ele>300</ele>
					<time>0001-01-01T00:00:00Z</time>
				</trkpt>
				<trkpt lat="37.88744" lon="-25.79865">
					<ele>301</ele>
					<time>0001-01-01T00:00:00Z</time>
				</trkpt>
				<trkpt lat="37.88738" lon="-25.79775">
					<ele>304</ele>
					<time>0001-01-01T00:00:00Z</time>
				</trkpt>
				<trkpt lat="37.88724" lon="-25.79664">
					<ele>307</ele>
					<time>0001-01-01T00:00:00Z</time>
				</trkpt>
				<trkpt lat="37.88682" lon="-25.79641">
					<ele>307</ele>
					<time>0001-01-01T00:00:00Z</time>
				</trkpt>
				<trkpt lat="37.88608" lon="-25.79620">
					<ele>304</ele>
					<time>0001-01-01T00:00:00Z</time>
				</trkpt>
				<trkpt lat="37.88594" lon="-25.79570">
					<ele>304</ele>
					<time>0001-01-01T00:00:00Z</time>
				</trkpt>
				<trkpt lat="37.88616" lon="-25.79549">
					<ele>304</ele>
					<time>0001-01-01T00:00:00Z</time>
				</trkpt>
				<trkpt lat="37.88742" lon="-25.79482">
					<ele>304</ele>
					<time>0001-01-01T00:00:00Z</time>
				</trkpt>
				<trkpt lat="37.88755" lon="-25.79426">
					<ele>303</ele>
					<time>0001-01-01T00:00:00Z</time>
				</trkpt>
				<trkpt lat="37.88749" lon="-25.79411">
					<ele>302</ele>
					<time>0001-01-01T00:00:00Z</time>
				</trkpt>
				<trkpt lat="37.88714" lon="-25.79335">
					<ele>300</ele>
					<time>0001-01-01T00:00:00Z</time>
				</trkpt>
				<trkpt lat="37.88742" lon="-25.79291">
					<ele>299</ele>
					<time>0001-01-01T00:00:00Z</time>
				</trkpt>
				<trkpt lat="37.88750" lon="-25.79291">
					<ele>299</ele>
					<time>0001-01-01T00:00:00Z</time>
				</trkpt>
				<trkpt lat="37.88891" lon="-25.79300">
					<ele>299</ele>
					<time>0001-01-01T00:00:00Z</time>
				</trkpt>
				<trkpt lat="37.88922" lon="-25.79273">
					<ele>296</ele>
					<time>0001-01-01T00:00:00Z</time>
				</trkpt>
				<trkpt lat="37.88937" lon="-25.79249">
					<ele>295</ele>
					<time>0001-01-01T00:00:00Z</time>
				</trkpt>
				<trkpt lat="37.88984" lon="-25.79238">
					<ele>293</ele>
					<time>0001-01-01T00:00:00Z</time>
				</trkpt>
				<trkpt lat="37.89092" lon="-25.79272">
					<ele>290</ele>
					<time>0001-01-01T00:00:00Z</time>
				</trkpt>
				<trkpt lat="37.89193" lon="-25.79324">
					<ele>285</ele>
					<time>0001-01-01T00:00:00Z</time>
				</trkpt>
				<trkpt lat="37.89233" lon="-25.79299">
					<ele>279</ele>
					<time>0001-01-01T00:00:00Z</time>
				</trkpt>
				<trkpt lat="37.89319" lon="-25.79137">
					<ele>269</ele>
					<time>0001-01-01T00:00:00Z</time>
				</trkpt>
				<trkpt lat="37.89329" lon="-25.79100">
					<ele>266</ele>
					<time>0001-01-01T00:00:00Z</time>
				</trkpt>
				<trkpt lat="37.89320" lon="-25.78908">
					<ele>259</ele>
					<time>0001-01-01T00:00:00Z</time>
				</trkpt>
				<trkpt lat="37.89299" lon="-25.78876">
					<ele>258</ele>
					<time>0001-01-01T00:00:00Z</time>
				</trkpt>
				<trkpt lat="37.89293" lon="-25.78811">
					<ele>255</ele>
					<time>0001-01-01T00:00:00Z</time>
				</trkpt>
				<trkpt lat="37.89325" lon="-25.78795">
					<ele>253</ele>
					<time>0001-01-01T00:00:00Z</time>
				</trkpt>
				<trkpt lat="37.89431" lon="-25.78786">
					<ele>248</ele>
					<time>0001-01-01T00:00:00Z</time>
				</trkpt>
				<trkpt lat="37.89480" lon="-25.78798">
					<ele>245</ele>
					<time>0001-01-01T00:00:00Z</time>
				</trkpt>
				<trkpt lat="37.89526" lon="-25.78782">
					<ele>243</ele>
					<time>0001-01-01T00:00:00Z</time>
				</trkpt>
				<trkpt lat="37.89531" lon="-25.78772">
					<ele>242</ele>
					<time>0001-01-01T00:00:00Z</time>
				</trkpt>
				<trkpt lat="37.89558" lon="-25.78714">
					<ele>239</ele>
					<time>0001-01-01T00:00:00Z</time>
				</trkpt>
				<trkpt lat="37.89594" lon="-25.78693">
					<ele>238</ele>
					<time>0001-01-01T00:00:00Z</time>
				</trkpt>
				<trkpt lat="37.89754" lon="-25.78683">
					<ele>229</ele>
					<time>0001-01-01T00:00:00Z</time>
				</trkpt>
				<trkpt lat="37.89915" lon="-25.78675">
					<ele>225</ele>
					<time>0001-01-01T00:00:00Z</time>
				</trkpt>
				<trkpt lat="37.90050" lon="-25.78645">
					<ele>217</ele>
					<time>0001-01-01T00:00:00Z</time>
				</trkpt>
				<trkpt lat="37.90127" lon="-25.78599">
					<ele>213</ele>
					<time>0001-01-01T00:00:00Z</time>
				</trkpt>
				<trkpt lat="37.90143" lon="-25.78570">
					<ele>212</ele>
					<time>0001-01-01T00:00:00Z</time>
				</trkpt>
				<trkpt lat="37.90148" lon="-25.78542">
					<ele>210</ele>
					<time>0001-01-01T00:00:00Z</time>
				</trkpt>
				<trkpt lat="37.90191" lon="-25.78507">
					<ele>207</ele>
					<time>0001-01-01T00:00:00Z</time>
				</trkpt>
				<trkpt lat="37.90241" lon="-25.78514">
					<ele>204</ele>
					<time>0001-01-01T00:00:00Z</time>
				</trkpt>
				<trkpt lat="37.90318" lon="-25.78487">
					<ele>201</ele>
					<time>0001-01-01T00:00:00Z</time>
				</trkpt>
				<trkpt lat="37.90353" lon="-25.78444">
					<ele>199</ele>
					<time>0001-01-01T00:00:00Z</time>
				</trkpt>
				<trkpt lat="37.90397" lon="-25.78437">
					<ele>195</ele>
					<time>0001-01-01T00:00:00Z</time>
				</trkpt>
				<trkpt lat="37.90508" lon="-25.78503">
					<ele>189</ele>
					<time>0001-01-01T00:00:00Z</time>
				</trkpt>
				<trkpt lat="37.90530" lon="-25.78504">
					<ele>187</ele>
					<time>0001-01-01T00:00:00Z</time>
				</trkpt>
				<trkpt lat="37.90541" lon="-25.78502">
					<ele>186</ele>
					<time>0001-01-01T00:00:00Z</time>
				</trkpt>
				<trkpt lat="37.90561" lon="-25.78452">
					<ele>182</ele>
					<time>0001-01-01T00:00:00Z</time>
				</trkpt>
				<trkpt lat="37.90544" lon="-25.78402">
					<ele>179</ele>
					<time>0001-01-01T00:00:00Z</time>
				</trkpt>
				<trkpt lat="37.90538" lon="-25.78398">
					<ele>178</ele>
					<time>0001-01-01T00:00:00Z</time>
				</trkpt>
				<trkpt lat="37.90477" lon="-25.78360">
					<ele>175</ele>
					<time>0001-01-01T00:00:00Z</time>
				</trkpt>
				<trkpt lat="37.90460" lon="-25.78326">
					<ele>174</ele>
					<time>0001-01-01T00:00:00Z</time>
				</trkpt>
				<trkpt lat="37.90444" lon="-25.78214">
					<ele>170</ele>
					<time>0001-01-01T00:00:00Z</time>
				</trkpt>
				<trkpt lat="37.90463" lon="-25.78077">
					<ele>166</ele>
					<time>0001-01-01T00:00:00Z</time>
				</trkpt>
				<trkpt lat="37.90471" lon="-25.78035">
					<ele>166</ele>
					<time>0001-01-01T00:00:00Z</time>
				</trkpt>
				<trkpt lat="37.90492" lon="-25.78013">
					<ele>165</ele>
					<time>0001-01-01T00:00:00Z</time>
				</trkpt>
				<trkpt lat="37.90517" lon="-25.77998">
					<ele>164</ele>
					<time>0001-01-01T00:00:00Z</time>
				</trkpt>
				<trkpt lat="37.90540" lon="-25.77945">
					<ele>162</ele>
					<time>0001-01-01T00:00:00Z</time>
				</trkpt>
				<trkpt lat="37.90539" lon="-25.77768">
					<ele>158</ele>
					<time>0001-01-01T00:00:00Z</time>
				</trkpt>
				<trkpt lat="37.90537" lon="-25.77751">
					<ele>157</ele>
					<time>0001-01-01T00:00:00Z</time>
				</trkpt>
				<trkpt lat="37.90525" lon="-25.77719">
					<ele>156</ele>
					<time>0001-01-01T00:00:00Z</time>
				</trkpt>
				<trkpt lat="37.90441" lon="-25.77590">
					<ele>150</ele>
					<time>0001-01-01T00:00:00Z</time>
				</trkpt>
				<trkpt lat="37.90420" lon="-25.77555">
					<ele>149</ele>
					<time>0001-01-01T00:00:00Z</time>
				</trkpt>
				<trkpt lat="37.90408" lon="-25.77517">
					<ele>149</ele>
					<time>0001-01-01T00:00:00Z</time>
				</trkpt>
				<trkpt lat="37.90388" lon="-25.77488">
					<ele>150</ele>
					<time>0001-01-01T00:00:00Z</time>
				</trkpt>
				<trkpt lat="37.90371" lon="-25.77484">
					<ele>150</ele>
					<time>0001-01-01T00:00:00Z</time>
				</trkpt>
				<trkpt lat="37.90325" lon="-25.77497">
					<ele>149</ele>
					<time>0001-01-01T00:00:00Z</time>
				</trkpt>
				<trkpt lat="37.90254" lon="-25.77460">
					<ele>148</ele>
					<time>0001-01-01T00:00:00Z</time>
				</trkpt>
				<trkpt lat="37.90200" lon="-25.77417">
					<ele>147</ele>
					<time>0001-01-01T00:00:00Z</time>
				</trkpt>
				<trkpt lat="37.90192" lon="-25.77354">
					<ele>149</ele>
					<time>0001-01-01T00:00:00Z</time>
				</trkpt>
				<trkpt lat="37.90196" lon="-25.77351">
					<ele>149</ele>
					<time>0001-01-01T00:00:00Z</time>
				</trkpt>
				<trkpt lat="37.90252" lon="-25.77314">
					<ele>153</ele>
					<time>0001-01-01T00:00:00Z</time>
				</trkpt>
				<trkpt lat="37.90278" lon="-25.77248">
					<ele>154</ele>
					<time>0001-01-01T00:00:00Z</time>
				</trkpt>
				<trkpt lat="37.90299" lon="-25.77158">
					<ele>159</ele>
					<time>0001-01-01T00:00:00Z</time>
				</trkpt>
				<trkpt lat="37.90280" lon="-25.77093">
					<ele>161</ele>
					<time>0001-01-01T00:00:00Z</time>
				</trkpt>
				<trkpt lat="37.90234" lon="-25.77057">
					<ele>162</ele>
					<time>0001-01-01T00:00:00Z</time>
				</trkpt>
				<trkpt lat="37.90178" lon="-25.77047">
					<ele>163</ele>
					<time>0001-01-01T00:00:00Z</time>
				</trkpt>
				<trkpt lat="37.90115" lon="-25.77052">
					<ele>160</ele>
					<time>0001-01-01T00:00:00Z</time>
				</trkpt>
				<trkpt lat="37.90092" lon="-25.77021">
					<ele>161</ele>
					<time>0001-01-01T00:00:00Z</time>
				</trkpt>
				<trkpt lat="37.90100" lon="-25.76987">
					<ele>162</ele>
					<time>0001-01-01T00:00:00Z</time>
				</trkpt>
				<trkpt lat="37.90137" lon="-25.76918">
					<ele>165</ele>
					<time>0001-01-01T00:00:00Z</time>
				</trkpt>
				<trkpt lat="37.90136" lon="-25.76869">
					<ele>167</ele>
					<time>0001-01-01T00:00:00Z</time>
				</trkpt>
				<trkpt lat="37.90107" lon="-25.76863">
					<ele>168</ele>
					<time>0001-01-01T00:00:00Z</time>
				</trkpt>
				<trkpt lat="37.90045" lon="-25.76896">
					<ele>169</ele>
					<time>0001-01-01T00:00:00Z</time>
				</trkpt>
				<trkpt lat="37.89976" lon="-25.76935">
					<ele>171</ele>
					<time>0001-01-01T00:00:00Z</time>
				</trkpt>
				<trkpt lat="37.89943" lon="-25.76909">
					<ele>170</ele>
					<time>0001-01-01T00:00:00Z</time>
				</trkpt>
				<trkpt lat="37.89944" lon="-25.76891">
					<ele>171</ele>
					<time>0001-01-01T00:00:00Z</time>
				</trkpt>
				<trkpt lat="37.89949" lon="-25.76804">
					<ele>174</ele>
					<time>0001-01-01T00:00:00Z</time>
				</trkpt>
				<trkpt lat="37.89941" lon="-25.76792">
					<ele>176</ele>
					<time>0001-01-01T00:00:00Z</time>
				</trkpt>
				<trkpt lat="37.89940" lon="-25.76790">
					<ele>180</ele>
					<time>0001-01-01T00:00:00Z</time>
				</trkpt>
				<trkpt lat="37.89940" lon="-25.76785">
					<ele>178</ele>
					<time>0001-01-01T00:00:00Z</time>
				</trkpt>
				<trkpt lat="37.89932" lon="-25.76776">
					<ele>179</ele>
					<time>0001-01-01T00:00:00Z</time>
				</trkpt>
				<trkpt lat="37.89903" lon="-25.76732">
					<ele>179</ele>
					<time>0001-01-01T00:00:00Z</time>
				</trkpt>
				<trkpt lat="37.89909" lon="-25.76670">
					<ele>181</ele>
					<time>0001-01-01T00:00:00Z</time>
				</trkpt>
				<trkpt lat="37.89898" lon="-25.76617">
					<ele>182</ele>
					<time>0001-01-01T00:00:00Z</time>
				</trkpt>
				<trkpt lat="37.89849" lon="-25.76583">
					<ele>183</ele>
					<time>0001-01-01T00:00:00Z</time>
				</trkpt>
				<trkpt lat="37.89787" lon="-25.76520">
					<ele>183</ele>
					<time>0001-01-01T00:00:00Z</time>
				</trkpt>
				<trkpt lat="37.89775" lon="-25.76506">
					<ele>183</ele>
					<time>0001-01-01T00:00:00Z</time>
				</trkpt>
				<trkpt lat="37.89781" lon="-25.76455">
					<ele>182</ele>
					<time>0001-01-01T00:00:00Z</time>
				</trkpt>
				<trkpt lat="37.89812" lon="-25.76451">
					<ele>182</ele>
					<time>0001-01-01T00:00:00Z</time>
				</trkpt>
				<trkpt lat="37.89859" lon="-25.76442">
					<ele>181</ele>
					<time>0001-01-01T00:00:00Z</time>
				</trkpt>
				<trkpt lat="37.89867" lon="-25.76426">
					<ele>180</ele>
					<time>0001-01-01T00:00:00Z</time>
				</trkpt>
				<trkpt lat="37.89886" lon="-25.76345">
					<ele>180</ele>
					<time>0001-01-01T00:00:00Z</time>
				</trkpt>
				<trkpt lat="37.89901" lon="-25.76282">
					<ele>180</ele>
					<time>0001-01-01T00:00:00Z</time>
				</trkpt>
				<trkpt lat="37.89897" lon="-25.76205">
					<ele>177</ele>
					<time>0001-01-01T00:00:00Z</time>
				</trkpt>
				<trkpt lat="37.89901" lon="-25.76143">
					<ele>175</ele>
					<time>0001-01-01T00:00:00Z</time>
				</trkpt>
				<trkpt lat="37.89895" lon="-25.76124">
					<ele>174</ele>
					<time>0001-01-01T00:00:00Z</time>
				</trkpt>
				<trkpt lat="37.89874" lon="-25.76100">
					<ele>172</ele>
					<time>0001-01-01T00:00:00Z</time>
				</trkpt>
				<trkpt lat="37.89841" lon="-25.76091">
					<ele>171</ele>
					<time>0001-01-01T00:00:00Z</time>
				</trkpt>
				<trkpt lat="37.89824" lon="-25.76082">
					<ele>170</ele>
					<time>0001-01-01T00:00:00Z</time>
				</trkpt>
				<trkpt lat="37.89800" lon="-25.76030">
					<ele>167</ele>
					<time>0001-01-01T00:00:00Z</time>
				</trkpt>
				<trkpt lat="37.89792" lon="-25.76012">
					<ele>165</ele>
					<time>0001-01-01T00:00:00Z</time>
				</trkpt>
				<trkpt lat="37.89755" lon="-25.75924">
					<ele>161</ele>
					<time>0001-01-01T00:00:00Z</time>
				</trkpt>
				<trkpt lat="37.89709" lon="-25.75899">
					<ele>159</ele>
					<time>0001-01-01T00:00:00Z</time>
				</trkpt>
				<trkpt lat="37.89674" lon="-25.75873">
					<ele>160</ele>
					<time>0001-01-01T00:00:00Z</time>
				</trkpt>
				<trkpt lat="37.89681" lon="-25.75831">
					<ele>159</ele>
					<time>0001-01-01T00:00:00Z</time>
				</trkpt>
				<trkpt lat="37.89731" lon="-25.75799">
					<ele>157</ele>
					<time>0001-01-01T00:00:00Z</time>
				</trkpt>
				<trkpt lat="37.89767" lon="-25.75746">
					<ele>155</ele>
					<time>0001-01-01T00:00:00Z</time>
				</trkpt>
				<trkpt lat="37.89777" lon="-25.75705">
					<ele>155</ele>
					<time>0001-01-01T00:00:00Z</time>
				</trkpt>
				<trkpt lat="37.89772" lon="-25.75609">
					<ele>156</ele>
					<time>0001-01-01T00:00:00Z</time>
				</trkpt>
				<trkpt lat="37.89764" lon="-25.75540">
					<ele>157</ele>
					<time>0001-01-01T00:00:00Z</time>
				</trkpt>
				<trkpt lat="37.89735" lon="-25.75480">
					<ele>159</ele>
					<time>0001-01-01T00:00:00Z</time>
				</trkpt>
				<trkpt lat="37.89702" lon="-25.75430">
					<ele>163</ele>
					<time>0001-01-01T00:00:00Z</time>
				</trkpt>
				<trkpt lat="37.89656" lon="-25.75399">
					<ele>168</ele>
					<time>0001-01-01T00:00:00Z</time>
				</trkpt>
				<trkpt lat="37.89619" lon="-25.75380">
					<ele>170</ele>
					<time>0001-01-01T00:00:00Z</time>
				</trkpt>
				<trkpt lat="37.89580" lon="-25.75320">
					<ele>174</ele>
					<time>0001-01-01T00:00:00Z</time>
				</trkpt>
				<trkpt lat="37.89554" lon="-25.75274">
					<ele>175</ele>
					<time>0001-01-01T00:00:00Z</time>
				</trkpt>
				<trkpt lat="37.89507" lon="-25.75227">
					<ele>178</ele>
					<time>0001-01-01T00:00:00Z</time>
				</trkpt>
				<trkpt lat="37.89453" lon="-25.75249">
					<ele>180</ele>
					<time>0001-01-01T00:00:00Z</time>
				</trkpt>
				<trkpt lat="37.89393" lon="-25.75254">
					<ele>181</ele>
					<time>0001-01-01T00:00:00Z</time>
				</trkpt>
				<trkpt lat="37.89331" lon="-25.75241">
					<ele>182</ele>
					<time>0001-01-01T00:00:00Z</time>
				</trkpt>
				<trkpt lat="37.89312" lon="-25.75189">
					<ele>185</ele>
					<time>0001-01-01T00:00:00Z</time>
				</trkpt>
				<trkpt lat="37.89307" lon="-25.75113">
					<ele>188</ele>
					<time>0001-01-01T00:00:00Z</time>
				</trkpt>
				<trkpt lat="37.89339" lon="-25.75078">
					<ele>190</ele>
					<time>0001-01-01T00:00:00Z</time>
				</trkpt>
				<trkpt lat="37.89377" lon="-25.75022">
					<ele>191</ele>
					<time>0001-01-01T00:00:00Z</time>
				</trkpt>
				<trkpt lat="37.89397" lon="-25.74936">
					<ele>192</ele>
					<time>0001-01-01T00:00:00Z</time>
				</trkpt>
				<trkpt lat="37.89417" lon="-25.74816">
					<ele>193</ele>
					<time>0001-01-01T00:00:00Z</time>
				</trkpt>
				<trkpt lat="37.89411" lon="-25.74791">
					<ele>192</ele>
					<time>0001-01-01T00:00:00Z</time>
				</trkpt>
				<trkpt lat="37.89406" lon="-25.74783">
					<ele>193</ele>
					<time>0001-01-01T00:00:00Z</time>
				</trkpt>
				<trkpt lat="37.89386" lon="-25.74753">
					<ele>192</ele>
					<time>0001-01-01T00:00:00Z</time>
				</trkpt>
				<trkpt lat="37.89379" lon="-25.74733">
					<ele>193</ele>
					<time>0001-01-01T00:00:00Z</time>
				</trkpt>
				<trkpt lat="37.89372" lon="-25.74671">
					<ele>194</ele>
					<time>0001-01-01T00:00:00Z</time>
				</trkpt>
				<trkpt lat="37.89361" lon="-25.74648">
					<ele>195</ele>
					<time>0001-01-01T00:00:00Z</time>
				</trkpt>
				<trkpt lat="37.89333" lon="-25.74637">
					<ele>195</ele>
					<time>0001-01-01T00:00:00Z</time>
				</trkpt>
				<trkpt lat="37.89304" lon="-25.74639">
					<ele>196</ele>
					<time>0001-01-01T00:00:00Z</time>
				</trkpt>
				<trkpt lat="37.89287" lon="-25.74633">
					<ele>197</ele>
					<time>0001-01-01T00:00:00Z</time>
				</trkpt>
				<trkpt lat="37.89234" lon="-25.74577">
					<ele>195</ele>
					<time>0001-01-01T00:00:00Z</time>
				</trkpt>
				<trkpt lat="37.89230" lon="-25.74575">
					<ele>196</ele>
					<time>0001-01-01T00:00:00Z</time>
				</trkpt>
				<trkpt lat="37.89203" lon="-25.74580">
					<ele>196</ele>
					<time>0001-01-01T00:00:00Z</time>
				</trkpt>
				<trkpt lat="37.89142" lon="-25.74608">
					<ele>199</ele>
					<time>0001-01-01T00:00:00Z</time>
				</trkpt>
				<trkpt lat="37.89067" lon="-25.74619">
					<ele>200</ele>
					<time>0001-01-01T00:00:00Z</time>
				</trkpt>
				<trkpt lat="37.89032" lon="-25.74642">
					<ele>202</ele>
					<time>0001-01-01T00:00:00Z</time>
				</trkpt>
				<trkpt lat="37.89015" lon="-25.74632">
					<ele>202</ele>
					<time>0001-01-01T00:00:00Z</time>
				</trkpt>
				<trkpt lat="37.89004" lon="-25.74581">
					<ele>203</ele>
					<time>0001-01-01T00:00:00Z</time>
				</trkpt>
				<trkpt lat="37.88993" lon="-25.74560">
					<ele>203</ele>
					<time>0001-01-01T00:00:00Z</time>
				</trkpt>
				<trkpt lat="37.88959" lon="-25.74556">
					<ele>203</ele>
					<time>0001-01-01T00:00:00Z</time>
				</trkpt>
				<trkpt lat="37.88910" lon="-25.74547">
					<ele>205</ele>
					<time>0001-01-01T00:00:00Z</time>
				</trkpt>
				<trkpt lat="37.88888" lon="-25.74484">
					<ele>204</ele>
					<time>0001-01-01T00:00:00Z</time>
				</trkpt>
				<trkpt lat="37.88863" lon="-25.74417">
					<ele>207</ele>
					<time>0001-01-01T00:00:00Z</time>
				</trkpt>
				<trkpt lat="37.88789" lon="-25.74340">
					<ele>208</ele>
					<time>0001-01-01T00:00:00Z</time>
				</trkpt>
				<trkpt lat="37.88733" lon="-25.74278">
					<ele>205</ele>
					<time>0001-01-01T00:00:00Z</time>
				</trkpt>
				<trkpt lat="37.88720" lon="-25.74234">
					<ele>206</ele>
					<time>0001-01-01T00:00:00Z</time>
				</trkpt>
				<trkpt lat="37.88704" lon="-25.74192">
					<ele>205</ele>
					<time>0001-01-01T00:00:00Z</time>
				</trkpt>
				<trkpt lat="37.88660" lon="-25.74129">
					<ele>207</ele>
					<time>0001-01-01T00:00:00Z</time>
				</trkpt>
				<trkpt lat="37.88669" lon="-25.74068">
					<ele>206</ele>
					<time>0001-01-01T00:00:00Z</time>
				</trkpt>
				<trkpt lat="37.88690" lon="-25.74056">
					<ele>206</ele>
					<time>0001-01-01T00:00:00Z</time>
				</trkpt>
				<trkpt lat="37.88736" lon="-25.74041">
					<ele>204</ele>
					<time>0001-01-01T00:00:00Z</time>
				</trkpt>
				<trkpt lat="37.88746" lon="-25.74002">
					<ele>203</ele>
					<time>0001-01-01T00:00:00Z</time>
				</trkpt>
				<trkpt lat="37.88736" lon="-25.73987">
					<ele>202</ele>
					<time>0001-01-01T00:00:00Z</time>
				</trkpt>
				<trkpt lat="37.88681" lon="-25.73910">
					<ele>200</ele>
					<time>0001-01-01T00:00:00Z</time>
				</trkpt>
				<trkpt lat="37.88652" lon="-25.73872">
					<ele>198</ele>
					<time>0001-01-01T00:00:00Z</time>
				</trkpt>
				<trkpt lat="37.88607" lon="-25.73832">
					<ele>195</ele>
					<time>0001-01-01T00:00:00Z</time>
				</trkpt>
				<trkpt lat="37.88562" lon="-25.73759">
					<ele>193</ele>
					<time>0001-01-01T00:00:00Z</time>
				</trkpt>
				<trkpt lat="37.88568" lon="-25.73703">
					<ele>191</ele>
					<time>0001-01-01T00:00:00Z</time>
				</trkpt>
				<trkpt lat="37.88573" lon="-25.73696">
					<ele>191</ele>
					<time>0001-01-01T00:00:00Z</time>
				</trkpt>
				<trkpt lat="37.88619" lon="-25.73634">
					<ele>189</ele>
					<time>0001-01-01T00:00:00Z</time>
				</trkpt>
				<trkpt lat="37.88627" lon="-25.73608">
					<ele>189</ele>
					<time>0001-01-01T00:00:00Z</time>
				</trkpt>
				<trkpt lat="37.88613" lon="-25.73498">
					<ele>190</ele>
					<time>0001-01-01T00:00:00Z</time>
				</trkpt>
				<trkpt lat="37.88574" lon="-25.73444">
					<ele>192</ele>
					<time>0001-01-01T00:00:00Z</time>
				</trkpt>
				<trkpt lat="37.88515" lon="-25.73458">
					<ele>189</ele>
					<time>0001-01-01T00:00:00Z</time>
				</trkpt>
				<trkpt lat="37.88497" lon="-25.73463">
					<ele>188</ele>
					<time>0001-01-01T00:00:00Z</time>
				</trkpt>
				<trkpt lat="37.88456" lon="-25.73438">
					<ele>189</ele>
					<time>0001-01-01T00:00:00Z</time>
				</trkpt>
				<trkpt lat="37.88454" lon="-25.73431">
					<ele>189</ele>
					<time>0001-01-01T00:00:00Z</time>
				</trkpt>
				<trkpt lat="37.88416" lon="-25.73271">
					<ele>190</ele>
					<time>0001-01-01T00:00:00Z</time>
				</trkpt>
				<trkpt lat="37.88411" lon="-25.73247">
					<ele>190</ele>
					<time>0001-01-01T00:00:00Z</time>
				</trkpt>
				<trkpt lat="37.88417" lon="-25.73221">
					<ele>191</ele>
					<time>0001-01-01T00:00:00Z</time>
				</trkpt>
				<trkpt lat="37.88422" lon="-25.73209">
					<ele>193</ele>
					<time>0001-01-01T00:00:00Z</time>
				</trkpt>
				<trkpt lat="37.88451" lon="-25.73149">
					<ele>196</ele>
					<time>0001-01-01T00:00:00Z</time>
				</trkpt>
				<trkpt lat="37.88453" lon="-25.73130">
					<ele>197</ele>
					<time>0001-01-01T00:00:00Z</time>
				</trkpt>
				<trkpt lat="37.88446" lon="-25.73080">
					<ele>196</ele>
					<time>0001-01-01T00:00:00Z</time>
				</trkpt>
				<trkpt lat="37.88436" lon="-25.73052">
					<ele>197</ele>
					<time>0001-01-01T00:00:00Z</time>
				</trkpt>
				<trkpt lat="37.88412" lon="-25.73015">
					<ele>196</ele>
					<time>0001-01-01T00:00:00Z</time>
				</trkpt>
				<trkpt lat="37.88372" lon="-25.73006">
					<ele>198</ele>
					<time>0001-01-01T00:00:00Z</time>
				</trkpt>
				<trkpt lat="37.88263" lon="-25.73047">
					<ele>196</ele>
					<time>0001-01-01T00:00:00Z</time>
				</trkpt>
				<trkpt lat="37.88193" lon="-25.73072">
					<ele>199</ele>
					<time>0001-01-01T00:00:00Z</time>
				</trkpt>
				<trkpt lat="37.88178" lon="-25.73068">
					<ele>200</ele>
					<time>0001-01-01T00:00:00Z</time>
				</trkpt>
				<trkpt lat="37.88168" lon="-25.73011">
					<ele>202</ele>
					<time>0001-01-01T00:00:00Z</time>
				</trkpt>
				<trkpt lat="37.88175" lon="-25.73000">
					<ele>203</ele>
					<time>0001-01-01T00:00:00Z</time>
				</trkpt>
				<trkpt lat="37.88239" lon="-25.72909">
					<ele>207</ele>
					<time>0001-01-01T00:00:00Z</time>
				</trkpt>
				<trkpt lat="37.88244" lon="-25.72885">
					<ele>208</ele>
					<time>0001-01-01T00:00:00Z</time>
				</trkpt>
				<trkpt lat="37.88215" lon="-25.72764">
					<ele>205</ele>
					<time>0001-01-01T00:00:00Z</time>
				</trkpt>
				<trkpt lat="37.88172" lon="-25.72635">
					<ele>209</ele>
					<time>0001-01-01T00:00:00Z</time>
				</trkpt>
				<trkpt lat="37.88163" lon="-25.72621">
					<ele>209</ele>
					<time>0001-01-01T00:00:00Z</time>
				</trkpt>
				<trkpt lat="37.88150" lon="-25.72611">
					<ele>208</ele>
					<time>0001-01-01T00:00:00Z</time>
				</trkpt>
				<trkpt lat="37.88064" lon="-25.72560">
					<ele>211</ele>
					<time>0001-01-01T00:00:00Z</time>
				</trkpt>
				<trkpt lat="37.87980" lon="-25.72510">
					<ele>213</ele>
					<time>0001-01-01T00:00:00Z</time>
				</trkpt>
				<trkpt lat="37.87963" lon="-25.72503">
					<ele>213</ele>
					<time>0001-01-01T00:00:00Z</time>
				</trkpt>
				<trkpt lat="37.87929" lon="-25.72507">
					<ele>213</ele>
					<time>0001-01-01T00:00:00Z</time>
				</trkpt>
				<trkpt lat="37.87868" lon="-25.72555">
					<ele>213</ele>
					<time>0001-01-01T00:00:00Z</time>
				</trkpt>
				<trkpt lat="37.87816" lon="-25.72631">
					<ele>214</ele>
					<time>0001-01-01T00:00:00Z</time>
				</trkpt>
				<trkpt lat="37.87797" lon="-25.72648">
					<ele>214</ele>
					<time>0001-01-01T00:00:00Z</time>
				</trkpt>
				<trkpt lat="37.87759" lon="-25.72635">
					<ele>215</ele>
					<time>0001-01-01T00:00:00Z</time>
				</trkpt>
				<trkpt lat="37.87682" lon="-25.72552">
					<ele>214</ele>
					<time>0001-01-01T00:00:00Z</time>
				</trkpt>
				<trkpt lat="37.87674" lon="-25.72541">
					<ele>214</ele>
					<time>0001-01-01T00:00:00Z</time>
				</trkpt>
				<trkpt lat="37.87675" lon="-25.72504">
					<ele>215</ele>
					<time>0001-01-01T00:00:00Z</time>
				</trkpt>
				<trkpt lat="37.87718" lon="-25.72416">
					<ele>219</ele>
					<time>0001-01-01T00:00:00Z</time>
				</trkpt>
				<trkpt lat="37.87702" lon="-25.72369">
					<ele>218</ele>
					<time>0001-01-01T00:00:00Z</time>
				</trkpt>
				<trkpt lat="37.87676" lon="-25.72360">
					<ele>218</ele>
					<time>0001-01-01T00:00:00Z</time>
				</trkpt>
				<trkpt lat="37.87606" lon="-25.72347">
					<ele>216</ele>
					<time>0001-01-01T00:00:00Z</time>
				</trkpt>
				<trkpt lat="37.87577" lon="-25.72309">
					<ele>216</ele>
					<time>0001-01-01T00:00:00Z</time>
				</trkpt>
				<trkpt lat="37.87576" lon="-25.72290">
					<ele>216</ele>
					<time>0001-01-01T00:00:00Z</time>
				</trkpt>
				<trkpt lat="37.87576" lon="-25.72209">
					<ele>215</ele>
					<time>0001-01-01T00:00:00Z</time>
				</trkpt>
				<trkpt lat="37.87572" lon="-25.72190">
					<ele>215</ele>
					<time>0001-01-01T00:00:00Z</time>
				</trkpt>
				<trkpt lat="37.87557" lon="-25.72157">
					<ele>216</ele>
					<time>0001-01-01T00:00:00Z</time>
				</trkpt>
				<trkpt lat="37.87439" lon="-25.72010">
					<ele>211</ele>
					<time>0001-01-01T00:00:00Z</time>
				</trkpt>
				<trkpt lat="37.87428" lon="-25.71995">
					<ele>210</ele>
					<time>0001-01-01T00:00:00Z</time>
				</trkpt>
				<trkpt lat="37.87423" lon="-25.71952">
					<ele>210</ele>
					<time>0001-01-01T00:00:00Z</time>
				</trkpt>
				<trkpt lat="37.87432" lon="-25.71857">
					<ele>208</ele>
					<time>0001-01-01T00:00:00Z</time>
				</trkpt>
				<trkpt lat="37.87421" lon="-25.71830">
					<ele>207</ele>
					<time>0001-01-01T00:00:00Z</time>
				</trkpt>
				<trkpt lat="37.87309" lon="-25.71741">
					<ele>201</ele>
					<time>0001-01-01T00:00:00Z</time>
				</trkpt>
				<trkpt lat="37.87286" lon="-25.71723">
					<ele>200</ele>
					<time>0001-01-01T00:00:00Z</time>
				</trkpt>
				<trkpt lat="37.87258" lon="-25.71677">
					<ele>198</ele>
					<time>0001-01-01T00:00:00Z</time>
				</trkpt>
				<trkpt lat="37.87210" lon="-25.71514">
					<ele>195</ele>
					<time>0001-01-01T00:00:00Z</time>
				</trkpt>
				<trkpt lat="37.87188" lon="-25.71451">
					<ele>194</ele>
					<time>0001-01-01T00:00:00Z</time>
				</trkpt>
				<trkpt lat="37.87144" lon="-25.71426">
					<ele>194</ele>
					<time>0001-01-01T00:00:00Z</time>
				</trkpt>
				<trkpt lat="37.87027" lon="-25.71409">
					<ele>191</ele>
					<time>0001-01-01T00:00:00Z</time>
				</trkpt>
				<trkpt lat="37.86993" lon="-25.71378">
					<ele>189</ele>
					<time>0001-01-01T00:00:00Z</time>
				</trkpt>
				<trkpt lat="37.86843" lon="-25.71153">
					<ele>178</ele>
					<time>0001-01-01T00:00:00Z</time>
				</trkpt>
				<trkpt lat="37.86761" lon="-25.71032">
					<ele>173</ele>
					<time>0001-01-01T00:00:00Z</time>
				</trkpt>
				<trkpt lat="37.86652" lon="-25.70931">
					<ele>164</ele>
					<time>0001-01-01T00:00:00Z</time>
				</trkpt>
				<trkpt lat="37.86616" lon="-25.70899">
					<ele>162</ele>
					<time>0001-01-01T00:00:00Z</time>
				</trkpt>
				<trkpt lat="37.86589" lon="-25.70860">
					<ele>161</ele>
					<time>0001-01-01T00:00:00Z</time>
				</trkpt>
				<trkpt lat="37.86544" lon="-25.70812">
					<ele>158</ele>
					<time>0001-01-01T00:00:00Z</time>
				</trkpt>
				<trkpt lat="37.86435" lon="-25.70761">
					<ele>154</ele>
					<time>0001-01-01T00:00:00Z</time>
				</trkpt>
				<trkpt lat="37.86419" lon="-25.70746">
					<ele>152</ele>
					<time>0001-01-01T00:00:00Z</time>
				</trkpt>
				<trkpt lat="37.86409" lon="-25.70743">
					<ele>152</ele>
					<time>0001-01-01T00:00:00Z</time>
				</trkpt>
				<trkpt lat="37.86411" lon="-25.70749">
					<ele>157</ele>
					<time>0001-01-01T00:00:00Z</time>
				</trkpt>
				<trkpt lat="37.86405" lon="-25.70755">
					<ele>156</ele>
					<time>0001-01-01T00:00:00Z</time>
				</trkpt>
				<trkpt lat="37.86398" lon="-25.70758">
					<ele>156</ele>
					<time>0001-01-01T00:00:00Z</time>
				</trkpt>
				<trkpt lat="37.86357" lon="-25.70781">
					<ele>155</ele>
					<time>0001-01-01T00:00:00Z</time>
				</trkpt>
				<trkpt lat="37.86331" lon="-25.70785">
					<ele>154</ele>
					<time>0001-01-01T00:00:00Z</time>
				</trkpt>
				<trkpt lat="37.86238" lon="-25.70772">
					<ele>152</ele>
					<time>0001-01-01T00:00:00Z</time>
				</trkpt>
				<trkpt lat="37.86185" lon="-25.70739">
					<ele>149</ele>
					<time>0001-01-01T00:00:00Z</time>
				</trkpt>
				<trkpt lat="37.86165" lon="-25.70718">
					<ele>148</ele>
					<time>0001-01-01T00:00:00Z</time>
				</trkpt>
				<trkpt lat="37.86107" lon="-25.70703">
					<ele>146</ele>
					<time>0001-01-01T00:00:00Z</time>
				</trkpt>
				<trkpt lat="37.86066" lon="-25.70706">
					<ele>145</ele>
					<time>0001-01-01T00:00:00Z</time>
				</trkpt>
				<trkpt lat="37.85977" lon="-25.70663">
					<ele>143</ele>
					<time>0001-01-01T00:00:00Z</time>
				</trkpt>
				<trkpt lat="37.85942" lon="-25.70665">
					<ele>141</ele>
					<time>0001-01-01T00:00:00Z</time>
				</trkpt>
				<trkpt lat="37.85899" lon="-25.70680">
					<ele>139</ele>
					<time>0001-01-01T00:00:00Z</time>
				</trkpt>
				<trkpt lat="37.85813" lon="-25.70668">
					<ele>137</ele>
					<time>0001-01-01T00:00:00Z</time>
				</trkpt>
				<trkpt lat="37.85775" lon="-25.70661">
					<ele>134</ele>
					<time>0001-01-01T00:00:00Z</time>
				</trkpt>
				<trkpt lat="37.85745" lon="-25.70674">
					<ele>133</ele>
					<time>0001-01-01T00:00:00Z</time>
				</trkpt>
				<trkpt lat="37.85729" lon="-25.70684">
					<ele>132</ele>
					<time>0001-01-01T00:00:00Z</time>
				</trkpt>
				<trkpt lat="37.85687" lon="-25.70678">
					<ele>130</ele>
					<time>0001-01-01T00:00:00Z</time>
				</trkpt>
				<trkpt lat="37.85599" lon="-25.70589">
					<ele>126</ele>
					<time>0001-01-01T00:00:00Z</time>
				</trkpt>
				<trkpt lat="37.85576" lon="-25.70553">
					<ele>126</ele>
					<time>0001-01-01T00:00:00Z</time>
				</trkpt>
				<trkpt lat="37.85534" lon="-25.70526">
					<ele>123</ele>
					<time>0001-01-01T00:00:00Z</time>
				</trkpt>
				<trkpt lat="37.85392" lon="-25.70495">
					<ele>117</ele>
					<time>0001-01-01T00:00:00Z</time>
				</trkpt>
				<trkpt lat="37.85365" lon="-25.70445">
					<ele>114</ele>
					<time>0001-01-01T00:00:00Z</time>
				</trkpt>
				<trkpt lat="37.85373" lon="-25.70425">
					<ele>114</ele>
					<time>0001-01-01T00:00:00Z</time>
				</trkpt>
				<trkpt lat="37.85381" lon="-25.70405">
					<ele>113</ele>
					<time>0001-01-01T00:00:00Z</time>
				</trkpt>
				<trkpt lat="37.85370" lon="-25.70348">
					<ele>112</ele>
					<time>0001-01-01T00:00:00Z</time>
				</trkpt>
				<trkpt lat="37.85298" lon="-25.70290">
					<ele>112</ele>
					<time>0001-01-01T00:00:00Z</time>
				</trkpt>
				<trkpt lat="37.85254" lon="-25.70292">
					<ele>113</ele>
					<time>0001-01-01T00:00:00Z</time>
				</trkpt>
				<trkpt lat="37.85213" lon="-25.70326">
					<ele>114</ele>
					<time>0001-01-01T00:00:00Z</time>
				</trkpt>
				<trkpt lat="37.85165" lon="-25.70308">
					<ele>114</ele>
					<time>0001-01-01T00:00:00Z</time>
				</trkpt>
				<trkpt lat="37.85082" lon="-25.70205">
					<ele>115</ele>
					<time>0001-01-01T00:00:00Z</time>
				</trkpt>
				<trkpt lat="37.84973" lon="-25.70169">
					<ele>111</ele>
					<time>0001-01-01T00:00:00Z</time>
				</trkpt>
				<trkpt lat="37.84881" lon="-25.70109">
					<ele>108</ele>
					<time>0001-01-01T00:00:00Z</time>
				</trkpt>
				<trkpt lat="37.84690" lon="-25.69945">
					<ele>104</ele>
					<time>0001-01-01T00:00:00Z</time>
				</trkpt>
				<trkpt lat="37.84677" lon="-25.69932">
					<ele>103</ele>
					<time>0001-01-01T00:00:00Z</time>
				</trkpt>
				<trkpt lat="37.84573" lon="-25.69788">
					<ele>104</ele>
					<time>0001-01-01T00:00:00Z</time>
				</trkpt>
				<trkpt lat="37.84494" lon="-25.69736">
					<ele>104</ele>
					<time>0001-01-01T00:00:00Z</time>
				</trkpt>
				<trkpt lat="37.84420" lon="-25.69731">
					<ele>101</ele>
					<time>0001-01-01T00:00:00Z</time>
				</trkpt>
				<trkpt lat="37.84404" lon="-25.69733">
					<ele>103</ele>
					<time>0001-01-01T00:00:00Z</time>
				</trkpt>
				<trkpt lat="37.84394" lon="-25.69737">
					<ele>101</ele>
					<time>0001-01-01T00:00:00Z</time>
				</trkpt>
				<trkpt lat="37.84378" lon="-25.69733">
					<ele>100</ele>
					<time>0001-01-01T00:00:00Z</time>
				</trkpt>
				<trkpt lat="37.84307" lon="-25.69680">
					<ele>99</ele>
					<time>0001-01-01T00:00:00Z</time>
				</trkpt>
				<trkpt lat="37.84236" lon="-25.69721">
					<ele>98</ele>
					<time>0001-01-01T00:00:00Z</time>
				</trkpt>
				<trkpt lat="37.84184" lon="-25.69759">
					<ele>97</ele>
					<time>0001-01-01T00:00:00Z</time>
				</trkpt>
				<trkpt lat="37.84157" lon="-25.69755">
					<ele>96</ele>
					<time>0001-01-01T00:00:00Z</time>
				</trkpt>
				<trkpt lat="37.84109" lon="-25.69662">
					<ele>97</ele>
					<time>0001-01-01T00:00:00Z</time>
				</trkpt>
				<trkpt lat="37.84045" lon="-25.69516">
					<ele>92</ele>
					<time>0001-01-01T00:00:00Z</time>
				</trkpt>
				<trkpt lat="37.84022" lon="-25.69483">
					<ele>91</ele>
					<time>0001-01-01T00:00:00Z</time>
				</trkpt>
				<trkpt lat="37.83978" lon="-25.69446">
					<ele>88</ele>
					<time>0001-01-01T00:00:00Z</time>
				</trkpt>
				<trkpt lat="37.83947" lon="-25.69405">
					<ele>85</ele>
					<time>0001-01-01T00:00:00Z</time>
				</trkpt>
				<trkpt lat="37.83918" lon="-25.69378">
					<ele>85</ele>
					<time>0001-01-01T00:00:00Z</time>
				</trkpt>
				<trkpt lat="37.83774" lon="-25.69307">
					<ele>80</ele>
					<time>0001-01-01T00:00:00Z</time>
				</trkpt>
				<trkpt lat="37.83751" lon="-25.69298">
					<ele>81</ele>
					<time>0001-01-01T00:00:00Z</time>
				</trkpt>
				<trkpt lat="37.83702" lon="-25.69307">
					<ele>81</ele>
					<time>0001-01-01T00:00:00Z</time>
				</trkpt>
				<trkpt lat="37.83602" lon="-25.69295">
					<ele>80</ele>
					<time>0001-01-01T00:00:00Z</time>
				</trkpt>
				<trkpt lat="37.83546" lon="-25.69296">
					<ele>81</ele>
					<time>0001-01-01T00:00:00Z</time>
				</trkpt>
				<trkpt lat="37.83510" lon="-25.69276">
					<ele>80</ele>
					<time>0001-01-01T00:00:00Z</time>
				</trkpt>
				<trkpt lat="37.83438" lon="-25.69215">
					<ele>79</ele>
					<time>0001-01-01T00:00:00Z</time>
				</trkpt>
				<trkpt lat="37.83416" lon="-25.69181">
					<ele>77</ele>
					<time>0001-01-01T00:00:00Z</time>
				</trkpt>
				<trkpt lat="37.83340" lon="-25.69022">
					<ele>72</ele>
					<time>0001-01-01T00:00:00Z</time>
				</trkpt>
				<trkpt lat="37.83317" lon="-25.68985">
					<ele>70</ele>
					<time>0001-01-01T00:00:00Z</time>
				</trkpt>
				<trkpt lat="37.83303" lon="-25.68942">
					<ele>68</ele>
					<time>0001-01-01T00:00:00Z</time>
				</trkpt>
				<trkpt lat="37.83290" lon="-25.68854">
					<ele>64</ele>
					<time>0001-01-01T00:00:00Z</time>
				</trkpt>
				<trkpt lat="37.83286" lon="-25.68846">
					<ele>64</ele>
					<time>0001-01-01T00:00:00Z</time>
				</trkpt>
				<trkpt lat="37.83255" lon="-25.68815">
					<ele>62</ele>
					<time>0001-01-01T00:00:00Z</time>
				</trkpt>
				<trkpt lat="37.83196" lon="-25.68775">
					<ele>61</ele>
					<time>0001-01-01T00:00:00Z</time>
				</trkpt>
				<trkpt lat="37.83174" lon="-25.68739">
					<ele>60</ele>
					<time>0001-01-01T00:00:00Z</time>
				</trkpt>
				<trkpt lat="37.83165" lon="-25.68693">
					<ele>58</ele>
					<time>0001-01-01T00:00:00Z</time>
				</trkpt>
				<trkpt lat="37.83160" lon="-25.68555">
					<ele>62</ele>
					<time>0001-01-01T00:00:00Z</time>
				</trkpt>
				<trkpt lat="37.83154" lon="-25.68373">
					<ele>59</ele>
					<time>0001-01-01T00:00:00Z</time>
				</trkpt>
				<trkpt lat="37.83150" lon="-25.68267">
					<ele>57</ele>
					<time>0001-01-01T00:00:00Z</time>
				</trkpt>
				<trkpt lat="37.83139" lon="-25.68230">
					<ele>57</ele>
					<time>0001-01-01T00:00:00Z</time>
				</trkpt>
				<trkpt lat="37.83107" lon="-25.68163">
					<ele>57</ele>
					<time>0001-01-01T00:00:00Z</time>
				</trkpt>
				<trkpt lat="37.83080" lon="-25.68108">
					<ele>54</ele>
					<time>0001-01-01T00:00:00Z</time>
				</trkpt>
				<trkpt lat="37.83045" lon="-25.68028">
					<ele>52</ele>
					<time>0001-01-01T00:00:00Z</time>
				</trkpt>
				<trkpt lat="37.83031" lon="-25.67897">
					<ele>56</ele>
					<time>0001-01-01T00:00:00Z</time>
				</trkpt>
				<trkpt lat="37.83041" lon="-25.67786">
					<ele>57</ele>
					<time>0001-01-01T00:00:00Z</time>
				</trkpt>
				<trkpt lat="37.83036" lon="-25.67670">
					<ele>56</ele>
					<time>0001-01-01T00:00:00Z</time>
				</trkpt>
				<trkpt lat="37.83021" lon="-25.67534">
					<ele>56</ele>
					<time>0001-01-01T00:00:00Z</time>
				</trkpt>
				<trkpt lat="37.83019" lon="-25.67506">
					<ele>55</ele>
					<time>0001-01-01T00:00:00Z</time>
				</trkpt>
				<trkpt lat="37.83012" lon="-25.67394">
					<ele>55</ele>
					<time>0001-01-01T00:00:00Z</time>
				</trkpt>
				<trkpt lat="37.83005" lon="-25.67248">
					<ele>48</ele>
					<time>0001-01-01T00:00:00Z</time>
				</trkpt>
				<trkpt lat="37.82992" lon="-25.67068">
					<ele>38</ele>
					<time>0001-01-01T00:00:00Z</time>
				</trkpt>
				<trkpt lat="37.82977" lon="-25.66852">
					<ele>34</ele>
					<time>0001-01-01T00:00:00Z</time>
				</trkpt>
				<trkpt lat="37.82962" lon="-25.66630">
					<ele>35</ele>
					<time>0001-01-01T00:00:00Z</time>
				</trkpt>
				<trkpt lat="37.82950" lon="-25.66421">
					<ele>40</ele>
					<time>0001-01-01T00:00:00Z</time>
				</trkpt>
				<trkpt lat="37.82936" lon="-25.66208">
					<ele>41</ele>
					<time>0001-01-01T00:00:00Z</time>
				</trkpt>
				<trkpt lat="37.82924" lon="-25.66012">
					<ele>45</ele>
					<time>0001-01-01T00:00:00Z</time>
				</trkpt>
				<trkpt lat="37.82914" lon="-25.65847">
					<ele>43</ele>
					<time>0001-01-01T00:00:00Z</time>
				</trkpt>
				<trkpt lat="37.82901" lon="-25.65669">
					<ele>39</ele>
					<time>0001-01-01T00:00:00Z</time>
				</trkpt>
				<trkpt lat="37.82891" lon="-25.65520">
					<ele>40</ele>
					<time>0001-01-01T00:00:00Z</time>
				</trkpt>
				<trkpt lat="37.82880" lon="-25.65361">
					<ele>42</ele>
					<time>0001-01-01T00:00:00Z</time>
				</trkpt>
				<trkpt lat="37.82870" lon="-25.65220">
					<ele>46</ele>
					<time>0001-01-01T00:00:00Z</time>
				</trkpt>
				<trkpt lat="37.82862" lon="-25.65076">
					<ele>51</ele>
					<time>0001-01-01T00:00:00Z</time>
				</trkpt>
				<trkpt lat="37.82851" lon="-25.64921">
					<ele>48</ele>
					<time>0001-01-01T00:00:00Z</time>
				</trkpt>
				<trkpt lat="37.82839" lon="-25.64737">
					<ele>44</ele>
					<time>0001-01-01T00:00:00Z</time>
				</trkpt>
				<trkpt lat="37.82823" lon="-25.64505">
					<ele>40</ele>
					<time>0001-01-01T00:00:00Z</time>
				</trkpt>
				<trkpt lat="37.82811" lon="-25.64313">
					<ele>38</ele>
					<time>0001-01-01T00:00:00Z</time>
				</trkpt>
				<trkpt lat="37.82804" lon="-25.64188">
					<ele>38</ele>
					<time>0001-01-01T00:00:00Z</time>
				</trkpt>
				<trkpt lat="37.82798" lon="-25.64093">
					<ele>37</ele>
					<time>0001-01-01T00:00:00Z</time>
				</trkpt>
				<trkpt lat="37.82789" lon="-25.64023">
					<ele>38</ele>
					<time>0001-01-01T00:00:00Z</time>
				</trkpt>
				<trkpt lat="37.82779" lon="-25.63925">
					<ele>40</ele>
					<time>0001-01-01T00:00:00Z</time>
				</trkpt>
				<trkpt lat="37.82779" lon="-25.63922">
					<ele>40</ele>
					<time>0001-01-01T00:00:00Z</time>
				</trkpt>
				<trkpt lat="37.82777" lon="-25.63911">
					<ele>43</ele>
					<time>0001-01-01T00:00:00Z</time>
				</trkpt>
				<trkpt lat="37.82774" lon="-25.63867">
					<ele>48</ele>
					<time>0001-01-01T00:00:00Z</time>
				</trkpt>
				<trkpt lat="37.82771" lon="-25.63815">
					<ele>47</ele>
					<time>0001-01-01T00:00:00Z</time>
				</trkpt>
				<trkpt lat="37.82766" lon="-25.63753">
					<ele>47</ele>
					<time>0001-01-01T00:00:00Z</time>
				</trkpt>
				<trkpt lat="37.82756" lon="-25.63652">
					<ele>46</ele>
					<time>0001-01-01T00:00:00Z</time>
				</trkpt>
				<trkpt lat="37.82739" lon="-25.63470">
					<ele>43</ele>
					<time>0001-01-01T00:00:00Z</time>
				</trkpt>
				<trkpt lat="37.82718" lon="-25.63246">
					<ele>42</ele>
					<time>0001-01-01T00:00:00Z</time>
				</trkpt>
				<trkpt lat="37.82698" lon="-25.63031">
					<ele>42</ele>
					<time>0001-01-01T00:00:00Z</time>
				</trkpt>
				<trkpt lat="37.82678" lon="-25.62817">
					<ele>43</ele>
					<time>0001-01-01T00:00:00Z</time>
				</trkpt>
				<trkpt lat="37.82661" lon="-25.62631">
					<ele>43</ele>
					<time>0001-01-01T00:00:00Z</time>
				</trkpt>
				<trkpt lat="37.82646" lon="-25.62473">
					<ele>44</ele>
					<time>0001-01-01T00:00:00Z</time>
				</trkpt>
				<trkpt lat="37.82632" lon="-25.62311">
					<ele>46</ele>
					<time>0001-01-01T00:00:00Z</time>
				</trkpt>
				<trkpt lat="37.82604" lon="-25.62183">
					<ele>43</ele>
					<time>0001-01-01T00:00:00Z</time>
				</trkpt>
				<trkpt lat="37.82544" lon="-25.62030">
					<ele>38</ele>
					<time>0001-01-01T00:00:00Z</time>
				</trkpt>
				<trkpt lat="37.82465" lon="-25.61831">
					<ele>35</ele>
					<time>0001-01-01T00:00:00Z</time>
				</trkpt>
				<trkpt lat="37.82383" lon="-25.61625">
					<ele>33</ele>
					<time>0001-01-01T00:00:00Z</time>
				</trkpt>
				<trkpt lat="37.82323" lon="-25.61474">
					<ele>33</ele>
					<time>0001-01-01T00:00:00Z</time>
				</trkpt>
				<trkpt lat="37.82266" lon="-25.61328">
					<ele>32</ele>
					<time>0001-01-01T00:00:00Z</time>
				</trkpt>
				<trkpt lat="37.82199" lon="-25.61129">
					<ele>31</ele>
					<time>0001-01-01T00:00:00Z</time>
				</trkpt>
				<trkpt lat="37.82134" lon="-25.60930">
					<ele>31</ele>
					<time>0001-01-01T00:00:00Z</time>
				</trkpt>
				<trkpt lat="37.82086" lon="-25.60785">
					<ele>30</ele>
					<time>0001-01-01T00:00:00Z</time>
				</trkpt>
				<trkpt lat="37.82070" lon="-25.60735">
					<ele>30</ele>
					<time>0001-01-01T00:00:00Z</time>
				</trkpt>
				<trkpt lat="37.82024" lon="-25.60595">
					<ele>27</ele>
					<time>0001-01-01T00:00:00Z</time>
				</trkpt>
				<trkpt lat="37.81968" lon="-25.60428">
					<ele>24</ele>
					<time>0001-01-01T00:00:00Z</time>
				</trkpt>
				<trkpt lat="37.81898" lon="-25.60214">
					<ele>25</ele>
					<time>0001-01-01T00:00:00Z</time>
				</trkpt>
				<trkpt lat="37.81834" lon="-25.60019">
					<ele>25</ele>
					<time>0001-01-01T00:00:00Z</time>
				</trkpt>
				<trkpt lat="37.81779" lon="-25.59852">
					<ele>24</ele>
					<time>0001-01-01T00:00:00Z</time>
				</trkpt>
				<trkpt lat="37.81756" lon="-25.59771">
					<ele>24</ele>
					<time>0001-01-01T00:00:00Z</time>
				</trkpt>
				<trkpt lat="37.81732" lon="-25.59781">
					<ele>24</ele>
					<time>0001-01-01T00:00:00Z</time>
				</trkpt>
				<trkpt lat="37.81628" lon="-25.59828">
					<ele>28</ele>
					<time>0001-01-01T00:00:00Z</time>
				</trkpt>
				<trkpt lat="37.81517" lon="-25.59877">
					<ele>32</ele>
					<time>0001-01-01T00:00:00Z</time>
				</trkpt>
				<trkpt lat="37.81411" lon="-25.59925">
					<ele>35</ele>
					<time>0001-01-01T00:00:00Z</time>
				</trkpt>
				<trkpt lat="37.81294" lon="-25.59987">
					<ele>39</ele>
					<time>0001-01-01T00:00:00Z</time>
				</trkpt>
				<trkpt lat="37.81168" lon="-25.60055">
					<ele>45</ele>
					<time>0001-01-01T00:00:00Z</time>
				</trkpt>
				<trkpt lat="37.81045" lon="-25.60123">
					<ele>49</ele>
					<time>0001-01-01T00:00:00Z</time>
				</trkpt>
				<trkpt lat="37.80942" lon="-25.60176">
					<ele>52</ele>
					<time>0001-01-01T00:00:00Z</time>
				</trkpt>
				<trkpt lat="37.80812" lon="-25.60247">
					<ele>56</ele>
					<time>0001-01-01T00:00:00Z</time>
				</trkpt>
				<trkpt lat="37.80730" lon="-25.60290">
					<ele>61</ele>
					<time>0001-01-01T00:00:00Z</time>
				</trkpt>
				<trkpt lat="37.80646" lon="-25.60329">
					<ele>66</ele>
					<time>0001-01-01T00:00:00Z</time>
				</trkpt>
				<trkpt lat="37.80533" lon="-25.60385">
					<ele>69</ele>
					<time>0001-01-01T00:00:00Z</time>
				</trkpt>
				<trkpt lat="37.80439" lon="-25.60422">
					<ele>74</ele>
					<time>0001-01-01T00:00:00Z</time>
				</trkpt>
				<trkpt lat="37.80350" lon="-25.60470">
					<ele>81</ele>
					<time>0001-01-01T00:00:00Z</time>
				</trkpt>
				<trkpt lat="37.80283" lon="-25.60502">
					<ele>87</ele>
					<time>0001-01-01T00:00:00Z</time>
				</trkpt>
				<trkpt lat="37.80235" lon="-25.60525">
					<ele>91</ele>
					<time>0001-01-01T00:00:00Z</time>
				</trkpt>
				<trkpt lat="37.80161" lon="-25.60559">
					<ele>92</ele>
					<time>0001-01-01T00:00:00Z</time>
				</trkpt>
				<trkpt lat="37.80094" lon="-25.60591">
					<ele>93</ele>
					<time>0001-01-01T00:00:00Z</time>
				</trkpt>
				<trkpt lat="37.80064" lon="-25.60606">
					<ele>94</ele>
					<time>0001-01-01T00:00:00Z</time>
				</trkpt>
				<trkpt lat="37.80021" lon="-25.60613">
					<ele>97</ele>
					<time>0001-01-01T00:00:00Z</time>
				</trkpt>
				<trkpt lat="37.79924" lon="-25.60617">
					<ele>105</ele>
					<time>0001-01-01T00:00:00Z</time>
				</trkpt>
				<trkpt lat="37.79817" lon="-25.60620">
					<ele>110</ele>
					<time>0001-01-01T00:00:00Z</time>
				</trkpt>
				<trkpt lat="37.79708" lon="-25.60646">
					<ele>113</ele>
					<time>0001-01-01T00:00:00Z</time>
				</trkpt>
				<trkpt lat="37.79589" lon="-25.60685">
					<ele>116</ele>
					<time>0001-01-01T00:00:00Z</time>
				</trkpt>
				<trkpt lat="37.79495" lon="-25.60743">
					<ele>121</ele>
					<time>0001-01-01T00:00:00Z</time>
				</trkpt>
				<trkpt lat="37.79365" lon="-25.60848">
					<ele>124</ele>
					<time>0001-01-01T00:00:00Z</time>
				</trkpt>
				<trkpt lat="37.79289" lon="-25.60911">
					<ele>130</ele>
					<time>0001-01-01T00:00:00Z</time>
				</trkpt>
				<trkpt lat="37.79231" lon="-25.60959">
					<ele>135</ele>
					<time>0001-01-01T00:00:00Z</time>
				</trkpt>
				<trkpt lat="37.79170" lon="-25.60999">
					<ele>140</ele>
					<time>0001-01-01T00:00:00Z</time>
				</trkpt>
				<trkpt lat="37.79091" lon="-25.60996">
					<ele>144</ele>
					<time>0001-01-01T00:00:00Z</time>
				</trkpt>
				<trkpt lat="37.79006" lon="-25.60967">
					<ele>148</ele>
					<time>0001-01-01T00:00:00Z</time>
				</trkpt>
				<trkpt lat="37.78888" lon="-25.60924">
					<ele>152</ele>
					<time>0001-01-01T00:00:00Z</time>
				</trkpt>
				<trkpt lat="37.78809" lon="-25.60861">
					<ele>156</ele>
					<time>0001-01-01T00:00:00Z</time>
				</trkpt>
				<trkpt lat="37.78766" lon="-25.60822">
					<ele>160</ele>
					<time>0001-01-01T00:00:00Z</time>
				</trkpt>
				<trkpt lat="37.78720" lon="-25.60780">
					<ele>164</ele>
					<time>0001-01-01T00:00:00Z</time>
				</trkpt>
				<trkpt lat="37.78652" lon="-25.60727">
					<ele>170</ele>
					<time>0001-01-01T00:00:00Z</time>
				</trkpt>
				<trkpt lat="37.78577" lon="-25.60678">
					<ele>177</ele>
					<time>0001-01-01T00:00:00Z</time>
				</trkpt>
				<trkpt lat="37.78541" lon="-25.60654">
					<ele>182</ele>
					<time>0001-01-01T00:00:00Z</time>
				</trkpt>
				<trkpt lat="37.78510" lon="-25.60645">
					<ele>187</ele>
					<time>0001-01-01T00:00:00Z</time>
				</trkpt>
				<trkpt lat="37.78503" lon="-25.60647">
					<ele>187</ele>
					<time>0001-01-01T00:00:00Z</time>
				</trkpt>
				<trkpt lat="37.78436" lon="-25.60694">
					<ele>189</ele>
					<time>0001-01-01T00:00:00Z</time>
				</trkpt>
				<trkpt lat="37.78328" lon="-25.60739">
					<ele>189</ele>
					<time>0001-01-01T00:00:00Z</time>
				</trkpt>
				<trkpt lat="37.78222" lon="-25.60781">
					<ele>189</ele>
					<time>0001-01-01T00:00:00Z</time>
				</trkpt>
				<trkpt lat="37.78188" lon="-25.60758">
					<ele>189</ele>
					<time>0001-01-01T00:00:00Z</time>
				</trkpt>
				<trkpt lat="37.78184" lon="-25.60741">
					<ele>189</ele>
					<time>0001-01-01T00:00:00Z</time>
				</trkpt>
				<trkpt lat="37.78154" lon="-25.60619">
					<ele>193</ele>
					<time>0001-01-01T00:00:00Z</time>
				</trkpt>
				<trkpt lat="37.78136" lon="-25.60543">
					<ele>198</ele>
					<time>0001-01-01T00:00:00Z</time>
				</trkpt>
				<trkpt lat="37.78107" lon="-25.60433">
					<ele>205</ele>
					<time>0001-01-01T00:00:00Z</time>
				</trkpt>
				<trkpt lat="37.78070" lon="-25.60320">
					<ele>204</ele>
					<time>0001-01-01T00:00:00Z</time>
				</trkpt>
				<trkpt lat="37.77992" lon="-25.60190">
					<ele>202</ele>
					<time>0001-01-01T00:00:00Z</time>
				</trkpt>
				<trkpt lat="37.77973" lon="-25.60154">
					<ele>201</ele>
					<time>0001-01-01T00:00:00Z</time>
				</trkpt>
				<trkpt lat="37.77959" lon="-25.60136">
					<ele>201</ele>
					<time>0001-01-01T00:00:00Z</time>
				</trkpt>
				<trkpt lat="37.77952" lon="-25.60096">
					<ele>200</ele>
					<time>0001-01-01T00:00:00Z</time>
				</trkpt>
				<trkpt lat="37.77955" lon="-25.60080">
					<ele>199</ele>
					<time>0001-01-01T00:00:00Z</time>
				</trkpt>
				<trkpt lat="37.77954" lon="-25.60045">
					<ele>199</ele>
					<time>0001-01-01T00:00:00Z</time>
				</trkpt>
				<trkpt lat="37.77921" lon="-25.59837">
					<ele>192</ele>
					<time>0001-01-01T00:00:00Z</time>
				</trkpt>
				<trkpt lat="37.77902" lon="-25.59695">
					<ele>184</ele>
					<time>0001-01-01T00:00:00Z</time>
				</trkpt>
				<trkpt lat="37.77884" lon="-25.59564">
					<ele>187</ele>
					<time>0001-01-01T00:00:00Z</time>
				</trkpt>
				<trkpt lat="37.77876" lon="-25.59508">
					<ele>189</ele>
					<time>0001-01-01T00:00:00Z</time>
				</trkpt>
				<trkpt lat="37.77861" lon="-25.59396">
					<ele>194</ele>
					<time>0001-01-01T00:00:00Z</time>
				</trkpt>
				<trkpt lat="37.77848" lon="-25.59293">
					<ele>201</ele>
					<time>0001-01-01T00:00:00Z</time>
				</trkpt>
				<trkpt lat="37.77831" lon="-25.59168">
					<ele>205</ele>
					<time>0001-01-01T00:00:00Z</time>
				</trkpt>
				<trkpt lat="37.77812" lon="-25.59048">
					<ele>207</ele>
					<time>0001-01-01T00:00:00Z</time>
				</trkpt>
				<trkpt lat="37.77784" lon="-25.58884">
					<ele>209</ele>
					<time>0001-01-01T00:00:00Z</time>
				</trkpt>
				<trkpt lat="37.77753" lon="-25.58700">
					<ele>214</ele>
					<time>0001-01-01T00:00:00Z</time>
				</trkpt>
				<trkpt lat="37.77728" lon="-25.58540">
					<ele>214</ele>
					<time>0001-01-01T00:00:00Z</time>
				</trkpt>
				<trkpt lat="37.77694" lon="-25.58315">
					<ele>214</ele>
					<time>0001-01-01T00:00:00Z</time>
				</trkpt>
				<trkpt lat="37.77667" lon="-25.58121">
					<ele>209</ele>
					<time>0001-01-01T00:00:00Z</time>
				</trkpt>
				<trkpt lat="37.77640" lon="-25.57947">
					<ele>196</ele>
					<time>0001-01-01T00:00:00Z</time>
				</trkpt>
				<trkpt lat="37.77632" lon="-25.57899">
					<ele>194</ele>
					<time>0001-01-01T00:00:00Z</time>
				</trkpt>
				<trkpt lat="37.77610" lon="-25.57889">
					<ele>195</ele>
					<time>0001-01-01T00:00:00Z</time>
				</trkpt>
				<trkpt lat="37.77606" lon="-25.57901">
					<ele>195</ele>
					<time>0001-01-01T00:00:00Z</time>
				</trkpt>
				<trkpt lat="37.77553" lon="-25.58032">
					<ele>196</ele>
					<time>0001-01-01T00:00:00Z</time>
				</trkpt>
				<trkpt lat="37.77506" lon="-25.58102">
					<ele>198</ele>
					<time>0001-01-01T00:00:00Z</time>
				</trkpt>
				<trkpt lat="37.77438" lon="-25.58165">
					<ele>202</ele>
					<time>0001-01-01T00:00:00Z</time>
				</trkpt>
				<trkpt lat="37.77352" lon="-25.58214">
					<ele>202</ele>
					<time>0001-01-01T00:00:00Z</time>
				</trkpt>
				<trkpt lat="37.77249" lon="-25.58283">
					<ele>200</ele>
					<time>0001-01-01T00:00:00Z</time>
				</trkpt>
				<trkpt lat="37.77152" lon="-25.58354">
					<ele>193</ele>
					<time>0001-01-01T00:00:00Z</time>
				</trkpt>
				<trkpt lat="37.77121" lon="-25.58391">
					<ele>191</ele>
					<time>0001-01-01T00:00:00Z</time>
				</trkpt>
				<trkpt lat="37.77097" lon="-25.58434">
					<ele>187</ele>
					<time>0001-01-01T00:00:00Z</time>
				</trkpt>
				<trkpt lat="37.77059" lon="-25.58441">
					<ele>186</ele>
					<time>0001-01-01T00:00:00Z</time>
				</trkpt>
				<trkpt lat="37.77048" lon="-25.58430">
					<ele>187</ele>
					<time>0001-01-01T00:00:00Z</time>
				</trkpt>
				<trkpt lat="37.76968" lon="-25.58311">
					<ele>186</ele>
					<time>0001-01-01T00:00:00Z</time>
				</trkpt>
				<trkpt lat="37.76863" lon="-25.58204">
					<ele>182</ele>
					<time>0001-01-01T00:00:00Z</time>
				</trkpt>
				<trkpt lat="37.76846" lon="-25.58193">
					<ele>181</ele>
					<time>0001-01-01T00:00:00Z</time>
				</trkpt>
				<trkpt lat="37.76759" lon="-25.58072">
					<ele>175</ele>
					<time>0001-01-01T00:00:00Z</time>
				</trkpt>
				<trkpt lat="37.76713" lon="-25.57984">
					<ele>172</ele>
					<time>0001-01-01T00:00:00Z</time>
				</trkpt>
				<trkpt lat="37.76655" lon="-25.57926">
					<ele>169</ele>
					<time>0001-01-01T00:00:00Z</time>
				</trkpt>
				<trkpt lat="37.76633" lon="-25.57873">
					<ele>169</ele>
					<time>0001-01-01T00:00:00Z</time>
				</trkpt>
				<trkpt lat="37.76662" lon="-25.57804">
					<ele>167</ele>
					<time>0001-01-01T00:00:00Z</time>
				</trkpt>
				<trkpt lat="37.76686" lon="-25.57785">
					<ele>167</ele>
					<time>0001-01-01T00:00:00Z</time>
				</trkpt>
				<trkpt lat="37.76698" lon="-25.57765">
					<ele>168</ele>
					<time>0001-01-01T00:00:00Z</time>
				</trkpt>
				<trkpt lat="37.76722" lon="-25.57694">
					<ele>170</ele>
					<time>0001-01-01T00:00:00Z</time>
				</trkpt>
				<trkpt lat="37.76729" lon="-25.57632">
					<ele>172</ele>
					<time>0001-01-01T00:00:00Z</time>
				</trkpt>
				<trkpt lat="37.76733" lon="-25.57582">
					<ele>176</ele>
					<time>0001-01-01T00:00:00Z</time>
				</trkpt>
				<trkpt lat="37.76738" lon="-25.57532">
					<ele>177</ele>
					<time>0001-01-01T00:00:00Z</time>
				</trkpt>
				<trkpt lat="37.76744" lon="-25.57453">
					<ele>182</ele>
					<time>0001-01-01T00:00:00Z</time>
				</trkpt>
				<trkpt lat="37.76746" lon="-25.57373">
					<ele>186</ele>
					<time>0001-01-01T00:00:00Z</time>
				</trkpt>
				<trkpt lat="37.76740" lon="-25.57296">
					<ele>190</ele>
					<time>0001-01-01T00:00:00Z</time>
				</trkpt>
				<trkpt lat="37.76729" lon="-25.57184">
					<ele>191</ele>
					<time>0001-01-01T00:00:00Z</time>
				</trkpt>
				<trkpt lat="37.76725" lon="-25.57154">
					<ele>192</ele>
					<time>0001-01-01T00:00:00Z</time>
				</trkpt>
				<trkpt lat="37.76709" lon="-25.57129">
					<ele>190</ele>
					<time>0001-01-01T00:00:00Z</time>
				</trkpt>
				<trkpt lat="37.76650" lon="-25.57063">
					<ele>185</ele>
					<time>0001-01-01T00:00:00Z</time>
				</trkpt>
				<trkpt lat="37.76585" lon="-25.56886">
					<ele>181</ele>
					<time>0001-01-01T00:00:00Z</time>
				</trkpt>
				<trkpt lat="37.76540" lon="-25.56784">
					<ele>179</ele>
					<time>0001-01-01T00:00:00Z</time>
				</trkpt>
				<trkpt lat="37.76498" lon="-25.56669">
					<ele>178</ele>
					<time>0001-01-01T00:00:00Z</time>
				</trkpt>
				<trkpt lat="37.76487" lon="-25.56638">
					<ele>179</ele>
					<time>0001-01-01T00:00:00Z</time>
				</trkpt>
				<trkpt lat="37.76478" lon="-25.56581">
					<ele>179</ele>
					<time>0001-01-01T00:00:00Z</time>
				</trkpt>
				<trkpt lat="37.76477" lon="-25.56580">
					<ele>178</ele>
					<time>0001-01-01T00:00:00Z</time>
				</trkpt>
				<trkpt lat="37.76465" lon="-25.56584">
					<ele>176</ele>
					<time>0001-01-01T00:00:00Z</time>
				</trkpt>
				<trkpt lat="37.76436" lon="-25.56610">
					<ele>174</ele>
					<time>0001-01-01T00:00:00Z</time>
				</trkpt>
				<trkpt lat="37.76415" lon="-25.56611">
					<ele>173</ele>
					<time>0001-01-01T00:00:00Z</time>
				</trkpt>
				<trkpt lat="37.76386" lon="-25.56593">
					<ele>172</ele>
					<time>0001-01-01T00:00:00Z</time>
				</trkpt>
				<trkpt lat="37.76355" lon="-25.56596">
					<ele>171</ele>
					<time>0001-01-01T00:00:00Z</time>
				</trkpt>
				<trkpt lat="37.76336" lon="-25.56605">
					<ele>168</ele>
					<time>0001-01-01T00:00:00Z</time>
				</trkpt>
				<trkpt lat="37.76310" lon="-25.56610">
					<ele>166</ele>
					<time>0001-01-01T00:00:00Z</time>
				</trkpt>
				<trkpt lat="37.76231" lon="-25.56721">
					<ele>157</ele>
					<time>0001-01-01T00:00:00Z</time>
				</trkpt>
				<trkpt lat="37.76163" lon="-25.56817">
					<ele>152</ele>
					<time>0001-01-01T00:00:00Z</time>
				</trkpt>
				<trkpt lat="37.76132" lon="-25.56855">
					<ele>151</ele>
					<time>0001-01-01T00:00:00Z</time>
				</trkpt>
				<trkpt lat="37.76121" lon="-25.56865">
					<ele>150</ele>
					<time>0001-01-01T00:00:00Z</time>
				</trkpt>
				<trkpt lat="37.76108" lon="-25.56873">
					<ele>149</ele>
					<time>0001-01-01T00:00:00Z</time>
				</trkpt>
				<trkpt lat="37.76014" lon="-25.56894">
					<ele>144</ele>
					<time>0001-01-01T00:00:00Z</time>
				</trkpt>
				<trkpt lat="37.76008" lon="-25.56896">
					<ele>144</ele>
					<time>0001-01-01T00:00:00Z</time>
				</trkpt>
				<trkpt lat="37.75988" lon="-25.56911">
					<ele>142</ele>
					<time>0001-01-01T00:00:00Z</time>
				</trkpt>
				<trkpt lat="37.75936" lon="-25.56971">
					<ele>138</ele>
					<time>0001-01-01T00:00:00Z</time>
				</trkpt>
				<trkpt lat="37.75897" lon="-25.56983">
					<ele>136</ele>
					<time>0001-01-01T00:00:00Z</time>
				</trkpt>
				<trkpt lat="37.75874" lon="-25.56983">
					<ele>132</ele>
					<time>0001-01-01T00:00:00Z</time>
				</trkpt>
				<trkpt lat="37.75843" lon="-25.56998">
					<ele>126</ele>
					<time>0001-01-01T00:00:00Z</time>
				</trkpt>
				<trkpt lat="37.75742" lon="-25.57046">
					<ele>118</ele>
					<time>0001-01-01T00:00:00Z</time>
				</trkpt>
				<trkpt lat="37.75703" lon="-25.57059">
					<ele>115</ele>
					<time>0001-01-01T00:00:00Z</time>
				</trkpt>
				<trkpt lat="37.75659" lon="-25.57108">
					<ele>111</ele>
					<time>0001-01-01T00:00:00Z</time>
				</trkpt>
				<trkpt lat="37.75636" lon="-25.57168">
					<ele>108</ele>
					<time>0001-01-01T00:00:00Z</time>
				</trkpt>
				<trkpt lat="37.75609" lon="-25.57179">
					<ele>107</ele>
					<time>0001-01-01T00:00:00Z</time>
				</trkpt>
				<trkpt lat="37.75594" lon="-25.57181">
					<ele>105</ele>
					<time>0001-01-01T00:00:00Z</time>
				</trkpt>
				<trkpt lat="37.75562" lon="-25.57198">
					<ele>102</ele>
					<time>0001-01-01T00:00:00Z</time>
				</trkpt>
				<trkpt lat="37.75470" lon="-25.57306">
					<ele>94</ele>
					<time>0001-01-01T00:00:00Z</time>
				</trkpt>
				<trkpt lat="37.75402" lon="-25.57409">
					<ele>90</ele>
					<time>0001-01-01T00:00:00Z</time>
				</trkpt>
				<trkpt lat="37.75364" lon="-25.57433">
					<ele>85</ele>
					<time>0001-01-01T00:00:00Z</time>
				</trkpt>
				<trkpt lat="37.75319" lon="-25.57443">
					<ele>81</ele>
					<time>0001-01-01T00:00:00Z</time>
				</trkpt>
				<trkpt lat="37.75279" lon="-25.57475">
					<ele>78</ele>
					<time>0001-01-01T00:00:00Z</time>
				</trkpt>
				<trkpt lat="37.75255" lon="-25.57474">
					<ele>76</ele>
					<time>0001-01-01T00:00:00Z</time>
				</trkpt>
				<trkpt lat="37.75188" lon="-25.57478">
					<ele>69</ele>
					<time>0001-01-01T00:00:00Z</time>
				</trkpt>
				<trkpt lat="37.75151" lon="-25.57498">
					<ele>66</ele>
					<time>0001-01-01T00:00:00Z</time>
				</trkpt>
				<trkpt lat="37.75034" lon="-25.57540">
					<ele>56</ele>
					<time>0001-01-01T00:00:00Z</time>
				</trkpt>
				<trkpt lat="37.75025" lon="-25.57544">
					<ele>56</ele>
					<time>0001-01-01T00:00:00Z</time>
				</trkpt>
				<trkpt lat="37.74993" lon="-25.57539">
					<ele>53</ele>
					<time>0001-01-01T00:00:00Z</time>
				</trkpt>
				<trkpt lat="37.74961" lon="-25.57522">
					<ele>51</ele>
					<time>0001-01-01T00:00:00Z</time>
				</trkpt>
				<trkpt lat="37.74923" lon="-25.57531">
					<ele>47</ele>
					<time>0001-01-01T00:00:00Z</time>
				</trkpt>
				<trkpt lat="37.74878" lon="-25.57562">
					<ele>43</ele>
					<time>0001-01-01T00:00:00Z</time>
				</trkpt>
				<trkpt lat="37.74853" lon="-25.57567">
					<ele>41</ele>
					<time>0001-01-01T00:00:00Z</time>
				</trkpt>
				<trkpt lat="37.74826" lon="-25.57557">
					<ele>40</ele>
					<time>0001-01-01T00:00:00Z</time>
				</trkpt>
				<trkpt lat="37.74802" lon="-25.57548">
					<ele>40</ele>
					<time>0001-01-01T00:00:00Z</time>
				</trkpt>
				<trkpt lat="37.74793" lon="-25.57551">
					<ele>40</ele>
					<time>0001-01-01T00:00:00Z</time>
				</trkpt>
				<trkpt lat="37.74767" lon="-25.57582">
					<ele>39</ele>
					<time>0001-01-01T00:00:00Z</time>
				</trkpt>
				<trkpt lat="37.74755" lon="-25.57580">
					<ele>38</ele>
					<time>0001-01-01T00:00:00Z</time>
				</trkpt>
				<trkpt lat="37.74634" lon="-25.57561">
					<ele>35</ele>
					<time>0001-01-01T00:00:00Z</time>
				</trkpt>
				<trkpt lat="37.74609" lon="-25.57557">
					<ele>33</ele>
					<time>0001-01-01T00:00:00Z</time>
				</trkpt>
				<trkpt lat="37.74605" lon="-25.57556">
					<ele>34</ele>
					<time>0001-01-01T00:00:00Z</time>
				</trkpt>
				<trkpt lat="37.74602" lon="-25.57536">
					<ele>33</ele>
					<time>0001-01-01T00:00:00Z</time>
				</trkpt>
				<trkpt lat="37.74627" lon="-25.57416">
					<ele>32</ele>
					<time>0001-01-01T00:00:00Z</time>
				</trkpt>
				<trkpt lat="37.74629" lon="-25.57408">
					<ele>32</ele>
					<time>0001-01-01T00:00:00Z</time>
				</trkpt>
				<trkpt lat="37.74664" lon="-25.57230">
					<ele>32</ele>
					<time>0001-01-01T00:00:00Z</time>
				</trkpt>
				<trkpt lat="37.74664" lon="-25.57229">
					<ele>32</ele>
					<time>0001-01-01T00:00:00Z</time>
				</trkpt>
				<trkpt lat="37.74669" lon="-25.57204">
					<ele>32</ele>
					<time>0001-01-01T00:00:00Z</time>
				</trkpt>
				<trkpt lat="37.74687" lon="-25.57106">
					<ele>34</ele>
					<time>0001-01-01T00:00:00Z</time>
				</trkpt>
				<trkpt lat="37.74686" lon="-25.57085">
					<ele>34</ele>
					<time>0001-01-01T00:00:00Z</time>
				</trkpt>
				<trkpt lat="37.74654" lon="-25.56980">
					<ele>38</ele>
					<time>0001-01-01T00:00:00Z</time>
				</trkpt>
				<trkpt lat="37.74639" lon="-25.56932">
					<ele>40</ele>
					<time>0001-01-01T00:00:00Z</time>
				</trkpt>
				<trkpt lat="37.74610" lon="-25.56823">
					<ele>45</ele>
					<time>0001-01-01T00:00:00Z</time>
				</trkpt>
				<trkpt lat="37.74581" lon="-25.56693">
					<ele>50</ele>
					<time>0001-01-01T00:00:00Z</time>
				</trkpt>
				<trkpt lat="37.74566" lon="-25.56577">
					<ele>52</ele>
					<time>0001-01-01T00:00:00Z</time>
				</trkpt>
				<trkpt lat="37.74569" lon="-25.56477">
					<ele>53</ele>
					<time>0001-01-01T00:00:00Z</time>
				</trkpt>
				<trkpt lat="37.74578" lon="-25.56441">
					<ele>55</ele>
					<time>0001-01-01T00:00:00Z</time>
				</trkpt>
				<trkpt lat="37.74620" lon="-25.56355">
					<ele>58</ele>
					<time>0001-01-01T00:00:00Z</time>
				</trkpt>
				<trkpt lat="37.74611" lon="-25.56303">
					<ele>58</ele>
					<time>0001-01-01T00:00:00Z</time>
				</trkpt>
				<trkpt lat="37.74553" lon="-25.56230">
					<ele>63</ele>
					<time>0001-01-01T00:00:00Z</time>
				</trkpt>
				<trkpt lat="37.74513" lon="-25.56184">
					<ele>65</ele>
					<time>0001-01-01T00:00:00Z</time>
				</trkpt>
				<trkpt lat="37.74448" lon="-25.56105">
					<ele>69</ele>
					<time>0001-01-01T00:00:00Z</time>
				</trkpt>
				<trkpt lat="37.74397" lon="-25.56027">
					<ele>74</ele>
					<time>0001-01-01T00:00:00Z</time>
				</trkpt>
				<trkpt lat="37.74397" lon="-25.55934">
					<ele>76</ele>
					<time>0001-01-01T00:00:00Z</time>
				</trkpt>
				<trkpt lat="37.74380" lon="-25.55867">
					<ele>80</ele>
					<time>0001-01-01T00:00:00Z</time>
				</trkpt>
				<trkpt lat="37.74334" lon="-25.55808">
					<ele>83</ele>
					<time>0001-01-01T00:00:00Z</time>
				</trkpt>
				<trkpt lat="37.74326" lon="-25.55801">
					<ele>83</ele>
					<time>0001-01-01T00:00:00Z</time>
				</trkpt>
				<trkpt lat="37.74301" lon="-25.55785">
					<ele>83</ele>
					<time>0001-01-01T00:00:00Z</time>
				</trkpt>
				<trkpt lat="37.74293" lon="-25.55778">
					<ele>84</ele>
					<time>0001-01-01T00:00:00Z</time>
				</trkpt>
				<trkpt lat="37.74237" lon="-25.55691">
					<ele>85</ele>
					<time>0001-01-01T00:00:00Z</time>
				</trkpt>
				<trkpt lat="37.74164" lon="-25.55586">
					<ele>85</ele>
					<time>0001-01-01T00:00:00Z</time>
				</trkpt>
				<trkpt lat="37.74113" lon="-25.55509">
					<ele>90</ele>
					<time>0001-01-01T00:00:00Z</time>
				</trkpt>
				<trkpt lat="37.74094" lon="-25.55405">
					<ele>95</ele>
					<time>0001-01-01T00:00:00Z</time>
				</trkpt>
				<trkpt lat="37.74115" lon="-25.55313">
					<ele>96</ele>
					<time>0001-01-01T00:00:00Z</time>
				</trkpt>
				<trkpt lat="37.74124" lon="-25.55265">
					<ele>97</ele>
					<time>0001-01-01T00:00:00Z</time>
				</trkpt>
				<trkpt lat="37.74123" lon="-25.55250">
					<ele>97</ele>
					<time>0001-01-01T00:00:00Z</time>
				</trkpt>
				<trkpt lat="37.74112" lon="-25.55215">
					<ele>97</ele>
					<time>0001-01-01T00:00:00Z</time>
				</trkpt>
				<trkpt lat="37.74067" lon="-25.55139">
					<ele>100</ele>
					<time>0001-01-01T00:00:00Z</time>
				</trkpt>
				<trkpt lat="37.74065" lon="-25.55116">
					<ele>102</ele>
					<time>0001-01-01T00:00:00Z</time>
				</trkpt>
				<trkpt lat="37.74074" lon="-25.55044">
					<ele>105</ele>
					<time>0001-01-01T00:00:00Z</time>
				</trkpt>
				<trkpt lat="37.74085" lon="-25.54928">
					<ele>115</ele>
					<time>0001-01-01T00:00:00Z</time>
				</trkpt>
				<trkpt lat="37.74083" lon="-25.54918">
					<ele>115</ele>
					<time>0001-01-01T00:00:00Z</time>
				</trkpt>
				<trkpt lat="37.74076" lon="-25.54898">
					<ele>115</ele>
					<time>0001-01-01T00:00:00Z</time>
				</trkpt>
				<trkpt lat="37.74014" lon="-25.54817">
					<ele>117</ele>
					<time>0001-01-01T00:00:00Z</time>
				</trkpt>
				<trkpt lat="37.73909" lon="-25.54724">
					<ele>122</ele>
					<time>0001-01-01T00:00:00Z</time>
				</trkpt>
				<trkpt lat="37.73796" lon="-25.54650">
					<ele>127</ele>
					<time>0001-01-01T00:00:00Z</time>
				</trkpt>
				<trkpt lat="37.73681" lon="-25.54593">
					<ele>133</ele>
					<time>0001-01-01T00:00:00Z</time>
				</trkpt>
				<trkpt lat="37.73573" lon="-25.54558">
					<ele>134</ele>
					<time>0001-01-01T00:00:00Z</time>
				</trkpt>
				<trkpt lat="37.73477" lon="-25.54536">
					<ele>133</ele>
					<time>0001-01-01T00:00:00Z</time>
				</trkpt>
				<trkpt lat="37.73364" lon="-25.54518">
					<ele>129</ele>
					<time>0001-01-01T00:00:00Z</time>
				</trkpt>
				<trkpt lat="37.73215" lon="-25.54502">
					<ele>129</ele>
					<time>0001-01-01T00:00:00Z</time>
				</trkpt>
				<trkpt lat="37.73137" lon="-25.54499">
					<ele>129</ele>
					<time>0001-01-01T00:00:00Z</time>
				</trkpt>
				<trkpt lat="37.73109" lon="-25.54492">
					<ele>129</ele>
					<time>0001-01-01T00:00:00Z</time>
				</trkpt>
				<trkpt lat="37.73034" lon="-25.54417">
					<ele>128</ele>
					<time>0001-01-01T00:00:00Z</time>
				</trkpt>
				<trkpt lat="37.72959" lon="-25.54323">
					<ele>131</ele>
					<time>0001-01-01T00:00:00Z</time>
				</trkpt>
				<trkpt lat="37.72930" lon="-25.54288">
					<ele>132</ele>
					<time>0001-01-01T00:00:00Z</time>
				</trkpt>
				<trkpt lat="37.72893" lon="-25.54203">
					<ele>134</ele>
					<time>0001-01-01T00:00:00Z</time>
				</trkpt>
				<trkpt lat="37.72831" lon="-25.54079">
					<ele>139</ele>
					<time>0001-01-01T00:00:00Z</time>
				</trkpt>
				<trkpt lat="37.72758" lon="-25.53955">
					<ele>138</ele>
					<time>0001-01-01T00:00:00Z</time>
				</trkpt>
				<trkpt lat="37.72691" lon="-25.53852">
					<ele>134</ele>
					<time>0001-01-01T00:00:00Z</time>
				</trkpt>
				<trkpt lat="37.72582" lon="-25.53674">
					<ele>126</ele>
					<time>0001-01-01T00:00:00Z</time>
				</trkpt>
				<trkpt lat="37.72505" lon="-25.53525">
					<ele>121</ele>
					<time>0001-01-01T00:00:00Z</time>
				</trkpt>
				<trkpt lat="37.72489" lon="-25.53384">
					<ele>118</ele>
					<time>0001-01-01T00:00:00Z</time>
				</trkpt>
				<trkpt lat="37.72435" lon="-25.53244">
					<ele>120</ele>
					<time>0001-01-01T00:00:00Z</time>
				</trkpt>
				<trkpt lat="37.72429" lon="-25.53154">
					<ele>123</ele>
					<time>0001-01-01T00:00:00Z</time>
				</trkpt>
				<trkpt lat="37.72390" lon="-25.53028">
					<ele>125</ele>
					<time>0001-01-01T00:00:00Z</time>
				</trkpt>
				<trkpt lat="37.72390" lon="-25.52974">
					<ele>123</ele>
					<time>0001-01-01T00:00:00Z</time>
				</trkpt>
				<trkpt lat="37.72314" lon="-25.52710">
					<ele>120</ele>
					<time>0001-01-01T00:00:00Z</time>
				</trkpt>
				<trkpt lat="37.72330" lon="-25.52622">
					<ele>125</ele>
					<time>0001-01-01T00:00:00Z</time>
				</trkpt>
				<trkpt lat="37.72348" lon="-25.52516">
					<ele>132</ele>
					<time>0001-01-01T00:00:00Z</time>
				</trkpt>
				<trkpt lat="37.72371" lon="-25.52377">
					<ele>138</ele>
					<time>0001-01-01T00:00:00Z</time>
				</trkpt>
				<trkpt lat="37.72376" lon="-25.52259">
					<ele>141</ele>
					<time>0001-01-01T00:00:00Z</time>
				</trkpt>
				<trkpt lat="37.72336" lon="-25.52144">
					<ele>140</ele>
					<time>0001-01-01T00:00:00Z</time>
				</trkpt>
				<trkpt lat="37.72279" lon="-25.52053">
					<ele>136</ele>
					<time>0001-01-01T00:00:00Z</time>
				</trkpt>
				<trkpt lat="37.72174" lon="-25.51955">
					<ele>129</ele>
					<time>0001-01-01T00:00:00Z</time>
				</trkpt>
				<trkpt lat="37.72145" lon="-25.51888">
					<ele>126</ele>
					<time>0001-01-01T00:00:00Z</time>
				</trkpt>
				<trkpt lat="37.72125" lon="-25.51773">
					<ele>123</ele>
					<time>0001-01-01T00:00:00Z</time>
				</trkpt>
				<trkpt lat="37.72143" lon="-25.51727">
					<ele>121</ele>
					<time>0001-01-01T00:00:00Z</time>
				</trkpt>
				<trkpt lat="37.72168" lon="-25.51698">
					<ele>121</ele>
					<time>0001-01-01T00:00:00Z</time>
				</trkpt>
				<trkpt lat="37.72281" lon="-25.51653">
					<ele>112</ele>
					<time>0001-01-01T00:00:00Z</time>
				</trkpt>
				<trkpt lat="37.72309" lon="-25.51614">
					<ele>110</ele>
					<time>0001-01-01T00:00:00Z</time>
				</trkpt>
				<trkpt lat="37.72318" lon="-25.51579">
					<ele>108</ele>
					<time>0001-01-01T00:00:00Z</time>
				</trkpt>
				<trkpt lat="37.72294" lon="-25.51527">
					<ele>104</ele>
					<time>0001-01-01T00:00:00Z</time>
				</trkpt>
				<trkpt lat="37.72286" lon="-25.51522">
					<ele>104</ele>
					<time>0001-01-01T00:00:00Z</time>
				</trkpt>
				<trkpt lat="37.72243" lon="-25.51503">
					<ele>103</ele>
					<time>0001-01-01T00:00:00Z</time>
				</trkpt>
				<trkpt lat="37.72200" lon="-25.51510">
					<ele>102</ele>
					<time>0001-01-01T00:00:00Z</time>
				</trkpt>
				<trkpt lat="37.72146" lon="-25.51531">
					<ele>102</ele>
					<time>0001-01-01T00:00:00Z</time>
				</trkpt>
				<trkpt lat="37.72098" lon="-25.51487">
					<ele>102</ele>
					<time>0001-01-01T00:00:00Z</time>
				</trkpt>
				<trkpt lat="37.72095" lon="-25.51478">
					<ele>102</ele>
					<time>0001-01-01T00:00:00Z</time>
				</trkpt>
				<trkpt lat="37.72056" lon="-25.51352">
					<ele>104</ele>
					<time>0001-01-01T00:00:00Z</time>
				</trkpt>
				<trkpt lat="37.72029" lon="-25.51300">
					<ele>104</ele>
					<time>0001-01-01T00:00:00Z</time>
				</trkpt>
				<trkpt lat="37.72015" lon="-25.51197">
					<ele>105</ele>
					<time>0001-01-01T00:00:00Z</time>
				</trkpt>
				<trkpt lat="37.72015" lon="-25.51140">
					<ele>105</ele>
					<time>0001-01-01T00:00:00Z</time>
				</trkpt>
				<trkpt lat="37.71997" lon="-25.51117">
					<ele>105</ele>
					<time>0001-01-01T00:00:00Z</time>
				</trkpt>
				<trkpt lat="37.71932" lon="-25.51161">
					<ele>106</ele>
					<time>0001-01-01T00:00:00Z</time>
				</trkpt>
				<trkpt lat="37.71911" lon="-25.51173">
					<ele>105</ele>
					<time>0001-01-01T00:00:00Z</time>
				</trkpt>
				<trkpt lat="37.71837" lon="-25.51189">
					<ele>102</ele>
					<time>0001-01-01T00:00:00Z</time>
				</trkpt>
				<trkpt lat="37.71822" lon="-25.51196">
					<ele>102</ele>
					<time>0001-01-01T00:00:00Z</time>
				</trkpt>
				<trkpt lat="37.71810" lon="-25.51195">
					<ele>101</ele>
					<time>0001-01-01T00:00:00Z</time>
				</trkpt>
				<trkpt lat="37.71782" lon="-25.51200">
					<ele>97</ele>
					<time>0001-01-01T00:00:00Z</time>
				</trkpt>
				<trkpt lat="37.71733" lon="-25.51197">
					<ele>92</ele>
					<time>0001-01-01T00:00:00Z</time>
				</trkpt>
				<trkpt lat="37.71705" lon="-25.51188">
					<ele>90</ele>
					<time>0001-01-01T00:00:00Z</time>
				</trkpt>
				<trkpt lat="37.71661" lon="-25.51159">
					<ele>84</ele>
					<time>0001-01-01T00:00:00Z</time>
				</trkpt>
				<trkpt lat="37.71636" lon="-25.51126">
					<ele>81</ele>
					<time>0001-01-01T00:00:00Z</time>
				</trkpt>
				<trkpt lat="37.71623" lon="-25.51099">
					<ele>79</ele>
					<time>0001-01-01T00:00:00Z</time>
				</trkpt>
				<trkpt lat="37.71582" lon="-25.51074">
					<ele>77</ele>
					<time>0001-01-01T00:00:00Z</time>
				</trkpt>
				<trkpt lat="37.71574" lon="-25.51077">
					<ele>76</ele>
					<time>0001-01-01T00:00:00Z</time>
				</trkpt>
				<trkpt lat="37.71517" lon="-25.51048">
					<ele>72</ele>
					<time>0001-01-01T00:00:00Z</time>
				</trkpt>
				<trkpt lat="37.71483" lon="-25.51001">
					<ele>69</ele>
					<time>0001-01-01T00:00:00Z</time>
				</trkpt>
				<trkpt lat="37.71472" lon="-25.50992">
					<ele>68</ele>
					<time>0001-01-01T00:00:00Z</time>
				</trkpt>
				<trkpt lat="37.71444" lon="-25.50971">
					<ele>68</ele>
					<time>0001-01-01T00:00:00Z</time>
				</trkpt>
				<trkpt lat="37.71430" lon="-25.50947">
					<ele>70</ele>
					<time>0001-01-01T00:00:00Z</time>
				</trkpt>
				<trkpt lat="37.71402" lon="-25.50885">
					<ele>73</ele>
					<time>0001-01-01T00:00:00Z</time>
				</trkpt>
				<trkpt lat="37.71396" lon="-25.50780">
					<ele>72</ele>
					<time>0001-01-01T00:00:00Z</time>
				</trkpt>
				<trkpt lat="37.71382" lon="-25.50700">
					<ele>69</ele>
					<time>0001-01-01T00:00:00Z</time>
				</trkpt>
				<trkpt lat="37.71365" lon="-25.50660">
					<ele>68</ele>
					<time>0001-01-01T00:00:00Z</time>
				</trkpt>
				<trkpt lat="37.71260" lon="-25.50550">
					<ele>60</ele>
					<time>0001-01-01T00:00:00Z</time>
				</trkpt>
				<trkpt lat="37.71237" lon="-25.50522">
					<ele>58</ele>
					<time>0001-01-01T00:00:00Z</time>
				</trkpt>
				<trkpt lat="37.71220" lon="-25.50487">
					<ele>57</ele>
					<time>0001-01-01T00:00:00Z</time>
				</trkpt>
				<trkpt lat="37.71203" lon="-25.50381">
					<ele>56</ele>
					<time>0001-01-01T00:00:00Z</time>
				</trkpt>
				<trkpt lat="37.71203" lon="-25.50368">
					<ele>57</ele>
					<time>0001-01-01T00:00:00Z</time>
				</trkpt>
				<trkpt lat="37.71228" lon="-25.50301">
					<ele>58</ele>
					<time>0001-01-01T00:00:00Z</time>
				</trkpt>
				<trkpt lat="37.71249" lon="-25.50250">
					<ele>55</ele>
					<time>0001-01-01T00:00:00Z</time>
				</trkpt>
				<trkpt lat="37.71253" lon="-25.50231">
					<ele>53</ele>
					<time>0001-01-01T00:00:00Z</time>
				</trkpt>
				<trkpt lat="37.71247" lon="-25.50223">
					<ele>53</ele>
					<time>0001-01-01T00:00:00Z</time>
				</trkpt>
				<trkpt lat="37.71192" lon="-25.50216">
					<ele>53</ele>
					<time>0001-01-01T00:00:00Z</time>
				</trkpt>
				<trkpt lat="37.71140" lon="-25.50213">
					<ele>49</ele>
					<time>0001-01-01T00:00:00Z</time>
				</trkpt>
				<trkpt lat="37.71099" lon="-25.50209">
					<ele>44</ele>
					<time>0001-01-01T00:00:00Z</time>
				</trkpt>
				<trkpt lat="37.71090" lon="-25.50206">
					<ele>44</ele>
					<time>0001-01-01T00:00:00Z</time>
				</trkpt>
				<trkpt lat="37.71090" lon="-25.50201">
					<ele>43</ele>
					<time>0001-01-01T00:00:00Z</time>
				</trkpt>
				<trkpt lat="37.71093" lon="-25.50182">
					<ele>41</ele>
					<time>0001-01-01T00:00:00Z</time>
				</trkpt>
				<trkpt lat="37.71094" lon="-25.50181">
					<ele>41</ele>
					<time>0001-01-01T00:00:00Z</time>
				</trkpt>
				<trkpt lat="37.71097" lon="-25.50173">
					<ele>41</ele>
					<time>0001-01-01T00:00:00Z</time>
				</trkpt>
				<trkpt lat="37.71100" lon="-25.50174">
					<ele>43</ele>
					<time>0001-01-01T00:00:00Z</time>
				</trkpt>
		</trkseg>
	</trk>
</gpx>
